GFSMA_sfc_thetae_000.txt.gz
Theta_e
357 357 359 357 355 356 357 358 356 356 356 353 353 353 351 352 353 354 356 361 361 360 358 359 359 357 355 358 357 357 355 356 354 354 351 353 353 352 353 353 354 355 356
358 356 358 355 355 356 360 358 362 356 355 354 352 353 352 352 354 355 354 357 361 362 360 359 359 358 356 356 357 358 357 358 358 357 356 356 356 355 354 354 355 355 356
361 363 357 355 358 358 358 357 359 357 355 354 354 353 353 354 353 356 356 355 356 361 362 361 362 362 360 357 359 360 360 360 360 360 359 359 358 358 358 357 357 357 357
363 363 354 355 357 358 354 353 358 353 355 352 352 352 352 352 353 354 355 354 354 352 359 362 363 363 360 359 360 362 362 361 360 359 359 359 360 360 359 360 359 359 359
363 363 361 354 359 354 353 351 353 353 355 355 351 350 352 351 351 350 351 353 355 354 353 359 361 362 360 359 362 364 362 361 361 359 359 359 360 361 360 360 359 359 359
361 362 357 358 358 353 351 351 355 354 352 351 349 347 348 350 350 349 350 351 352 353 353 355 359 358 361 362 362 363 363 362 362 361 360 359 358 359 359 358 359 359 359
363 363 363 359 363 359 356 357 356 352 349 352 347 346 347 349 349 349 349 349 351 351 352 353 354 354 356 361 360 361 364 364 363 363 361 360 359 358 358 357 357 358 359
358 357 357 354 355 351 355 355 356 351 348 353 344 343 335 340 344 348 349 347 349 350 350 352 354 357 356 356 361 361 361 363 364 364 362 360 359 358 358 357 356 357 357
354 354 354 353 354 353 349 352 353 350 346 348 351 344 334 331 336 343 347 347 349 348 350 350 352 354 357 355 357 360 362 359 362 363 363 361 360 359 359 358 357 356 356
351 351 352 352 353 351 350 350 350 350 350 345 349 350 348 343 336 331 342 345 348 347 350 349 349 352 356 356 357 356 360 358 359 362 362 362 361 361 361 360 359 357 357
349 348 350 349 350 348 350 348 348 349 350 347 346 346 346 344 347 341 334 337 344 346 347 349 350 349 352 355 355 355 355 356 357 358 360 361 362 363 364 363 362 361 360
343 347 346 346 347 346 346 347 348 348 350 350 349 349 347 343 341 341 339 337 337 340 345 346 348 349 350 351 354 354 356 354 353 354 354 357 359 362 364 365 365 365 365
337 340 342 342 341 344 344 345 348 347 345 347 349 349 352 350 351 347 345 343 341 340 341 346 347 349 349 350 351 352 352 351 350 349 348 350 353 355 359 361 363 365 366
336 340 340 341 341 342 342 343 341 341 345 346 346 348 350 354 355 353 339 339 341 341 341 344 347 348 349 351 351 351 352 345 345 343 343 345 346 349 352 354 356 357 359
337 337 339 340 340 341 342 342 339 340 340 342 344 346 348 350 354 353 350 347 345 336 336 339 341 354 351 352 352 354 354 348 343 341 340 341 342 344 346 348 349 349 350
341 340 340 339 339 340 340 341 340 340 340 340 339 342 344 341 346 350 351 347 348 345 336 338 339 350 354 352 353 356 355 349 343 341 339 338 339 341 342 343 343 343 343
342 341 341 341 340 339 339 339 338 336 336 336 337 339 340 345 341 342 347 350 349 347 337 337 339 346 356 353 353 356 357 358 355 341 339 337 337 337 339 339 339 339 340
341 341 341 341 340 339 340 339 336 336 334 333 334 336 337 339 341 346 343 345 345 347 342 342 341 342 350 357 356 361 359 353 356 344 339 337 335 334 334 334 334 334 334
340 340 341 339 338 338 338 338 337 334 333 332 332 330 329 332 333 338 344 342 340 345 345 343 339 340 341 346 350 357 359 358 353 345 337 336 335 334 332 330 329 328 327
340 340 341 340 339 339 338 337 335 334 332 331 329 326 325 328 333 337 337 344 344 342 344 341 339 337 339 347 348 347 350 350 349 351 349 345 343 336 333 329 328 328 323
338 340 338 338 338 336 334 336 333 332 331 329 328 323 324 325 326 327 329 339 339 342 339 340 337 336 339 342 342 344 345 348 352 351 349 350 350 351 348 333 340 334 327
337 337 337 335 336 334 324 326 328 331 330 329 326 322 323 324 323 324 324 324 332 337 341 339 336 336 342 342 342 344 343 343 340 352 350 346 349 347 348 350 342 336 327
337 335 335 335 335 336 325 324 325 330 329 327 328 326 321 322 323 322 322 322 323 329 334 345 339 340 343 344 346 345 348 348 345 344 353 343 347 345 350 348 333 330 326
335 334 334 334 334 333 322 322 324 331 332 329 328 328 324 321 322 320 318 319 322 326 339 337 344 344 347 349 349 349 353 353 354 350 353 342 345 344 350 350 332 328 325
333 332 333 334 334 333 319 319 323 330 333 330 330 329 327 323 320 318 316 316 319 327 330 329 331 332 331 331 340 348 345 343 338 345 348 345 343 343 348 348 347 328 322
332 330 331 333 329 332 321 317 322 332 331 333 330 333 322 321 315 313 314 316 317 321 333 337 339 333 332 339 329 348 347 343 342 339 343 343 342 345 341 347 348 344 339

GFSMA_sfc_thetae_003.txt.gz
Theta_e
361 358 359 355 357 354 356 358 359 355 356 353 352 351 350 349 350 350 352 364 362 361 358 361 362 360 358 357 357 358 357 356 357 355 354 355 356 353 352 353 354 355 355
366 357 360 355 359 356 357 356 360 356 355 353 352 352 352 351 351 352 350 359 364 363 361 359 361 362 359 356 359 359 359 358 359 356 357 356 355 354 353 354 355 355 355
362 364 358 355 355 357 360 358 357 359 353 352 351 351 351 354 352 352 352 352 359 363 363 362 363 364 363 359 359 362 362 361 361 361 360 360 358 358 357 357 357 357 357
368 366 354 352 356 357 356 355 354 352 351 352 350 350 351 351 352 353 353 353 352 354 362 364 363 364 363 360 361 362 361 361 362 361 361 361 361 360 360 359 359 359 359
362 364 356 354 359 354 352 352 352 351 351 350 349 351 351 349 349 349 352 352 354 353 353 361 361 362 362 360 361 363 363 362 361 361 360 359 359 359 360 360 360 360 359
363 366 364 360 362 359 358 355 356 354 351 350 348 347 350 349 349 348 348 349 350 352 353 357 360 358 363 362 362 363 365 364 362 362 361 360 359 359 359 360 359 359 359
363 363 362 359 362 356 358 358 355 355 351 354 349 346 347 350 349 348 348 348 349 349 352 353 357 356 360 362 361 362 364 365 363 363 361 360 359 358 358 358 357 358 358
361 356 357 354 358 348 358 354 354 348 348 349 343 347 338 341 345 346 350 348 348 348 348 355 356 360 358 360 362 361 361 362 365 365 364 361 360 359 358 357 356 357 357
351 354 354 353 354 353 343 351 351 350 344 350 351 343 337 332 337 343 350 348 352 347 348 351 355 357 362 358 360 363 361 358 362 364 364 362 360 358 358 357 357 356 356
349 350 351 350 352 350 351 350 348 349 348 343 349 350 349 345 339 334 343 343 353 350 352 349 350 355 360 357 361 359 362 358 359 362 362 362 361 360 360 359 358 357 357
348 347 349 350 350 347 351 349 348 350 350 346 346 347 347 348 347 343 335 340 345 346 348 351 350 351 356 356 357 360 356 359 358 359 360 361 362 363 363 362 362 361 360
340 346 345 347 348 347 346 345 347 347 349 350 348 348 345 342 343 344 340 338 339 344 346 346 350 351 352 354 356 354 356 354 355 355 356 358 360 363 365 366 365 364 364
336 342 344 344 342 345 344 347 348 345 344 344 348 345 348 346 349 348 345 342 342 338 341 345 353 348 348 352 352 353 353 351 350 349 350 352 354 357 360 362 363 364 365
337 343 343 342 343 343 343 346 342 340 346 343 343 346 345 346 349 349 345 341 337 337 334 341 346 343 348 350 353 352 351 346 347 345 344 346 348 351 353 355 356 358 359
339 340 341 342 343 342 342 344 338 341 341 344 341 344 341 340 345 346 348 347 339 331 330 335 340 347 349 352 354 355 356 348 343 343 342 342 343 345 347 348 349 350 350
343 342 341 341 342 342 344 345 341 342 342 337 336 338 340 335 338 340 343 344 345 341 334 336 339 346 352 347 354 354 358 350 343 341 339 339 340 341 343 344 344 344 345
344 342 341 340 341 341 342 343 341 340 338 339 339 338 338 341 332 335 341 342 341 344 337 336 338 343 343 351 347 355 356 358 352 340 339 338 337 338 340 340 340 341 342
343 342 341 341 340 340 343 340 338 338 337 335 334 333 331 330 334 334 335 340 341 342 339 335 338 340 347 353 353 356 353 352 354 344 339 337 336 335 335 336 336 336 336
340 340 341 340 340 339 339 339 339 337 336 334 333 331 330 329 326 324 324 338 340 341 339 338 338 342 343 347 351 355 356 355 355 347 338 337 335 334 333 331 331 330 329
341 341 342 341 339 339 339 339 338 337 335 333 333 331 329 327 324 321 321 323 328 335 338 337 340 340 341 345 347 342 345 350 349 350 348 347 342 337 334 330 329 329 325
339 340 341 339 337 337 333 338 338 335 334 333 332 332 330 327 325 323 321 321 321 321 322 338 337 339 338 339 338 342 341 351 352 353 351 352 351 350 347 334 341 334 328
340 341 337 338 339 333 327 326 330 332 333 332 330 331 332 328 325 324 323 323 322 320 320 320 337 337 340 340 340 338 343 344 342 352 351 348 348 351 352 353 342 337 328
343 341 337 337 338 339 324 328 329 330 331 333 332 331 328 329 328 324 320 321 322 323 324 325 322 333 338 342 342 343 347 345 345 348 356 347 351 345 351 349 335 333 328
342 340 338 339 338 335 322 324 327 331 332 334 335 334 333 329 328 323 319 317 318 321 324 327 333 331 339 347 347 342 348 348 352 351 350 344 346 345 350 351 332 331 326
338 337 338 337 339 339 320 320 326 330 333 334 334 335 334 329 324 319 318 316 318 320 323 322 322 324 330 331 338 348 340 345 342 345 353 351 347 345 345 346 344 329 324
335 332 333 335 329 338 326 317 322 328 334 330 333 334 324 324 316 314 317 318 316 318 318 321 327 327 330 338 329 343 348 338 341 338 347 346 344 340 346 349 348 340 338

GFSMA_sfc_thetae_006.txt.gz
Theta_e
364 363 364 362 362 362 357 360 361 358 357 356 356 355 351 351 351 351 355 362 361 363 361 362 360 360 359 357 357 357 357 355 355 354 354 355 356 357 356 355 355 356 357
363 362 359 360 363 357 363 360 361 358 357 356 354 354 353 354 354 355 354 357 361 361 362 362 362 362 361 359 358 359 359 360 360 358 358 356 356 358 357 356 357 357 357
367 365 361 359 358 363 364 362 359 357 355 354 354 350 354 354 352 354 353 355 354 361 362 361 363 365 364 360 359 362 361 360 359 360 359 358 356 356 356 357 357 357 357
367 363 360 357 359 361 357 359 357 353 354 352 353 354 353 353 352 353 354 352 354 354 360 362 362 363 365 362 361 360 362 361 361 360 360 360 360 359 358 358 358 358 358
366 364 359 360 361 356 355 353 352 354 349 348 349 351 352 352 348 347 350 351 351 352 355 358 359 360 362 362 363 362 361 361 361 361 361 360 359 359 359 359 359 358 359
365 363 360 359 358 356 354 353 351 351 351 350 349 347 348 350 350 346 345 349 350 350 351 355 356 355 361 363 363 362 362 362 361 361 361 360 359 358 358 358 359 359 359
364 363 361 359 358 354 355 355 354 350 347 351 345 343 346 348 349 350 349 346 347 349 350 352 356 354 356 360 360 361 363 364 363 362 361 359 358 357 357 357 357 358 358
359 362 363 356 354 351 352 352 353 347 346 347 341 338 333 338 344 346 348 346 346 348 347 349 352 354 354 356 357 361 361 362 365 364 362 360 358 357 356 356 355 356 356
355 359 358 357 355 354 346 348 349 345 341 347 345 338 331 328 335 343 346 347 346 345 347 348 350 351 355 355 359 360 360 359 363 365 364 361 359 358 358 357 356 355 355
354 354 355 355 355 351 349 349 347 346 346 340 344 346 342 339 332 329 340 344 347 345 348 348 347 350 351 354 357 360 360 358 360 362 364 363 361 360 359 358 357 355 355
354 351 355 354 351 349 348 347 347 346 344 342 341 341 341 338 340 335 329 334 340 348 346 346 344 346 350 352 352 354 358 357 356 357 359 361 362 363 362 361 359 358 358
348 352 349 351 351 348 347 345 347 346 344 343 342 341 338 334 334 332 330 333 335 339 346 344 344 345 346 350 355 355 357 355 354 354 355 356 359 361 364 364 363 362 362
346 348 351 352 347 348 347 346 344 343 343 341 340 339 339 339 339 337 334 331 331 335 340 345 343 343 343 346 346 350 355 351 351 350 350 352 354 357 360 362 363 364 365
346 351 349 349 348 348 347 347 343 343 344 342 340 340 340 339 341 338 334 331 326 328 333 336 342 345 346 343 344 347 343 345 347 345 346 347 348 351 354 356 357 358 360
343 345 347 347 347 347 346 346 342 341 343 341 340 339 335 334 335 335 337 334 328 321 323 331 336 342 344 344 344 341 337 345 344 343 342 342 344 346 348 350 351 351 352
350 348 346 345 345 345 346 344 342 340 339 339 338 337 338 334 332 333 330 332 331 327 321 329 334 340 341 347 346 345 348 346 344 341 340 339 341 342 344 345 345 346 346
351 348 347 344 343 342 344 342 342 340 336 339 338 336 336 334 329 328 327 326 324 323 323 328 334 339 341 341 344 349 350 349 350 339 339 338 337 339 341 341 341 342 343
350 348 346 344 341 341 342 339 339 338 337 335 336 335 334 330 329 327 324 322 322 322 322 325 331 335 338 340 340 342 346 347 347 344 337 337 336 335 336 336 336 336 337
346 346 345 342 341 341 341 340 339 338 338 337 336 333 333 331 327 325 324 321 321 320 320 320 327 334 337 339 340 343 342 343 345 340 336 335 335 334 333 331 331 330 330
346 345 345 344 341 341 340 339 338 337 335 336 336 333 332 330 327 324 322 321 319 317 318 318 320 327 334 336 338 336 339 345 344 349 346 343 338 336 334 330 330 330 326
346 346 344 343 343 340 335 339 338 337 336 334 335 333 331 332 329 327 323 322 319 316 316 316 317 320 325 332 333 334 336 339 343 345 344 347 346 344 340 333 337 334 328
346 346 342 341 341 337 329 333 334 336 335 333 331 332 331 331 330 328 326 325 322 317 315 315 316 315 318 327 334 334 334 335 333 343 343 343 349 346 347 345 338 336 329
346 344 342 341 340 339 326 327 331 333 332 331 332 331 329 330 329 327 326 324 323 321 321 319 317 318 319 323 331 334 333 333 333 340 343 339 346 345 350 348 336 332 330
345 342 340 341 339 337 324 323 327 331 332 332 332 331 328 328 329 327 324 322 322 319 320 321 321 321 322 326 327 335 336 335 339 343 345 335 343 343 348 349 335 333 329
342 341 341 339 337 338 323 319 322 330 330 329 333 331 330 327 325 320 320 320 317 318 322 321 320 320 321 323 325 331 332 330 331 335 343 338 341 341 343 344 341 331 327
341 336 335 338 333 339 319 318 323 322 323 326 330 331 323 321 315 312 316 317 316 317 317 319 319 323 321 321 322 325 331 331 329 332 340 337 340 338 335 341 339 331 327

GFSMA_sfc_thetae_009.txt.gz
Theta_e
350 349 350 348 350 351 348 350 350 349 350 351 349 348 345 343 342 351 349 360 360 361 362 361 360 360 358 357 356 355 357 355 353 353 353 354 356 356 356 355 355 356 357
354 351 349 349 352 349 353 350 349 349 348 349 349 348 347 347 345 346 351 354 360 361 363 361 361 361 361 358 359 359 359 357 356 355 357 357 358 357 357 356 356 357 357
352 351 348 349 349 351 351 351 351 351 349 349 347 348 348 347 346 345 348 352 355 361 361 361 363 363 364 361 359 360 360 361 360 359 358 358 357 358 358 357 357 357 358
351 351 348 348 350 350 348 347 347 345 345 345 344 345 346 346 347 346 349 350 350 351 358 360 360 362 364 363 363 362 361 361 361 359 360 360 359 358 357 357 357 357 358
356 351 350 351 351 348 346 346 346 343 342 343 343 342 343 345 347 350 347 348 349 351 350 357 359 358 362 364 364 363 361 362 361 360 359 360 360 359 359 358 357 357 358
354 349 348 348 348 347 345 345 342 343 343 342 347 344 343 344 345 344 345 347 348 348 352 351 353 353 358 362 364 364 363 361 362 361 360 359 360 359 359 358 358 358 358
353 350 348 348 345 345 344 345 343 341 338 341 336 334 337 341 342 343 344 344 344 345 348 348 351 351 351 359 359 360 364 364 362 361 361 359 358 358 357 357 356 357 358
353 353 348 342 341 341 338 336 338 335 337 339 332 330 324 329 336 340 341 343 342 344 343 347 349 351 350 352 353 359 361 362 364 362 361 359 358 357 356 355 354 355 356
344 343 342 340 341 340 337 338 337 336 332 336 336 330 323 320 328 331 335 340 343 340 342 346 347 349 350 351 355 357 359 358 361 364 363 361 359 357 357 356 354 354 354
339 339 339 341 339 338 337 337 340 335 334 331 334 336 330 330 324 323 331 334 337 340 344 346 344 344 343 346 355 357 358 357 357 360 361 363 360 359 358 357 356 355 354
338 342 342 339 338 336 336 336 335 334 334 332 330 330 330 331 328 325 323 326 332 336 340 342 343 340 337 342 343 351 355 355 356 357 358 360 363 362 361 360 359 358 357
333 340 339 335 336 336 335 334 335 334 332 331 331 330 328 325 325 324 322 324 326 329 334 339 340 339 339 339 347 348 348 343 350 353 353 356 359 363 365 365 363 361 360
333 334 334 335 332 333 334 334 332 332 332 330 328 328 329 328 329 327 324 323 323 326 327 334 339 342 344 340 339 341 340 343 342 347 349 351 354 357 360 363 363 363 363
331 334 333 335 334 335 335 334 331 330 332 330 329 328 328 327 327 327 324 322 320 319 322 323 330 338 341 341 341 344 343 343 342 340 342 345 348 351 353 355 357 358 359
333 334 334 333 334 335 335 332 331 330 329 329 329 329 326 327 324 325 323 322 320 312 313 318 321 329 336 342 345 344 343 342 341 339 339 341 343 346 348 350 350 351 351
334 333 334 334 333 333 333 332 329 330 328 328 329 327 327 325 323 322 320 319 318 317 313 318 320 324 330 336 344 344 342 341 339 338 337 337 339 342 344 345 346 347 347
335 334 334 333 332 332 333 332 330 330 329 328 328 327 326 324 321 320 319 317 315 315 313 316 319 323 329 332 336 344 343 342 342 339 338 336 336 338 340 341 342 343 344
334 334 333 333 333 332 331 330 328 330 328 327 327 325 326 326 321 319 317 316 314 315 315 311 316 319 323 328 334 336 339 343 346 344 339 335 333 334 336 337 337 338 338
332 331 333 331 331 331 330 331 329 329 327 327 327 326 324 323 319 319 318 316 315 317 315 313 313 318 321 325 328 335 337 337 341 344 335 335 334 332 332 330 331 331 331
332 333 333 332 331 331 331 332 331 327 328 327 328 327 324 323 321 320 318 316 316 313 313 312 313 315 318 321 324 326 330 336 337 342 340 338 336 335 333 330 330 330 327
334 333 332 331 331 333 333 326 329 331 330 326 327 326 326 326 330 325 321 319 316 317 313 312 312 314 315 316 317 321 324 332 335 339 338 336 336 340 338 333 335 334 329
333 333 331 330 330 333 328 328 328 324 326 324 323 324 324 329 326 328 328 328 325 318 313 313 314 313 315 316 319 318 320 325 326 338 339 337 342 340 341 338 336 333 328
331 329 330 330 328 329 327 327 328 323 322 323 323 322 323 327 326 323 323 325 325 325 324 319 315 316 316 318 318 317 318 322 327 333 337 333 338 338 342 344 334 330 327
329 329 329 328 329 329 324 323 325 321 323 324 324 323 322 322 322 321 318 316 317 318 319 319 319 318 319 320 319 319 319 321 329 333 336 329 335 337 342 346 334 331 327
330 331 330 328 327 326 319 319 320 319 320 319 322 323 322 320 318 316 313 312 314 317 320 320 319 319 320 320 321 319 318 319 320 328 334 333 333 335 338 341 342 331 326
329 328 324 328 325 321 319 318 318 317 313 317 320 321 321 316 312 311 311 313 315 314 314 316 317 318 320 321 322 321 318 320 322 324 331 332 332 332 327 336 339 336 329

GFSMA_sfc_thetae_012.txt.gz
Theta_e
348 347 348 347 346 348 345 347 348 347 346 346 349 348 346 344 343 348 349 358 359 360 362 361 360 358 357 355 354 354 355 354 352 352 354 353 353 352 352 352 352 354 354
352 346 347 345 348 348 349 349 347 346 346 347 348 348 348 347 345 347 349 352 360 359 361 362 363 361 359 357 356 355 356 358 356 354 355 355 356 357 354 354 355 355 356
350 351 345 345 345 347 348 348 347 346 345 346 345 346 347 348 347 347 348 349 353 360 360 359 362 362 364 359 358 360 360 359 358 357 357 357 358 358 358 358 357 356 357
350 349 344 345 347 347 347 343 343 343 342 342 341 342 342 344 346 345 344 351 351 351 356 358 359 363 363 363 362 361 360 360 360 359 358 358 358 357 358 358 357 357 357
355 349 346 347 347 343 342 343 342 341 339 340 341 342 342 342 344 347 346 344 348 349 349 355 356 358 361 361 363 364 362 360 359 360 360 359 359 359 358 356 356 356 356
351 350 349 345 345 343 342 341 339 339 340 339 342 341 339 340 340 341 343 346 346 349 350 348 351 354 357 359 360 364 364 362 361 361 360 358 358 358 358 357 357 357 357
351 347 344 345 344 341 339 337 338 337 336 337 332 331 333 336 336 337 340 342 343 344 344 349 348 350 351 356 357 357 362 364 362 361 361 359 358 357 358 357 356 357 357
350 350 345 341 339 337 334 334 333 331 333 335 330 326 322 326 331 334 335 338 340 342 344 345 345 348 348 349 351 357 357 358 363 362 360 360 358 357 357 356 355 355 355
345 340 339 337 337 335 333 334 334 331 328 331 332 328 322 317 324 328 331 334 335 338 340 343 346 344 342 341 344 347 353 354 359 363 362 359 358 357 357 356 355 354 353
337 336 337 338 336 335 333 333 335 332 330 326 329 333 329 328 320 319 326 329 331 332 335 339 345 345 342 341 345 346 346 348 355 357 360 361 359 358 358 357 356 355 354
335 339 339 336 333 332 331 332 330 330 330 328 327 327 326 326 325 321 317 322 326 329 332 335 338 341 342 338 337 340 343 346 349 349 354 356 360 361 362 361 359 357 356
335 336 335 332 333 332 331 330 331 329 328 328 327 326 325 322 321 320 318 318 320 324 327 330 333 337 338 334 339 343 344 347 348 346 344 346 354 357 362 364 363 361 360
330 331 331 332 329 330 330 330 329 327 328 327 326 324 325 324 325 323 320 317 317 320 322 325 329 332 337 340 342 345 347 345 345 342 341 342 345 351 356 358 362 363 363
330 331 331 331 331 332 332 331 329 328 329 328 326 326 324 323 323 322 320 315 311 312 313 315 320 323 326 327 333 342 342 340 340 339 338 339 341 344 349 352 354 357 358
331 331 332 331 331 333 332 330 328 328 327 326 327 327 324 324 321 321 318 317 313 305 306 311 312 318 321 323 328 332 339 342 339 338 337 337 337 341 344 347 348 349 350
330 330 331 330 331 330 329 329 328 327 327 325 326 326 324 324 321 320 318 316 314 311 308 311 312 316 318 321 325 329 335 341 341 339 337 336 335 337 340 342 344 344 346
331 332 332 331 330 329 330 329 328 328 326 325 326 325 324 323 319 319 318 315 313 313 309 311 312 315 316 317 320 324 329 335 340 337 337 335 334 335 337 338 339 341 343
331 331 330 330 330 330 329 327 327 327 326 325 325 324 324 326 320 319 317 315 314 313 313 313 315 314 314 317 319 320 325 331 337 340 336 335 333 332 333 334 335 336 338
329 329 328 327 328 328 327 327 327 327 326 326 326 323 323 322 320 318 317 316 315 316 314 315 314 315 315 316 316 319 321 325 333 338 334 334 333 333 331 330 330 329 329
328 328 328 329 330 329 328 328 328 327 326 328 325 324 324 322 321 319 318 318 316 313 315 315 314 315 314 315 316 315 316 320 322 330 338 337 337 336 332 328 328 329 325
329 329 329 329 329 329 331 329 326 326 325 324 324 324 324 326 328 324 321 319 316 315 317 317 315 315 313 313 313 316 316 318 319 323 328 336 338 338 340 332 333 332 327
329 329 329 329 326 329 329 327 325 321 322 322 321 322 322 327 327 328 328 327 324 317 316 316 316 314 314 315 316 315 316 314 312 322 326 332 336 335 336 337 335 331 327
328 328 329 327 327 326 325 325 328 322 320 319 319 320 321 324 326 322 323 324 323 323 323 318 315 315 314 316 317 316 315 315 314 318 321 323 335 335 337 338 332 329 326
330 328 326 328 326 326 324 322 325 320 319 319 320 320 319 320 320 319 315 313 313 314 315 317 317 317 317 317 317 317 316 317 318 318 320 317 330 333 337 341 333 329 325
327 326 327 327 324 325 320 319 320 318 316 315 316 318 318 317 318 317 312 311 310 312 319 319 318 318 318 319 319 318 315 314 312 314 318 320 327 330 333 337 341 329 325
329 327 324 325 324 324 318 316 316 316 312 312 316 316 317 314 312 311 309 308 310 313 312 313 314 316 318 318 320 319 319 314 313 312 318 323 327 329 326 333 338 337 329

GFSMA_sfc_thetae_015.txt.gz
Theta_e
348 346 346 346 345 347 344 346 345 346 345 346 347 347 347 346 345 344 347 356 359 359 361 361 359 358 355 355 354 357 354 353 352 353 353 351 351 352 350 350 351 352 353
350 345 344 345 345 346 347 346 345 345 346 346 346 346 346 346 349 346 347 348 360 357 359 362 360 359 357 356 355 354 355 356 354 352 354 355 355 355 352 352 352 353 356
349 347 347 343 343 345 345 346 344 343 343 344 342 344 344 345 344 346 346 348 348 356 357 357 358 358 361 357 356 356 357 357 358 357 355 356 356 356 356 356 356 357 357
348 347 343 342 345 343 345 342 342 341 341 340 339 340 341 342 343 345 346 344 347 349 352 357 356 357 359 360 360 360 359 358 358 358 357 356 357 357 358 357 356 357 357
350 350 344 344 345 343 342 342 341 339 337 337 339 340 340 339 340 343 342 344 344 349 348 353 355 355 356 357 359 362 362 359 359 359 359 358 357 357 357 356 357 357 356
350 346 346 347 344 341 339 337 336 337 336 336 339 337 335 336 336 337 339 343 343 345 347 347 348 349 356 358 357 359 363 361 360 359 359 359 358 358 357 357 356 356 355
349 346 343 342 342 337 334 334 334 333 332 334 329 329 330 331 332 334 336 338 339 343 343 345 346 348 348 355 356 354 357 361 362 361 359 357 357 357 357 356 356 356 356
348 345 343 340 338 335 332 332 331 329 330 332 327 322 319 324 327 330 331 335 333 338 340 343 343 346 347 346 348 354 355 355 357 360 361 358 358 357 356 355 355 356 356
350 348 340 336 335 332 332 331 330 328 325 329 329 325 316 314 320 326 329 330 329 330 333 337 344 344 343 343 345 346 349 350 353 356 358 358 356 357 357 356 355 355 355
336 337 336 336 333 332 331 331 332 329 327 323 327 331 327 326 317 316 323 325 327 328 328 332 333 338 342 341 344 347 349 349 348 348 356 356 356 358 359 358 356 355 355
332 335 337 334 332 330 330 329 328 327 328 326 325 324 323 323 322 318 315 318 322 325 327 327 329 333 335 338 338 339 343 345 346 347 351 356 357 358 359 359 359 357 357
331 336 335 331 330 329 329 328 328 327 327 326 325 324 322 319 318 318 316 315 316 320 322 325 325 326 330 328 330 335 339 345 346 346 348 349 351 357 359 360 360 360 360
328 330 329 330 328 327 328 328 327 325 326 325 323 323 323 323 322 321 318 315 313 315 318 317 322 320 325 321 324 331 333 336 340 342 343 345 346 348 352 356 358 360 360
329 329 329 330 328 329 330 329 327 326 326 326 324 324 323 322 322 320 318 313 306 308 310 310 316 316 318 318 323 329 325 332 335 338 339 340 341 342 344 346 351 354 356
330 330 330 330 329 329 330 328 326 326 326 325 325 325 322 322 320 320 317 315 308 301 303 308 311 314 314 316 320 322 322 327 330 333 337 337 337 339 340 341 344 346 348
329 329 329 328 328 329 328 326 325 326 325 324 325 324 323 322 320 319 317 315 312 307 304 309 310 312 314 317 320 320 320 327 328 330 333 335 336 337 338 338 340 342 343
327 328 329 328 329 328 327 326 326 326 325 323 323 324 324 323 320 318 317 315 312 311 308 309 311 313 313 314 316 317 320 321 324 328 331 334 335 335 336 336 337 338 340
328 329 330 329 328 328 328 326 325 326 325 324 324 323 324 325 321 318 316 315 313 312 310 308 311 314 312 316 316 315 317 321 322 325 327 329 332 333 332 332 332 333 335
328 330 328 327 327 327 326 326 325 325 325 324 324 323 323 321 319 318 317 316 315 316 313 314 315 319 318 316 315 316 316 317 320 325 324 325 328 331 331 329 327 327 327
327 327 326 326 326 327 327 327 326 325 325 325 324 323 323 321 320 319 318 318 317 315 313 314 316 316 316 317 314 313 313 316 316 320 323 323 325 327 332 329 328 327 324
329 327 327 327 328 329 330 326 326 326 323 323 323 323 322 325 329 325 320 319 316 315 314 316 315 315 314 313 311 314 313 314 316 318 318 318 319 322 333 333 335 333 327
329 328 327 327 327 329 327 328 329 321 321 320 319 320 320 325 325 328 329 328 323 316 315 315 316 314 313 313 314 312 312 312 310 318 316 316 323 323 331 337 336 331 327
328 328 327 328 327 326 324 324 328 323 321 318 317 317 318 322 324 321 323 324 323 324 324 317 313 313 312 314 313 312 313 312 312 316 317 314 317 317 323 336 331 328 325
328 328 327 326 326 327 322 322 325 323 319 318 317 317 316 315 317 318 316 313 312 312 313 314 314 315 315 316 314 315 314 314 315 317 318 312 317 316 322 330 331 328 325
328 328 326 324 325 326 320 318 319 319 317 315 314 314 316 315 317 320 311 309 309 309 316 318 318 317 317 318 319 317 313 312 310 313 318 315 315 315 320 327 336 329 324
328 327 324 324 324 326 320 316 316 316 313 312 313 314 315 313 313 311 307 305 308 308 311 312 312 314 316 316 319 317 315 311 311 310 317 314 314 315 316 330 334 337 331

GFSMA_sfc_thetae_018.txt.gz
Theta_e
350 350 347 350 350 351 348 351 351 351 349 350 351 351 350 351 351 350 349 354 359 358 358 359 359 358 355 353 352 353 355 353 352 352 354 351 351 351 351 351 351 352 353
351 349 348 349 347 352 351 351 350 350 350 349 349 348 349 349 350 350 349 351 355 359 358 357 358 359 358 355 354 355 355 355 353 353 354 355 354 354 352 351 351 352 354
350 352 348 348 348 349 349 349 348 347 347 347 346 346 347 348 347 349 351 351 352 353 356 357 359 359 357 357 356 355 356 357 357 356 356 355 355 355 355 355 355 356 355
352 350 349 347 348 348 348 348 347 347 345 344 343 344 344 345 346 346 349 348 349 350 353 356 357 357 357 356 357 358 358 357 357 357 357 357 356 356 356 357 355 355 355
353 351 350 346 349 348 347 347 346 345 342 342 343 343 342 341 342 343 343 346 347 350 351 352 355 358 357 357 359 358 357 358 358 357 357 358 357 357 357 357 357 357 356
354 350 349 349 350 345 343 342 341 341 341 341 339 337 337 339 340 340 341 344 345 347 349 350 352 353 354 358 356 358 359 356 357 358 358 358 357 357 356 356 356 356 356
352 349 349 346 345 341 340 339 338 338 337 338 335 334 334 335 336 336 339 340 338 343 345 348 350 351 351 352 355 357 359 359 359 359 357 356 356 357 357 356 356 356 356
351 347 345 345 342 338 338 338 337 334 335 337 332 327 325 328 332 334 336 336 334 338 339 342 346 348 350 351 351 352 355 357 359 359 358 355 355 355 356 356 355 355 355
350 349 346 342 340 337 336 337 336 334 331 334 334 331 323 321 326 331 334 335 333 335 336 337 338 343 346 346 346 347 348 349 351 354 356 356 354 354 356 356 355 355 355
344 345 341 340 337 336 336 336 336 335 333 330 333 335 333 331 324 322 328 330 331 331 333 334 335 337 338 337 337 341 343 344 346 347 348 352 356 355 355 357 357 355 355
337 339 339 337 336 336 335 336 334 334 334 332 331 331 330 329 329 324 318 324 326 330 332 332 332 333 332 330 331 333 336 336 338 342 347 347 349 354 357 357 358 358 357
335 338 339 338 335 334 335 334 334 333 333 332 332 331 329 326 325 325 322 322 322 325 328 329 329 329 327 326 327 330 332 332 333 335 339 343 346 350 353 357 358 359 360
333 335 336 333 333 334 334 333 333 332 332 332 330 329 330 330 329 328 325 322 321 320 324 325 330 327 326 324 325 329 329 328 330 332 334 337 342 346 348 349 353 358 359
333 334 333 334 332 332 333 334 333 332 332 332 331 330 331 330 329 328 326 322 314 314 316 319 321 326 325 323 326 328 326 326 327 329 330 332 336 341 344 346 347 350 354
333 333 333 334 333 333 334 334 332 332 332 331 331 330 329 328 328 327 326 323 317 311 310 315 317 322 322 322 324 326 326 325 327 328 328 330 332 335 339 341 342 342 343
332 333 332 333 334 333 334 332 331 332 331 330 330 330 329 329 328 326 323 322 319 316 312 315 318 320 322 323 325 326 324 325 324 325 327 328 329 331 335 337 338 338 339
331 332 333 332 332 332 333 331 331 331 330 330 330 328 329 329 328 326 324 322 320 318 314 318 317 321 321 323 323 324 323 323 323 325 326 326 326 328 330 333 335 336 337
331 332 332 332 332 333 333 331 331 331 330 329 330 329 329 329 328 328 324 324 322 320 317 317 321 319 321 324 323 321 322 322 323 324 324 325 325 325 325 327 330 332 333
330 332 332 332 332 332 332 332 330 330 330 329 329 329 329 328 327 326 324 324 323 322 319 318 318 322 322 324 322 323 323 323 323 324 323 323 324 324 324 323 323 326 326
330 330 332 332 330 331 330 331 331 330 330 330 330 329 328 328 327 327 325 324 324 322 321 318 318 319 320 324 321 319 318 321 320 321 323 323 324 324 324 323 323 324 323
330 330 331 330 330 329 330 332 332 331 330 330 329 329 328 328 328 328 327 327 323 322 321 318 318 318 317 320 318 320 317 318 319 320 319 321 322 323 324 324 327 329 327
330 330 330 330 330 331 328 328 332 331 330 327 327 327 326 326 326 326 327 328 327 324 321 320 319 317 318 320 320 318 316 314 312 320 319 318 322 319 322 325 325 326 328
330 330 330 330 331 331 325 325 328 332 328 327 326 325 324 325 325 324 323 323 324 324 325 324 318 319 318 319 319 317 316 315 314 317 317 313 318 317 322 323 322 322 324
330 329 330 330 331 332 323 321 324 330 329 327 324 323 323 321 322 322 321 321 320 319 319 318 317 318 319 320 319 318 314 314 316 317 318 311 317 315 318 323 322 322 322
331 330 331 331 330 331 320 320 323 327 325 324 321 320 320 322 318 318 319 317 315 315 316 316 317 317 316 317 318 316 315 312 309 311 316 313 314 315 317 320 324 322 320
332 331 327 328 325 328 320 318 321 324 321 319 319 320 316 316 312 311 314 312 311 313 313 313 315 316 316 317 317 318 315 311 310 309 315 313 313 314 312 318 322 325 332

GFSMA_sfc_thetae_021.txt.gz
Theta_e
357 356 360 361 361 360 359 362 360 358 357 356 357 356 353 355 356 356 356 352 357 360 358 357 357 358 356 354 353 356 355 354 352 354 352 352 351 349 352 352 351 351 351
358 357 359 359 365 359 359 361 360 360 357 356 354 355 354 353 353 354 355 358 353 357 360 358 359 358 357 357 354 353 354 357 355 353 353 356 355 353 351 352 352 351 352
360 360 363 361 359 359 360 358 360 356 356 354 353 351 350 349 348 350 350 353 356 354 355 358 358 360 357 356 357 357 358 357 357 357 356 356 357 356 356 355 354 354 355
364 363 359 365 358 359 356 358 356 353 352 350 350 348 348 347 347 348 349 350 350 351 354 355 358 359 359 355 358 357 357 357 357 358 357 357 357 356 356 356 357 356 355
363 362 366 365 357 357 362 356 355 352 348 346 344 343 345 345 346 346 348 351 351 351 352 357 355 356 357 357 359 358 357 357 357 358 357 358 358 357 356 356 357 357 356
363 364 363 360 358 356 353 352 350 349 346 345 341 340 343 347 345 347 348 344 349 350 353 356 356 356 352 355 358 357 358 358 358 358 358 357 357 358 357 356 356 356 357
362 362 357 356 356 352 352 352 348 345 343 347 340 337 342 345 342 344 345 340 341 342 347 351 354 356 357 352 352 354 356 356 356 357 358 357 356 357 356 356 355 356 356
363 361 359 355 355 349 350 350 348 340 343 347 337 337 330 336 342 342 341 336 337 339 339 341 346 350 353 354 352 349 349 352 354 356 357 355 354 355 356 356 355 355 356
362 360 357 355 354 351 344 348 346 343 336 343 343 337 329 326 331 341 341 337 336 334 337 338 340 339 338 339 342 344 344 345 347 349 350 351 355 355 355 355 356 355 355
360 359 356 355 354 347 347 346 346 345 343 336 342 343 342 339 329 327 334 335 334 331 335 331 332 332 332 331 333 334 336 338 339 341 345 349 349 352 355 356 355 355 355
358 357 356 352 350 345 348 346 344 344 343 341 340 339 340 339 337 330 322 326 332 331 332 333 331 330 331 331 331 333 333 332 333 335 336 340 344 348 350 351 356 357 357
346 350 349 349 350 347 345 344 344 344 343 344 341 338 334 331 330 330 327 328 326 330 329 334 334 332 330 329 328 330 331 330 330 331 332 334 336 342 347 350 352 356 358
341 345 349 349 347 347 346 345 344 343 342 340 342 337 337 336 337 333 330 327 326 328 328 329 330 332 332 331 330 329 330 328 328 329 329 330 332 335 340 344 347 351 353
341 347 348 348 347 345 344 344 342 342 343 341 341 340 337 337 337 335 332 328 323 323 324 326 329 329 331 331 331 330 331 330 328 328 329 329 329 331 332 336 341 344 347
342 345 347 346 344 342 343 345 341 342 342 342 341 341 339 337 337 336 335 333 327 319 319 325 323 331 330 331 332 334 334 332 329 329 328 328 328 330 330 331 335 339 342
344 345 345 344 343 343 344 344 341 342 341 340 339 340 340 337 337 337 335 334 331 326 320 324 326 330 333 332 333 334 334 329 330 328 327 327 328 329 329 330 332 334 337
341 344 343 343 343 343 343 343 342 341 340 341 341 340 340 341 337 336 337 335 332 330 324 325 328 331 332 332 333 335 334 333 330 329 328 327 326 327 328 328 329 329 332
339 340 341 342 342 343 343 342 340 338 339 338 338 339 339 337 339 342 339 338 334 334 328 325 330 330 332 334 334 333 332 331 331 329 327 326 325 325 324 325 325 325 326
336 337 339 340 340 341 341 342 341 339 338 337 338 339 338 339 337 339 338 335 333 333 331 325 325 329 330 331 329 331 331 332 331 329 325 324 324 324 324 323 322 321 321
334 335 337 338 340 341 341 340 339 339 339 339 339 340 339 337 337 338 337 337 336 333 332 324 325 325 327 330 328 325 324 327 326 328 327 325 325 325 324 323 322 322 320
334 337 335 337 339 339 338 339 339 340 341 339 340 340 339 337 334 332 332 333 334 330 327 326 325 325 324 324 323 325 323 324 326 327 324 325 325 325 324 325 326 326 323
335 337 335 335 337 337 329 329 336 340 341 339 337 339 339 333 332 329 328 328 330 330 329 327 324 323 323 325 324 323 322 319 317 326 325 322 325 324 325 325 325 324 322
337 336 336 337 338 338 327 327 331 339 340 340 339 339 336 333 330 331 327 325 325 325 326 327 323 323 324 325 325 321 320 319 319 323 322 320 323 322 325 326 323 322 321
336 337 338 339 339 340 325 323 327 338 339 339 340 339 336 334 331 328 327 327 328 328 329 326 326 325 325 324 323 320 318 319 322 322 325 318 321 317 319 321 322 321 320
338 337 339 339 339 341 320 320 323 331 330 330 336 334 331 329 324 318 324 325 325 325 323 318 317 317 317 317 318 316 314 317 316 317 322 317 314 314 316 317 321 321 319
339 337 338 339 333 339 319 317 322 325 325 326 327 326 319 324 315 314 323 324 321 322 321 321 321 321 321 322 320 321 318 315 317 313 319 312 312 313 311 318 321 324 325

GFSMA_sfc_thetae_024.txt.gz
Theta_e
359 360 362 358 359 357 358 360 358 357 358 357 357 357 356 356 356 355 355 357 357 360 358 359 359 358 357 355 355 358 355 353 351 352 352 354 353 351 352 351 352 352 351
359 365 357 357 358 357 360 360 358 357 357 356 355 355 356 356 355 356 354 358 356 358 360 359 359 359 358 358 355 354 357 357 356 353 355 355 355 353 351 352 353 352 352
362 367 356 355 355 361 363 363 358 357 355 353 352 352 353 353 349 350 349 349 355 357 358 360 362 359 361 357 358 358 356 357 359 358 357 357 356 356 356 355 355 355 355
367 366 369 354 356 360 358 357 357 349 345 344 344 345 346 345 343 345 345 347 344 347 356 359 358 357 357 357 357 358 358 358 358 360 358 358 358 358 358 357 357 357 356
362 360 357 357 362 358 356 355 349 349 342 340 337 337 341 342 343 344 348 350 349 348 346 357 356 355 356 357 358 360 360 358 357 359 360 359 358 358 357 356 356 357 357
362 361 357 358 359 359 357 353 352 346 341 341 338 337 342 345 348 350 347 349 350 351 351 356 354 353 355 353 358 358 357 357 358 357 358 358 357 358 357 356 356 357 357
363 363 356 357 358 356 355 357 348 341 337 343 338 338 341 343 346 348 349 346 344 349 350 352 354 352 355 354 353 354 354 356 359 359 358 356 356 356 357 357 356 357 357
364 360 361 358 360 353 357 354 347 336 340 345 336 334 331 335 340 345 347 342 340 345 346 346 351 354 356 357 353 348 347 350 353 353 356 356 356 355 355 356 356 356 356
364 364 361 359 359 355 346 348 346 343 334 341 343 336 329 327 332 339 342 338 339 336 338 341 341 340 342 343 346 345 340 342 345 347 348 349 350 350 355 355 355 356 355
362 362 363 361 361 351 348 345 346 343 343 335 341 344 342 340 330 329 334 336 337 335 336 334 333 335 336 335 336 335 335 334 336 337 339 341 344 348 350 354 355 355 355
363 359 363 360 357 345 349 350 348 346 341 338 340 340 342 339 341 329 325 330 334 335 335 337 335 336 335 335 335 333 331 331 332 332 334 335 337 340 345 350 352 354 356
356 361 360 358 353 347 350 347 348 345 344 344 340 341 335 332 332 330 328 330 330 333 334 334 334 336 336 336 331 329 329 329 330 330 331 332 334 335 338 343 347 351 353
346 353 356 354 350 353 351 348 347 345 344 341 343 337 339 336 337 333 330 327 327 330 330 332 334 333 335 334 335 330 334 330 329 329 329 329 331 332 334 335 339 344 349
345 353 351 352 352 352 350 348 343 343 344 342 343 342 337 336 336 334 331 328 324 324 328 331 334 332 332 333 335 333 336 332 331 330 330 329 329 330 332 332 333 335 340
347 350 351 350 351 350 348 348 342 344 344 343 342 343 340 336 336 335 334 332 328 322 323 329 328 335 334 334 336 336 337 337 331 331 330 329 329 329 330 330 331 332 332
350 349 349 349 349 348 347 349 343 344 344 339 339 341 342 338 337 337 336 334 333 329 324 328 328 333 336 335 338 338 338 336 334 332 330 329 329 329 329 330 331 331 332
350 349 349 347 347 345 347 347 346 342 342 343 342 341 341 344 338 336 336 336 334 332 326 328 330 335 338 339 338 339 338 338 336 333 331 330 328 328 328 328 328 329 329
348 347 345 345 345 346 347 345 343 340 340 340 340 341 340 338 341 342 335 338 335 336 330 332 334 332 338 338 338 338 336 335 334 333 331 329 327 326 326 325 325 325 325
346 341 344 343 344 345 346 346 344 341 341 340 341 340 340 340 339 337 337 334 333 335 333 330 329 331 332 333 335 336 335 338 332 332 328 327 327 326 324 323 322 321 321
345 343 339 344 345 345 344 343 343 343 342 341 342 342 341 340 339 339 338 337 337 334 334 329 328 329 329 332 332 328 327 329 328 330 331 328 328 328 326 323 323 323 320
344 343 341 342 344 342 340 343 343 341 341 342 342 342 342 341 338 336 334 337 338 332 329 326 324 326 326 329 330 328 325 326 329 330 327 326 327 328 329 327 328 327 323
346 345 343 342 343 339 330 332 340 341 341 342 341 342 342 339 336 331 330 330 331 331 329 326 325 327 329 328 327 325 324 322 320 328 327 324 328 327 328 328 326 325 323
341 345 343 343 342 343 327 328 332 340 340 343 343 344 340 337 336 338 332 328 327 326 326 329 327 327 327 328 328 326 324 322 321 324 327 322 327 324 327 328 324 323 321
343 342 343 344 344 341 326 325 329 339 342 342 335 334 333 333 339 336 333 333 332 333 333 331 331 330 329 329 326 324 323 322 323 324 329 320 324 323 326 328 324 322 320
342 342 342 343 344 344 323 322 328 339 338 332 332 332 332 331 328 323 330 329 330 330 327 322 320 318 318 319 320 321 319 317 318 321 325 321 321 322 325 324 324 321 318
340 340 341 345 336 344 318 318 328 338 334 331 330 330 323 322 322 317 327 328 326 327 328 327 326 324 322 325 322 324 320 319 320 318 323 319 319 318 311 316 321 324 324

GFSMA_sfc_thetae_027.txt.gz
Theta_e
362 363 363 357 357 357 359 356 359 361 356 357 356 357 354 360 355 354 357 360 360 360 359 360 360 360 358 355 356 357 355 352 351 352 351 353 353 354 352 350 350 353 353
365 361 357 355 359 357 359 360 359 358 356 359 356 353 356 356 356 354 353 358 361 362 361 360 360 359 359 358 356 357 357 356 353 351 352 354 355 354 352 351 353 353 353
364 363 359 357 358 364 364 361 362 363 357 355 355 354 352 353 349 347 347 344 355 362 362 360 363 362 359 358 358 358 358 358 357 357 356 358 357 356 356 355 354 354 355
366 363 357 356 359 363 361 359 357 357 347 344 343 341 342 343 342 342 342 344 343 343 360 361 361 361 359 356 357 357 356 358 358 358 357 358 358 357 358 357 357 356 356
365 363 357 363 365 359 356 359 354 352 344 338 336 336 340 340 341 342 344 348 347 345 343 359 359 360 356 357 358 357 358 358 357 357 359 359 358 358 357 358 358 357 356
362 367 360 360 360 355 358 353 353 347 341 341 338 336 339 341 343 344 344 344 348 347 349 353 354 355 359 356 359 358 358 359 358 357 357 357 357 358 357 357 357 356 356
364 367 359 358 358 356 355 354 348 347 337 344 338 338 337 341 342 342 345 341 344 346 348 350 353 353 355 354 355 355 354 354 356 358 357 355 357 357 357 357 356 357 356
368 361 364 361 359 352 355 351 348 339 335 344 335 333 330 335 339 340 341 339 339 341 343 347 351 352 354 354 353 348 347 348 350 353 354 353 355 356 356 355 355 355 356
359 364 363 360 361 353 348 350 345 343 334 338 343 335 329 328 332 340 342 338 339 337 338 342 340 341 344 345 350 343 340 340 342 344 346 347 349 350 350 353 355 355 355
356 362 360 358 359 353 352 346 344 343 342 335 338 341 341 339 330 329 337 336 337 335 336 335 335 337 337 337 339 335 334 334 335 336 337 338 340 344 347 351 354 355 354
358 354 357 361 357 349 352 347 346 346 341 337 337 336 341 336 338 329 325 331 334 334 334 334 334 334 336 335 337 333 331 331 331 332 333 334 336 336 339 343 348 352 355
353 357 356 359 362 352 348 347 348 345 344 344 341 338 333 331 331 330 328 331 330 332 334 334 334 335 333 334 332 334 333 331 330 330 330 331 333 334 336 336 340 345 349
346 361 362 361 355 357 350 350 349 346 345 342 344 337 336 335 335 332 330 328 326 330 331 333 333 334 334 335 335 332 335 335 332 331 330 331 331 332 333 334 335 336 338
347 362 358 357 353 355 354 352 344 343 347 343 343 343 337 335 335 334 331 328 324 326 328 333 335 335 335 334 337 336 336 338 336 332 330 331 331 331 332 332 332 333 334
348 356 355 354 354 351 350 350 343 345 345 345 344 345 340 337 336 336 335 332 328 321 323 335 333 342 335 335 339 337 338 340 337 332 331 331 331 331 330 331 332 332 332
358 357 354 353 353 350 352 352 348 349 347 342 339 345 343 339 339 336 338 339 339 332 324 331 331 338 340 336 339 339 338 339 336 334 333 331 331 331 331 331 332 332 332
362 357 356 354 353 348 351 351 350 346 345 346 344 343 345 347 337 336 339 342 339 336 327 331 333 338 344 344 341 343 340 341 337 335 334 332 330 330 331 330 330 330 330
362 357 356 353 351 350 350 348 345 343 342 342 343 345 341 337 345 347 337 343 336 340 330 334 335 333 340 344 343 344 339 334 336 334 334 331 329 328 327 327 327 326 326
359 354 355 352 349 348 348 349 347 346 344 342 341 341 340 341 344 340 340 339 333 337 338 332 330 332 335 335 336 341 338 337 337 334 329 329 328 327 326 325 323 322 321
356 353 353 352 348 348 346 346 345 344 343 342 342 344 341 341 343 346 343 345 342 335 335 330 331 331 332 337 334 333 329 332 331 331 332 328 330 329 327 325 324 323 319
353 353 352 346 346 342 342 347 346 343 344 342 343 342 345 343 339 337 337 340 343 334 329 327 327 327 325 332 329 329 327 329 331 330 330 331 331 330 330 328 329 328 324
353 351 348 343 343 343 333 334 343 342 345 344 344 345 345 340 339 333 332 331 332 334 333 327 327 325 330 329 328 326 325 322 319 329 328 325 328 328 331 332 329 326 323
352 350 347 346 345 347 327 329 333 343 343 345 344 345 341 341 336 335 332 331 329 328 327 332 330 330 331 333 333 330 329 325 322 324 325 322 327 327 331 330 326 325 322
351 347 347 348 347 347 325 325 331 342 344 345 346 345 342 338 336 333 331 331 331 333 337 333 335 333 335 333 329 327 328 326 325 324 328 321 326 326 329 329 326 324 321
349 348 347 348 346 346 324 323 329 340 340 344 345 340 339 335 329 326 326 325 327 333 331 326 324 322 321 321 322 322 319 318 317 320 325 324 324 322 325 325 328 324 319
349 345 344 347 337 344 324 320 328 347 344 338 344 341 326 332 321 319 328 329 327 330 331 332 330 326 323 326 322 325 324 319 320 318 323 321 319 319 317 323 323 323 323

GFSMA_sfc_thetae_033.txt.gz
Theta_e
349 352 351 353 350 354 351 345 349 350 350 351 349 349 346 347 347 350 348 359 360 360 361 362 361 357 358 357 356 355 352 353 354 355 355 354 352 352 353 352 352 352 352
350 352 352 353 350 350 352 352 350 349 352 350 351 350 347 348 349 351 350 353 359 359 360 360 362 361 359 358 357 359 357 354 352 353 355 356 356 355 354 353 352 351 354
351 351 350 350 352 352 354 350 350 349 349 348 340 349 348 345 347 350 351 351 354 361 361 363 362 362 362 360 358 359 360 360 357 355 355 355 355 356 354 356 355 355 356
355 352 351 350 354 352 347 348 347 342 341 334 329 331 336 333 335 334 335 337 347 351 359 360 358 360 361 360 357 360 359 359 359 358 357 355 356 358 357 357 357 355 356
358 354 353 351 355 352 352 348 346 341 331 329 332 331 332 332 334 339 337 338 341 347 349 356 355 358 357 357 357 357 357 359 358 359 358 358 358 358 358 357 356 356 357
359 353 354 353 351 350 346 344 341 342 334 332 335 332 332 333 332 337 337 341 341 344 346 351 347 349 357 358 359 358 357 358 359 357 356 357 358 357 357 356 357 357 356
355 353 353 353 353 349 345 346 337 330 330 335 328 328 333 332 331 338 334 332 335 342 347 346 346 349 351 353 355 354 354 355 356 357 358 357 356 356 356 356 356 357 356
355 354 352 350 348 346 346 339 333 331 330 334 325 324 323 329 333 335 330 330 330 339 340 339 339 345 346 345 346 350 351 352 352 351 353 353 355 355 354 353 354 355 356
357 355 356 350 349 347 343 338 336 331 326 331 329 327 322 319 328 335 331 328 329 330 333 331 331 334 345 340 339 337 341 342 343 343 344 344 346 348 350 351 352 352 353
356 355 353 348 348 346 341 335 336 332 329 323 332 334 329 326 322 320 329 327 326 326 330 328 327 329 337 334 335 336 336 336 335 334 335 336 337 338 340 344 347 350 352
354 354 354 351 347 346 340 336 332 333 333 331 331 331 329 328 326 321 318 323 331 328 326 328 329 328 331 330 325 332 336 335 334 332 331 331 333 335 336 337 339 342 346
348 353 352 350 347 340 336 336 338 333 334 332 329 329 327 325 324 324 319 318 321 325 330 327 327 328 328 334 333 337 338 337 335 334 332 331 331 332 333 334 335 336 337
342 348 348 350 347 345 341 339 334 333 335 333 334 329 331 328 328 323 320 318 319 321 325 330 326 328 329 330 331 337 340 337 335 333 332 333 333 332 332 332 333 333 334
344 346 352 351 349 344 341 340 336 337 337 333 331 329 331 330 330 328 323 320 316 318 320 325 329 329 329 327 332 340 332 337 336 335 332 333 334 335 335 334 334 334 334
347 346 352 351 348 344 343 340 337 335 336 335 333 334 330 331 330 332 329 324 320 315 316 321 321 329 332 330 331 332 327 338 337 337 333 332 333 334 336 336 335 335 335
350 347 352 351 348 345 343 340 337 339 336 337 334 333 332 332 332 330 331 329 325 320 314 322 322 326 330 332 339 330 331 338 338 335 333 332 332 333 334 335 334 333 334
350 349 351 350 347 345 343 341 337 336 338 334 336 333 333 332 330 329 331 328 326 325 321 321 324 327 330 329 332 333 334 331 330 335 334 332 331 331 332 333 333 332 332
351 350 349 349 347 345 343 342 338 338 336 335 334 332 331 334 329 330 329 328 328 328 324 320 324 325 326 327 329 330 333 335 330 334 334 332 331 330 330 330 329 329 329
352 349 348 346 346 345 344 343 340 336 337 337 336 334 332 332 331 331 332 329 329 329 327 324 322 325 326 326 325 328 328 329 332 335 330 330 329 328 327 326 325 324 323
353 348 348 346 346 346 344 343 340 338 336 336 338 337 334 333 331 331 329 329 329 327 326 323 322 322 323 323 324 320 319 322 324 330 331 329 328 329 329 326 325 324 321
356 349 346 346 346 345 344 341 341 339 337 335 337 339 338 338 339 335 331 329 328 325 322 320 319 318 318 319 318 319 319 320 322 323 322 321 320 319 319 322 327 330 325
357 352 347 346 344 346 335 337 341 340 339 337 336 336 335 340 339 337 334 333 329 323 319 319 318 318 319 322 324 320 319 316 314 322 318 318 317 317 319 318 324 325 323
358 353 348 345 342 342 331 333 337 340 339 337 337 336 337 337 333 330 330 330 329 329 327 321 319 319 319 321 323 321 320 320 318 320 316 313 316 315 319 322 324 324 322
354 351 347 344 341 341 329 326 332 338 335 336 338 336 335 334 333 330 328 325 326 327 326 327 324 324 322 324 323 322 320 316 315 316 316 311 315 314 318 319 324 324 321
353 348 344 342 340 339 327 323 326 333 333 332 336 338 338 333 330 328 328 325 324 325 328 326 326 326 325 325 326 317 313 309 309 310 314 314 314 312 311 310 312 320 318
349 345 343 342 336 340 323 321 324 333 331 331 333 335 329 331 324 323 326 323 321 322 323 324 324 322 321 320 323 318 318 310 311 309 314 312 311 305 304 305 308 313 317

GFSMA_sfc_thetae_036.txt.gz
Theta_e
349 349 349 350 350 350 347 344 346 347 349 349 349 347 343 344 340 348 345 357 359 362 360 360 357 356 355 356 355 353 354 354 354 354 354 353 351 351 351 350 351 350 351
348 350 350 349 347 351 348 349 348 348 349 348 347 348 344 345 344 347 348 349 361 361 362 362 361 358 358 358 357 355 354 352 354 355 356 356 355 352 353 354 352 351 351
347 347 347 347 348 350 350 348 347 345 341 337 331 344 345 345 348 347 348 347 352 360 359 361 361 362 360 358 357 359 359 358 355 354 356 355 354 354 354 355 353 352 354
351 349 346 346 351 348 346 345 344 339 336 330 326 328 333 339 339 345 347 346 347 350 356 358 357 359 360 359 357 356 357 357 356 357 356 354 353 353 355 356 355 355 354
353 350 348 348 351 349 346 345 344 336 328 327 332 329 329 330 332 336 334 338 338 347 347 356 356 357 356 354 357 356 356 355 356 357 358 356 355 356 356 357 356 355 355
356 351 350 351 350 351 345 342 338 335 330 330 330 330 330 331 330 335 337 343 345 345 346 348 348 347 356 356 359 358 356 357 358 357 356 356 357 357 356 355 354 356 356
354 352 348 350 348 344 345 341 333 327 326 331 324 322 328 330 329 334 332 336 341 343 343 343 345 346 351 354 354 353 355 356 356 356 356 354 353 354 354 354 354 355 356
352 352 348 348 347 347 342 335 329 327 328 330 322 322 322 325 331 330 329 330 337 340 340 342 342 344 343 344 347 351 352 353 353 352 352 352 353 353 353 353 353 353 354
354 351 350 348 345 342 340 334 331 326 323 326 326 324 320 318 326 330 329 328 332 331 331 331 338 343 340 339 337 339 344 345 344 343 343 343 344 345 347 350 351 351 351
353 353 351 347 346 344 338 335 335 331 324 322 328 331 326 323 321 320 326 326 325 329 326 326 329 342 339 333 334 336 337 338 336 334 334 335 336 337 337 340 344 348 349
352 353 350 345 344 342 337 335 329 331 329 327 328 328 325 326 321 320 317 322 325 324 325 325 325 335 336 330 326 333 338 339 337 333 331 330 331 332 334 336 337 338 341
349 350 352 345 343 340 337 333 330 330 332 329 326 327 324 323 323 323 316 317 318 322 325 323 325 325 330 328 329 335 340 339 337 336 334 332 330 331 331 332 334 335 336
343 347 347 346 342 337 334 335 333 331 329 328 328 326 327 325 324 320 317 316 316 318 322 326 325 324 328 329 330 337 341 337 336 334 333 334 335 334 333 333 333 333 334
345 349 347 347 341 339 335 334 331 331 331 330 330 327 327 327 327 324 319 317 313 315 317 321 325 327 326 326 332 341 331 337 336 334 332 332 333 336 337 337 336 335 334
342 347 347 347 343 341 337 335 333 332 333 331 329 327 328 326 328 327 326 321 316 312 312 318 319 325 327 328 330 334 327 333 336 335 333 333 333 334 336 337 337 336 336
344 344 346 346 344 341 339 337 333 332 332 332 332 330 328 328 327 327 328 325 321 317 313 318 320 323 328 329 331 332 328 333 335 335 333 332 332 333 334 335 335 335 335
345 343 347 347 345 342 340 336 334 335 332 332 333 331 329 329 328 326 328 326 324 321 317 319 322 324 327 328 329 332 330 329 329 333 334 333 331 332 332 333 333 333 334
348 345 345 348 346 343 341 338 334 335 334 331 331 331 330 333 327 325 326 325 324 324 321 319 320 322 324 325 325 326 328 334 330 332 332 332 330 330 329 329 328 328 329
347 346 346 347 345 344 341 340 337 335 334 334 333 331 330 328 326 325 326 325 326 327 324 321 320 322 323 324 323 325 326 324 327 333 330 329 328 327 326 324 324 323 322
349 346 346 346 346 345 343 341 339 336 335 334 334 334 333 332 328 329 330 327 326 325 323 322 321 320 320 322 322 319 319 320 320 327 330 328 327 327 325 324 324 324 321
352 349 346 344 344 344 344 341 340 337 335 333 334 336 337 336 335 332 332 328 326 324 323 320 318 316 316 317 316 319 320 321 322 322 320 319 318 317 319 321 324 326 323
353 348 346 344 342 344 336 336 341 339 337 335 333 333 337 338 336 334 334 332 331 326 322 319 319 315 316 317 319 319 319 318 316 322 319 316 317 316 318 317 323 323 322
354 348 345 344 343 344 332 333 337 340 337 336 334 332 334 337 336 336 332 330 329 328 326 321 318 318 317 318 318 316 317 316 315 320 314 310 313 312 316 319 322 322 321
353 349 345 344 344 344 329 328 333 341 337 335 335 333 335 335 332 332 330 329 328 327 327 327 323 323 321 322 320 320 319 316 314 314 314 309 312 312 316 316 322 323 320
353 352 347 345 344 344 325 325 329 338 332 332 334 335 336 332 328 326 328 327 326 325 327 324 324 324 324 324 324 320 319 310 309 309 311 311 312 311 311 311 311 317 316
353 351 347 347 339 343 323 320 324 332 333 333 330 334 328 332 322 322 331 328 326 326 323 324 324 321 322 322 323 319 316 310 309 307 312 311 309 307 304 303 304 307 310

GFSMA_sfc_thetae_039.txt.gz
Theta_e
347 347 346 347 347 348 347 345 344 345 347 348 347 346 339 341 338 343 344 354 358 358 359 357 356 356 354 356 356 355 353 352 352 353 352 353 351 350 350 350 351 350 350
346 346 347 347 346 349 348 346 345 344 345 346 343 345 343 342 341 343 345 345 357 357 357 357 358 356 355 355 355 354 353 353 354 355 354 355 353 351 350 352 352 351 350
346 348 347 347 347 349 347 347 346 341 335 331 328 339 344 344 347 344 345 344 349 357 359 358 359 359 357 358 356 357 356 356 354 354 357 353 353 353 352 353 354 352 352
348 347 345 344 348 346 345 343 342 338 332 330 327 328 329 342 341 344 345 345 345 347 353 359 357 358 358 357 357 356 354 355 356 356 355 354 354 353 355 354 354 354 353
350 347 346 346 349 346 344 343 341 335 326 326 331 327 328 329 329 333 344 342 341 346 346 353 355 355 353 354 356 357 354 355 356 357 357 356 355 355 354 355 356 355 354
353 349 348 347 347 348 346 342 336 333 327 328 328 327 329 329 329 333 335 343 344 343 345 346 348 347 355 355 358 358 356 357 354 355 356 357 356 355 356 355 355 355 355
354 351 347 348 346 345 344 339 332 326 324 329 320 320 326 329 330 330 333 338 341 343 343 343 344 345 349 355 354 353 354 356 354 353 355 354 354 354 354 354 354 355 354
352 353 346 346 346 343 341 337 328 325 326 328 319 320 320 323 328 328 328 337 338 340 340 341 341 341 342 343 347 352 353 353 353 351 349 347 350 351 351 351 350 351 353
353 351 348 346 344 343 340 333 328 325 323 324 324 323 319 316 323 328 325 334 334 333 331 336 340 341 339 338 338 343 347 348 347 345 343 342 343 343 344 347 348 350 350
351 350 348 347 344 341 338 333 332 328 322 323 326 329 323 323 320 319 324 325 325 329 326 327 334 340 336 333 332 335 339 341 338 335 334 333 334 336 337 338 341 344 347
350 351 350 348 343 341 338 334 330 329 322 323 326 326 323 324 319 320 317 321 323 323 326 323 326 338 336 333 327 331 339 338 338 335 333 332 331 331 332 333 335 337 337
348 349 350 345 343 341 337 333 329 329 330 328 326 324 322 321 321 320 315 316 318 320 323 323 323 327 333 331 330 333 341 339 337 336 335 335 332 331 330 331 332 333 334
343 347 348 343 341 339 337 332 328 328 329 326 325 325 325 323 322 318 316 314 315 317 320 323 323 323 327 328 327 337 341 339 336 335 334 334 336 336 335 336 335 334 334
346 349 349 347 342 338 335 332 331 329 328 327 328 325 325 325 324 321 317 316 312 313 315 319 322 323 324 325 331 337 332 337 336 334 333 333 334 335 338 339 338 338 337
346 346 347 346 342 337 333 332 330 329 329 327 328 326 326 324 327 325 323 318 316 311 311 316 317 322 326 324 329 332 332 332 336 335 333 333 333 334 336 337 338 337 337
342 345 345 345 343 338 334 332 330 329 331 329 328 326 326 326 326 326 323 321 318 315 311 316 319 321 326 327 328 331 331 335 333 333 333 332 333 334 334 335 335 335 336
341 342 344 344 343 339 336 334 331 331 329 329 330 328 328 326 326 325 326 322 321 317 315 318 319 322 324 325 327 327 331 327 326 332 333 333 332 332 333 333 333 333 334
342 341 343 344 343 341 339 336 333 334 330 328 329 329 329 330 326 325 325 323 322 322 320 317 318 321 323 324 324 324 326 330 329 333 331 331 330 329 329 328 327 327 327
346 343 342 344 343 342 339 338 336 335 333 332 330 330 329 328 326 325 324 324 324 325 322 320 320 321 322 322 322 322 324 322 325 331 328 328 328 326 325 324 322 322 321
347 346 343 343 345 344 342 340 338 335 334 333 333 332 330 329 327 328 326 327 326 326 322 321 319 320 320 320 320 319 318 319 320 326 329 327 328 326 326 323 323 323 319
350 347 345 343 345 344 344 341 339 337 335 333 333 333 332 333 335 332 330 329 327 326 325 321 319 317 317 316 315 317 316 318 319 321 321 322 321 320 319 321 322 324 322
348 348 345 344 344 344 337 335 340 339 337 335 333 333 334 337 335 332 332 332 331 326 325 321 318 318 320 318 317 317 316 314 312 318 316 316 317 315 316 315 321 323 321
349 347 346 344 343 344 331 332 336 341 338 335 333 332 332 336 334 333 331 330 330 329 328 323 321 319 320 320 319 315 315 314 313 318 316 313 312 312 316 316 321 322 320
350 349 346 345 343 343 328 327 334 341 338 337 337 335 332 331 331 332 332 329 329 327 326 325 324 324 323 324 320 319 317 316 316 317 313 308 313 311 314 314 321 321 320
353 352 348 344 343 343 325 325 330 340 337 337 336 334 333 331 328 326 328 326 325 325 327 325 324 323 323 324 324 320 319 315 309 310 313 311 311 310 311 312 315 318 316
354 353 349 345 339 344 323 320 332 339 336 334 331 331 327 331 321 321 328 327 326 326 327 326 326 321 321 320 323 321 316 310 307 306 310 309 307 306 304 305 303 305 305

GFSMA_sfc_thetae_042.txt.gz
Theta_e
348 350 351 351 350 352 354 351 349 350 351 351 351 350 345 346 344 344 345 355 357 357 356 356 356 356 354 355 354 355 353 352 352 350 352 352 352 351 350 348 350 349 348
349 349 350 351 350 351 353 351 352 351 349 348 347 350 347 344 345 345 348 347 356 357 357 354 355 355 355 353 355 355 354 352 351 352 353 354 354 350 350 350 350 350 351
351 351 350 349 350 350 352 352 350 348 340 335 336 345 348 348 348 346 348 348 349 357 356 359 356 357 356 355 355 355 356 356 355 355 356 355 353 353 351 351 352 353 352
351 350 350 349 351 351 351 349 348 344 336 334 336 333 335 346 348 348 348 349 349 350 354 356 355 358 355 356 356 355 355 354 356 356 356 354 354 353 355 356 353 352 353
352 350 349 349 352 350 349 348 346 341 333 335 336 334 335 336 336 337 345 350 349 350 350 351 357 355 352 353 355 356 355 355 353 355 356 355 356 356 355 355 355 355 354
353 350 350 350 352 351 348 346 343 337 334 334 329 330 335 334 338 338 341 344 346 345 350 351 353 353 354 355 357 357 357 356 355 354 355 355 355 355 355 354 354 354 354
355 353 352 351 351 350 349 347 338 336 332 332 330 329 334 334 335 336 342 346 347 348 349 349 350 351 351 355 354 352 353 353 354 354 354 352 351 353 353 354 354 354 354
355 353 351 350 351 347 346 344 338 333 332 332 327 327 327 332 334 334 337 343 344 345 345 346 347 348 349 351 351 352 354 353 351 352 350 348 349 349 351 351 350 351 351
354 356 353 349 350 348 345 342 336 334 332 331 330 331 324 324 329 333 332 339 341 340 339 343 346 346 345 346 344 348 349 351 350 348 345 343 342 343 344 344 345 347 349
353 354 352 350 349 347 344 340 336 334 331 331 333 332 329 330 327 326 331 333 333 336 335 335 343 345 342 339 334 338 341 342 341 335 335 334 334 336 337 338 340 343 343
353 353 352 351 348 346 345 340 337 334 329 330 332 331 330 328 327 327 323 328 331 331 334 332 334 344 342 340 334 333 340 338 338 337 333 331 330 331 332 333 335 336 337
350 352 352 351 350 347 344 340 338 336 332 333 333 332 330 329 327 326 324 324 327 330 331 332 331 335 343 340 336 332 340 338 337 336 337 336 331 332 333 334 333 333 334
348 350 351 349 347 347 345 340 335 335 335 333 332 332 331 331 330 327 324 322 323 325 327 331 331 331 334 340 338 337 338 339 337 335 335 335 336 335 335 337 338 337 336
349 352 351 351 348 346 344 339 335 333 335 334 332 332 332 331 329 327 327 325 321 321 323 328 331 332 331 333 336 337 337 337 337 335 334 334 334 335 337 338 339 339 339
349 350 351 351 348 346 342 339 335 334 334 334 334 333 332 331 332 330 327 327 326 320 321 325 327 331 334 332 333 337 339 337 335 335 333 333 334 334 336 337 337 337 338
348 348 350 350 348 345 341 338 336 335 334 332 333 333 332 331 332 332 330 327 325 325 322 324 328 330 334 333 333 337 337 336 335 333 332 332 333 334 335 335 335 335 336
346 347 348 348 347 344 341 337 336 335 334 334 334 332 332 333 331 331 332 329 327 325 324 326 326 331 333 335 336 337 336 338 337 332 332 331 331 332 333 333 333 333 333
345 345 347 348 347 345 342 339 336 336 334 334 334 334 332 332 332 332 331 331 330 328 327 328 328 329 331 333 334 334 333 333 336 334 332 330 330 329 328 328 327 327 326
345 344 346 346 346 345 343 341 340 338 336 335 335 334 333 333 332 331 330 331 329 329 330 327 328 329 330 330 330 331 332 332 330 331 328 328 327 327 325 324 322 321 320
346 344 344 346 346 346 345 343 341 339 338 337 336 335 334 333 333 332 332 332 332 331 330 329 328 328 328 329 327 326 326 327 327 330 332 329 328 327 326 323 323 323 319
350 347 345 344 345 345 344 343 343 341 339 338 338 337 336 336 335 334 334 333 332 331 330 327 325 324 322 323 324 326 323 324 328 329 329 329 329 329 329 326 325 325 322
351 349 348 346 344 345 337 335 341 342 340 339 337 336 338 337 336 332 332 331 334 333 331 330 327 328 328 326 325 321 324 323 321 328 326 324 328 327 329 327 324 322 321
349 349 349 348 345 346 332 332 336 343 341 340 339 335 335 338 336 338 331 330 330 329 332 333 328 328 328 329 326 320 322 323 322 326 326 323 326 324 327 324 321 321 320
346 346 348 348 348 347 329 328 334 345 342 341 339 336 338 336 336 337 337 336 335 335 334 333 331 328 329 328 329 326 326 325 323 325 325 318 323 321 324 324 321 321 319
348 347 348 348 346 346 325 325 330 343 341 339 338 338 337 336 330 327 335 335 334 332 327 325 326 325 325 325 328 327 323 321 317 319 320 320 320 319 321 320 322 319 316
351 351 350 349 342 347 323 321 330 342 339 339 339 337 329 336 322 321 335 334 332 328 329 329 330 326 325 328 324 327 326 320 318 316 320 318 317 317 310 317 315 317 318

GFSMA_sfc_thetae_045.txt.gz
Theta_e
361 361 363 361 361 362 363 362 360 360 360 359 357 360 356 357 353 351 352 357 356 355 356 356 355 355 355 356 355 354 353 353 352 350 352 353 352 352 351 348 349 349 348
360 360 361 360 361 361 362 362 365 361 359 356 354 359 358 356 357 354 353 354 354 356 355 354 355 356 355 353 355 355 354 353 352 351 353 353 353 351 350 349 349 348 349
361 363 360 359 358 362 362 362 363 361 350 342 343 356 357 358 357 351 354 355 352 355 354 354 355 356 356 356 354 355 356 355 353 353 354 355 353 353 352 350 351 353 353
362 363 359 359 362 361 365 365 359 356 342 339 344 344 347 355 357 356 357 356 355 351 353 357 357 355 353 355 355 355 353 354 357 357 357 354 355 354 354 353 353 353 351
362 361 360 359 363 359 360 357 357 353 343 342 340 345 347 348 349 344 353 355 355 354 353 354 356 357 352 352 354 355 356 356 356 355 355 355 355 356 355 356 354 353 353
364 363 356 357 361 358 355 353 357 350 346 345 338 342 345 346 350 348 349 351 353 352 354 356 354 353 354 349 351 353 355 356 356 355 355 355 355 356 355 355 355 354 354
364 364 358 359 358 364 360 361 356 351 345 346 341 340 343 345 346 347 351 351 352 352 355 357 358 359 354 353 351 350 351 353 354 353 353 353 354 353 354 353 352 355 355
364 363 361 359 361 357 360 358 353 346 342 344 338 339 331 337 343 344 350 349 349 350 349 349 352 355 357 358 355 353 354 353 352 352 351 350 349 348 350 351 351 351 352
363 364 359 359 362 360 355 358 353 348 339 344 342 338 331 329 336 343 344 350 351 349 345 346 350 353 354 350 344 347 350 351 350 349 346 343 341 341 343 344 344 345 346
362 363 364 363 362 359 359 357 353 348 344 339 342 343 343 342 330 330 339 343 347 346 347 344 346 350 349 343 335 341 341 341 339 336 335 334 334 335 335 337 339 340 340
362 362 363 364 362 359 360 358 352 348 343 341 339 339 342 340 343 336 330 335 342 343 345 343 343 347 346 345 335 335 336 338 337 334 333 331 331 332 332 332 333 334 335
357 363 363 363 363 361 360 357 355 351 347 342 340 342 338 336 334 336 334 336 335 338 340 342 341 341 345 343 339 336 338 339 337 337 336 332 332 333 334 336 336 335 334
353 360 363 363 361 363 361 359 355 351 348 343 345 341 342 339 341 338 335 336 333 337 337 340 341 341 341 345 343 340 341 339 338 337 337 336 334 335 335 336 338 339 339
354 362 361 363 363 362 361 359 353 350 350 346 346 345 342 341 340 339 336 333 330 331 334 336 343 341 341 341 346 342 341 337 338 337 336 336 335 336 337 338 339 338 339
356 359 361 361 362 362 361 359 353 350 347 347 346 346 342 341 341 340 338 337 332 325 327 334 334 342 345 344 342 342 343 341 337 336 335 335 335 336 337 338 339 339 339
360 359 361 362 363 362 360 358 355 353 348 345 344 345 344 341 341 340 339 338 336 332 327 335 334 340 345 343 342 343 343 340 337 336 334 333 334 335 335 336 336 336 337
362 361 361 361 361 360 360 357 356 352 348 347 345 344 344 345 339 340 340 339 336 335 330 334 336 340 342 343 343 345 344 344 341 336 334 332 332 332 334 335 334 334 334
362 362 362 360 360 360 359 356 354 351 349 346 346 344 342 341 343 344 339 342 339 340 334 335 338 337 340 344 344 344 340 336 339 337 333 332 331 331 330 330 329 329 328
360 360 361 360 359 359 358 357 355 353 350 348 347 345 344 343 341 340 340 339 339 340 339 334 333 338 338 339 340 341 340 339 338 335 328 329 330 329 328 326 325 323 321
359 360 360 360 361 360 358 356 355 353 351 349 348 348 346 344 343 343 341 341 341 339 339 336 335 335 336 338 337 334 333 336 335 335 334 331 331 331 328 325 324 324 320
359 359 358 359 360 359 355 357 355 354 352 350 349 348 348 346 340 340 339 342 343 339 337 335 334 333 333 331 332 335 333 333 334 334 333 333 333 333 333 327 330 328 323
360 360 358 357 357 354 340 339 352 354 353 353 351 350 350 342 339 333 334 336 342 342 341 335 333 333 336 335 335 334 331 329 326 335 332 330 334 333 333 333 329 325 322
360 359 359 358 356 357 333 333 338 356 355 354 354 353 348 345 340 340 332 331 332 333 337 344 339 339 338 339 338 327 333 330 330 334 333 328 333 330 330 329 325 323 320
357 359 359 359 357 356 330 329 335 353 356 357 355 353 350 347 344 342 342 342 340 341 340 339 343 344 344 337 338 338 337 334 334 332 334 325 328 326 327 326 324 323 320
356 356 359 360 358 358 328 326 333 350 353 356 354 353 351 348 337 330 344 344 343 343 333 329 330 328 326 327 331 333 330 325 324 327 331 324 322 322 322 322 322 321 317
356 354 356 359 350 359 328 323 332 350 352 352 352 352 331 340 326 324 338 341 341 341 340 337 337 329 329 332 326 336 333 327 326 321 327 319 319 319 314 318 319 317 316

GFSMA_sfc_thetae_048.txt.gz
Theta_e
364 363 366 363 362 361 361 359 361 360 359 356 358 352 345 353 353 353 353 355 356 357 356 355 356 356 357 356 354 354 354 353 352 351 352 353 353 353 350 348 348 350 348
364 363 362 362 362 364 361 361 358 358 357 356 354 354 350 349 356 353 348 356 356 355 355 356 356 356 356 356 355 356 355 354 354 352 352 353 353 352 352 349 349 349 349
363 368 364 360 362 363 362 362 361 360 351 348 347 352 352 352 355 354 352 350 353 356 356 354 354 356 356 356 355 356 356 356 354 352 352 355 355 354 352 350 350 352 353
365 366 361 362 363 364 362 358 358 356 349 345 347 350 349 350 350 353 352 349 349 350 354 356 356 355 354 356 356 356 355 355 357 356 356 356 355 355 354 354 352 353 353
365 366 360 364 368 362 361 361 358 356 350 348 343 347 346 346 345 343 348 352 352 349 351 357 357 356 352 353 355 356 356 356 357 355 357 357 355 355 355 355 355 354 352
367 367 363 365 364 360 359 362 356 358 353 349 339 340 346 347 348 345 347 350 351 353 351 357 354 352 356 351 352 353 356 357 356 356 356 355 355 356 356 356 356 355 354
368 370 363 364 363 359 357 358 357 355 353 352 338 337 341 344 344 345 346 346 346 348 350 351 353 352 353 354 350 350 351 353 354 354 354 356 354 354 354 353 354 355 355
369 368 370 362 365 360 358 358 357 354 352 348 338 339 332 335 340 344 350 346 345 344 344 346 349 353 355 354 357 352 353 352 352 352 351 350 349 348 349 351 352 352 352
367 369 367 366 365 361 356 359 358 357 347 349 345 339 331 330 333 341 346 346 347 344 343 345 348 352 355 350 348 349 352 352 351 350 345 341 339 340 341 342 344 344 345
365 365 367 366 369 360 361 360 359 357 354 343 342 341 346 346 331 331 339 344 345 345 347 344 345 347 346 336 339 344 342 341 339 337 336 334 335 335 336 337 338 338 339
366 363 366 365 366 364 364 364 361 360 352 346 337 340 342 340 343 335 332 336 342 343 345 343 344 344 344 341 340 335 337 338 338 336 335 334 332 333 333 334 334 334 335
359 366 364 367 369 367 365 364 364 362 357 353 340 341 338 335 335 336 333 338 337 341 343 344 343 343 344 343 341 340 340 338 336 333 332 332 333 333 335 336 337 338 337
354 362 366 365 365 369 367 367 365 361 359 354 352 338 339 339 340 336 335 336 333 339 340 342 344 344 343 345 344 340 341 340 339 338 338 335 335 336 336 337 338 339 340
355 362 362 365 367 366 367 367 363 360 359 356 354 351 340 339 341 339 335 333 330 332 335 339 342 342 344 344 347 346 341 339 339 339 338 338 337 339 339 339 339 340 340
358 361 362 364 365 366 367 368 362 361 359 358 355 353 346 339 342 341 339 337 332 327 329 339 334 345 345 344 347 346 345 342 340 338 336 336 337 337 338 339 340 340 341
368 362 362 362 364 366 367 368 364 363 360 355 352 353 351 341 343 342 340 338 337 332 328 335 336 341 344 341 345 345 346 344 340 338 336 335 335 335 336 337 337 337 337
372 367 367 363 362 365 367 367 366 363 360 358 355 352 352 353 340 340 340 339 338 337 331 334 338 344 346 346 344 345 346 345 342 337 337 335 333 333 334 335 335 336 335
373 372 369 367 364 364 368 366 363 361 359 357 355 353 351 346 349 350 341 349 344 345 335 340 342 338 344 347 348 348 343 340 340 339 337 335 334 333 333 333 333 332 330
371 369 371 370 367 366 366 365 365 362 360 359 356 354 351 350 347 344 344 343 341 340 341 336 335 340 340 343 344 346 345 345 339 338 331 331 331 332 331 329 328 326 323
370 371 371 372 370 368 367 364 363 363 362 359 358 356 354 351 348 348 345 348 346 342 343 338 335 335 338 344 341 337 338 340 338 339 339 333 335 334 332 328 327 326 322
370 371 370 371 370 367 361 366 366 365 365 361 360 357 355 352 344 346 344 348 349 342 336 336 335 334 335 335 337 337 335 337 343 341 338 337 336 337 336 328 332 329 326
370 370 369 369 368 362 344 339 358 364 364 364 362 361 360 348 346 336 336 338 344 345 342 335 335 336 343 339 339 336 335 333 331 338 338 335 337 335 335 336 329 326 324
368 368 368 368 367 369 336 334 341 363 363 364 365 364 356 353 349 351 336 332 334 334 337 349 343 344 343 345 344 341 341 337 334 339 338 332 336 334 334 332 327 324 322
367 368 368 368 368 367 335 330 336 360 363 366 366 366 364 362 359 354 349 343 341 342 343 343 346 347 349 350 349 346 342 343 341 338 339 329 333 329 331 330 327 324 321
365 364 365 368 369 367 329 326 334 357 358 364 367 367 366 364 346 333 352 346 340 342 336 331 331 335 331 332 337 340 335 335 329 333 336 330 327 324 325 325 326 324 317
361 360 360 365 353 366 337 322 330 352 353 353 359 362 338 355 332 326 348 346 342 343 345 343 341 333 333 333 328 341 343 333 330 328 332 326 321 321 317 322 322 321 320

GFSMA_sfc_thetae_051.txt.gz
Theta_e
361 356 361 357 357 362 359 359 360 357 357 355 352 349 344 350 347 352 351 356 356 357 356 355 356 355 356 355 354 354 351 351 352 353 353 354 353 352 350 348 348 350 349
362 361 359 360 360 358 356 359 359 355 357 355 354 352 346 346 351 352 350 353 357 358 357 356 356 356 357 357 356 356 355 354 354 353 351 353 354 352 353 351 348 349 349
362 365 358 360 362 364 362 363 359 362 348 349 347 350 348 345 351 346 352 351 354 358 357 356 356 356 356 356 355 356 356 358 354 354 352 354 354 354 353 351 350 351 353
365 367 363 360 368 362 358 356 355 348 349 344 346 344 343 346 349 349 350 348 350 347 356 359 357 356 356 357 357 357 356 356 356 357 355 354 356 356 355 354 353 352 353
364 365 361 358 368 357 361 356 354 356 349 344 343 342 341 344 342 343 342 349 350 348 347 358 359 357 353 354 355 356 357 355 355 355 356 355 356 355 356 356 356 355 355
366 367 362 364 365 358 359 359 358 353 349 344 337 338 342 343 343 343 341 345 346 349 349 351 352 351 356 354 353 353 355 356 356 356 354 354 355 356 355 355 356 355 355
367 365 361 363 361 361 358 358 355 355 349 348 337 338 340 341 343 342 345 346 343 346 345 349 349 352 351 354 351 350 351 353 354 354 353 352 352 352 354 354 354 355 355
368 368 369 362 354 355 361 358 357 351 345 344 338 336 332 335 338 341 346 342 345 342 342 344 348 352 350 359 356 353 352 352 352 352 352 351 350 348 348 349 351 351 351
366 369 368 362 365 363 359 361 358 357 346 344 346 339 332 330 333 338 340 343 343 340 341 345 347 349 351 351 351 351 353 353 353 351 346 341 339 339 339 340 342 342 343
365 365 368 365 365 361 367 362 357 358 355 343 339 340 346 347 333 330 338 341 344 343 344 342 345 347 346 338 344 350 347 346 343 338 337 336 335 336 336 337 337 339 341
370 363 368 367 366 360 368 363 363 362 355 349 337 338 344 338 343 339 335 338 340 343 345 344 343 344 345 341 339 338 343 343 342 338 337 336 335 336 337 337 338 338 338
360 370 365 371 372 368 368 366 367 364 361 355 345 341 338 335 335 334 335 340 339 343 343 344 344 343 344 343 343 343 344 342 341 336 335 334 334 334 335 337 338 339 339
353 365 372 373 365 374 369 372 371 367 362 358 358 339 339 339 339 339 337 336 336 339 341 342 344 345 343 345 343 342 344 341 340 340 340 338 336 337 337 337 338 339 340
355 371 373 369 370 371 369 374 364 362 366 359 358 357 342 340 341 339 336 334 331 332 337 341 342 342 344 344 347 346 338 340 340 339 338 338 339 340 341 341 341 341 341
356 363 366 368 370 370 372 374 362 367 365 363 363 361 350 341 342 342 340 338 334 329 332 341 336 352 344 344 347 346 347 340 340 339 337 337 338 338 339 340 341 340 341
371 369 368 367 368 371 372 374 367 369 369 360 355 363 360 344 346 344 342 340 338 335 330 338 339 346 349 342 347 347 346 346 341 338 337 336 336 337 337 338 338 338 338
375 371 373 369 369 369 372 373 371 369 368 366 363 364 360 363 342 342 342 342 339 339 334 336 340 350 354 350 347 347 346 348 342 338 338 337 335 335 335 335 336 337 338
376 376 372 373 369 369 371 372 368 363 367 365 362 362 359 352 358 357 343 355 345 351 338 350 350 343 349 353 354 353 346 341 344 338 340 339 336 335 334 334 334 334 334
374 373 375 372 371 369 369 372 371 369 367 367 365 362 358 358 357 345 348 345 342 345 345 339 339 341 346 345 348 352 352 351 344 338 335 335 332 333 332 331 331 329 327
374 373 374 374 374 372 369 369 371 371 369 366 367 365 361 358 357 356 354 351 353 345 344 340 339 339 342 349 345 339 341 343 341 340 339 335 338 332 331 329 328 327 323
374 375 374 374 374 372 367 368 368 370 370 368 367 366 364 358 349 352 349 351 349 347 340 339 338 338 337 339 340 341 339 340 346 345 342 341 340 338 338 330 333 331 327
373 374 373 373 372 368 347 341 359 366 369 368 366 368 367 352 349 339 338 338 347 349 344 339 338 338 342 346 343 338 338 337 332 346 339 337 347 340 338 338 334 333 329
373 372 373 373 372 373 339 335 341 366 367 369 367 368 365 358 352 357 338 335 335 336 340 347 343 344 351 350 350 351 346 341 337 345 342 333 341 339 340 332 329 329 324
372 372 372 373 373 372 337 330 336 362 364 367 366 364 366 362 360 355 356 349 346 346 345 343 343 346 351 354 357 352 352 348 344 341 348 330 338 334 337 334 330 327 322
372 372 373 373 372 372 332 328 335 360 359 362 364 365 362 362 350 336 357 354 348 345 336 331 331 333 335 335 345 351 342 336 334 336 340 332 333 328 329 327 329 324 325
371 366 368 372 360 373 333 325 334 359 358 358 360 363 340 354 335 328 353 355 350 343 341 337 336 332 333 337 332 347 346 335 333 330 338 331 330 324 318 324 324 324 323

GFSMA_sfc_thetae_054.txt.gz
Theta_e
356 360 357 354 359 354 353 351 359 356 350 351 356 351 347 344 351 348 348 359 360 359 358 356 355 356 355 354 354 350 348 351 352 352 351 352 352 351 349 348 348 350 350
361 352 362 356 358 358 356 358 364 360 362 358 357 354 348 350 350 351 349 353 361 360 361 358 356 356 356 356 353 355 354 353 353 352 351 353 352 352 352 351 350 350 352
370 366 360 357 362 363 365 362 363 355 347 353 350 353 343 350 349 350 349 349 355 361 361 361 360 359 357 356 356 355 356 357 355 355 355 354 354 354 353 352 351 352 354
373 371 358 359 362 361 354 361 353 356 354 348 349 349 347 348 350 350 350 349 350 350 359 361 361 360 357 356 356 356 355 357 357 356 357 355 356 356 357 356 355 355 354
370 367 356 352 353 357 359 360 350 360 351 350 342 347 344 342 346 342 342 348 349 348 348 358 358 357 356 356 356 357 358 357 357 357 357 356 356 357 356 357 357 357 356
368 367 361 355 362 361 355 358 357 358 354 349 335 341 343 346 341 346 346 341 344 346 347 348 354 351 358 357 359 357 357 357 358 358 356 355 353 356 356 355 355 355 355
371 371 367 363 363 362 363 363 360 359 344 350 346 342 344 343 342 344 343 343 349 346 348 348 351 348 350 357 356 355 353 354 356 355 355 355 353 352 351 351 351 353 353
372 370 368 363 368 356 360 364 361 349 354 350 342 342 336 339 342 341 346 343 343 343 343 345 350 354 351 351 353 355 355 353 354 354 353 352 351 350 349 348 349 349 349
370 371 368 366 366 367 360 363 361 358 343 348 349 344 331 327 338 343 342 342 342 343 342 345 348 353 353 353 353 352 356 356 355 353 348 344 344 343 343 343 343 344 344
367 370 369 368 369 367 360 360 363 363 359 347 344 343 348 349 337 331 341 343 345 341 343 345 347 346 345 343 353 353 354 351 347 342 340 339 342 342 342 341 342 342 341
367 367 369 369 369 365 364 359 363 363 363 353 343 344 345 346 346 341 333 339 343 345 346 346 345 344 347 340 339 343 346 345 345 345 344 343 342 340 339 339 339 342 343
364 367 368 368 368 366 367 365 365 365 363 361 356 350 343 338 339 337 336 339 338 344 345 344 346 345 344 342 341 343 344 343 343 342 342 342 343 338 338 338 338 338 339
357 361 365 369 366 368 370 368 367 367 365 362 359 351 346 346 347 344 343 336 335 341 343 346 345 346 346 344 338 341 344 342 341 339 339 339 340 341 342 340 340 340 340
357 366 364 364 367 368 366 370 368 365 365 362 363 357 352 348 347 344 342 339 335 335 343 340 347 347 347 347 338 344 337 340 339 338 338 338 339 340 342 343 343 344 343
358 376 366 365 367 369 368 366 365 364 366 363 360 361 356 350 349 348 347 344 339 332 335 343 340 346 349 347 342 337 336 338 338 337 336 336 337 338 338 339 340 340 340
373 375 367 367 366 366 368 366 365 366 363 362 358 358 357 350 348 351 348 347 343 339 334 342 342 344 344 344 343 340 346 341 337 338 336 335 336 336 337 338 338 338 338
364 367 372 366 364 365 365 366 365 364 363 362 360 360 356 355 354 349 347 348 345 343 337 340 346 350 347 345 343 347 347 344 338 336 335 336 336 336 336 336 336 336 337
370 366 368 368 364 363 364 365 363 360 363 361 360 359 358 354 354 354 352 345 344 346 342 340 346 346 346 347 348 347 345 342 342 339 336 337 335 334 334 333 333 334 334
365 369 369 365 364 363 362 364 364 365 362 363 362 359 355 356 352 348 347 347 346 349 350 341 342 346 347 348 345 346 348 346 346 338 334 333 333 333 331 330 329 329 329
367 365 367 367 365 365 363 363 364 364 364 362 364 362 359 355 352 353 347 344 346 344 342 342 339 338 344 344 344 341 340 344 342 341 337 335 334 332 331 328 328 327 324
365 368 367 367 367 366 364 362 362 364 364 363 362 363 361 357 350 350 350 347 342 342 341 337 336 337 337 341 337 340 338 341 341 344 341 334 334 333 332 330 332 331 327
367 367 367 367 366 366 349 344 357 361 364 363 361 361 362 352 349 341 341 341 345 340 339 337 336 334 336 338 341 338 338 336 331 346 339 337 340 339 337 335 334 334 330
367 366 367 367 366 367 341 338 343 362 361 362 362 361 360 360 350 353 339 337 337 336 339 342 337 336 337 340 341 340 338 335 334 339 337 332 338 335 338 331 329 328 330
366 366 366 367 367 367 341 334 337 358 361 361 360 362 361 359 359 354 352 345 344 343 338 342 343 340 343 344 343 341 340 338 339 340 340 329 335 333 335 329 327 327 326
367 366 368 367 367 366 335 332 334 353 356 357 361 361 362 361 349 336 352 350 347 344 336 334 333 331 335 335 338 340 337 333 331 333 338 332 332 331 327 327 325 325 321
367 368 367 368 357 367 339 328 334 360 355 355 358 359 339 354 337 328 350 351 347 347 343 337 334 334 335 336 333 341 337 332 330 328 335 331 329 325 317 324 324 320 319

GFSMA_sfc_thetae_057.txt.gz
Theta_e
348 352 351 349 347 349 350 349 350 351 349 346 347 346 346 346 344 347 350 360 361 362 358 357 357 356 356 354 352 350 350 354 353 352 351 352 352 351 349 349 347 349 350
352 352 353 352 353 351 347 346 351 349 349 347 347 345 343 345 344 345 346 352 361 360 360 358 356 356 356 355 354 355 351 351 350 350 352 354 352 352 351 351 348 348 351
353 354 347 353 354 354 350 352 355 350 345 344 340 342 346 346 345 344 345 349 356 361 362 361 360 360 357 358 357 356 356 357 355 354 355 353 354 354 354 353 351 350 352
356 352 349 349 350 355 352 352 346 344 342 343 339 337 339 343 344 344 345 347 350 353 359 362 361 361 357 357 356 356 356 357 357 358 356 355 354 355 356 356 355 354 354
358 353 348 348 350 351 347 348 346 346 345 346 339 335 336 340 340 347 344 345 345 347 351 359 360 360 357 357 357 357 357 357 358 357 357 357 357 356 355 355 355 355 355
357 355 351 349 349 354 349 350 346 347 344 335 334 334 334 340 341 336 341 345 344 345 346 349 351 352 359 359 356 359 357 358 357 357 356 356 354 354 355 354 354 354 354
357 356 352 350 352 350 350 348 345 343 340 333 330 328 331 333 338 341 338 336 341 342 343 344 345 345 350 356 357 357 357 356 357 356 356 354 352 351 351 351 351 351 353
359 357 354 352 353 350 351 348 346 342 342 335 329 330 326 327 334 335 337 338 338 342 342 344 345 344 344 346 347 355 355 356 356 355 355 353 352 351 350 348 348 348 349
358 357 356 354 352 351 348 347 347 343 338 334 334 331 325 319 327 332 334 334 336 335 338 343 345 348 344 347 351 352 356 355 357 355 352 348 346 345 344 343 343 343 343
358 359 357 355 352 353 350 349 351 346 341 337 331 331 336 336 322 321 331 330 335 333 334 338 343 346 346 345 350 352 355 355 355 350 342 339 342 342 340 341 341 340 340
356 362 358 355 354 352 351 350 350 349 348 339 329 329 330 331 335 328 323 329 333 334 335 337 339 336 338 339 343 349 352 347 345 345 344 342 341 340 339 338 338 340 340
356 357 360 357 357 355 352 352 351 349 345 348 341 336 327 325 327 325 326 328 330 333 334 337 337 335 336 331 340 347 346 344 344 343 344 345 345 343 341 341 340 340 340
354 355 357 357 356 355 355 354 353 351 349 346 346 337 334 329 333 328 329 329 330 334 334 335 339 337 337 333 332 342 345 342 341 340 339 340 342 343 344 342 341 341 341
352 355 357 359 357 356 356 356 353 355 352 349 350 345 337 339 335 331 328 327 324 325 330 330 337 337 337 337 336 343 336 339 338 337 336 336 338 339 341 342 343 344 343
352 355 356 355 359 357 355 353 357 354 354 352 349 349 343 340 338 336 330 331 326 320 324 331 331 337 337 340 337 335 331 337 337 335 335 335 335 337 338 338 338 339 339
352 352 356 356 358 359 358 354 355 357 353 353 351 349 347 344 339 336 334 332 331 327 322 332 333 336 339 340 340 332 330 336 337 335 334 333 334 335 336 336 337 337 337
350 359 359 357 357 357 358 356 352 354 354 353 351 350 347 346 339 339 336 335 333 330 325 327 332 335 332 337 336 333 336 337 332 334 334 333 333 334 335 335 336 335 336
352 352 360 359 358 357 356 356 355 356 354 353 353 348 349 350 343 342 341 332 332 333 328 324 333 337 333 334 333 335 339 341 339 336 333 332 332 331 332 332 332 332 332
353 356 353 359 358 357 357 356 357 356 353 355 355 353 349 350 345 344 340 339 335 334 335 329 330 336 336 336 336 337 338 337 339 340 334 332 332 332 330 329 328 327 327
355 358 358 355 358 357 357 357 358 357 356 355 357 357 354 351 349 346 342 339 336 335 334 334 330 332 335 337 334 333 335 340 339 341 337 334 333 332 331 328 327 326 323
358 356 356 359 359 359 358 356 356 357 357 357 356 357 357 354 348 347 347 344 337 334 334 333 330 330 330 334 335 336 334 336 338 339 335 331 330 332 331 330 331 331 326
356 357 358 356 359 360 346 343 353 356 357 357 357 357 357 351 348 341 340 341 342 336 331 334 332 330 328 331 334 334 336 332 329 339 336 334 333 333 333 332 330 329 326
360 358 357 360 359 360 340 338 342 356 355 357 357 357 357 357 349 353 339 337 337 336 336 334 334 331 330 334 335 334 333 332 330 335 333 329 335 332 334 335 330 328 326
359 359 359 359 360 361 340 334 338 356 356 356 357 359 358 357 355 353 352 346 345 344 340 338 337 336 337 339 339 339 336 334 334 335 336 327 332 331 334 332 328 326 324
359 359 360 360 360 361 334 332 334 353 355 356 356 356 357 358 346 335 352 350 347 346 338 332 335 333 333 334 338 337 334 331 328 330 334 331 330 329 330 325 323 325 321
359 360 359 361 352 360 337 328 333 355 353 353 355 355 338 348 334 328 348 351 347 348 344 333 336 331 332 334 332 335 333 330 330 327 333 330 328 328 314 317 319 321 317

GFSMA_sfc_thetae_060.txt.gz
Theta_e
346 348 349 347 347 348 347 347 347 349 349 349 345 346 344 343 345 350 352 360 361 361 357 358 356 356 353 351 352 353 354 354 353 352 351 351 352 350 349 347 347 348 349
347 348 347 347 348 348 347 347 346 348 345 345 346 345 345 343 342 348 350 354 362 361 359 356 356 356 357 354 352 350 349 352 352 352 351 353 353 352 352 352 350 348 349
350 348 347 348 350 349 346 346 347 347 344 341 341 342 345 343 343 342 345 348 355 361 361 359 358 357 356 356 354 355 354 353 353 353 353 351 353 353 353 352 351 350 349
352 349 349 350 350 351 350 348 346 341 339 341 338 338 341 343 342 342 343 347 351 353 359 362 361 360 357 357 357 356 356 356 356 356 354 354 352 354 354 354 354 354 353
354 348 347 348 348 348 346 346 342 342 343 343 340 333 337 342 343 344 344 344 347 350 351 357 360 360 357 357 357 355 356 356 357 355 355 355 355 355 355 355 355 355 354
353 349 347 346 346 349 345 347 341 346 342 333 334 331 332 338 338 341 342 343 343 345 347 348 352 353 359 358 358 358 357 357 356 355 356 356 355 354 354 354 354 354 354
355 351 348 347 345 348 346 346 342 340 336 330 326 327 328 333 336 335 339 340 341 342 342 344 346 346 349 357 357 357 356 355 356 355 356 356 354 352 350 350 348 350 351
354 353 350 348 346 348 347 346 344 339 338 331 328 326 319 324 330 334 333 337 338 340 341 342 343 343 343 346 347 355 355 355 355 356 355 354 351 350 349 347 346 346 347
356 355 353 350 350 348 346 345 343 340 335 332 329 329 321 317 324 330 331 334 337 338 339 340 342 343 342 343 348 351 355 354 357 354 353 350 348 345 343 342 341 341 341
354 355 353 351 349 349 346 345 347 342 335 330 329 329 333 331 320 319 327 328 333 335 335 338 342 344 342 343 350 350 355 355 357 354 351 343 340 340 338 338 339 340 340
353 357 354 352 350 349 349 347 347 345 342 337 327 325 327 329 331 321 319 325 331 330 332 337 341 343 343 343 343 347 354 353 353 350 345 341 339 339 338 338 337 337 337
349 355 355 352 351 350 349 348 347 347 345 342 335 332 325 323 325 324 322 325 326 328 331 334 336 337 338 339 346 350 353 350 345 344 343 345 344 342 342 341 340 341 341
348 349 355 352 352 352 350 349 348 347 344 343 342 334 331 325 329 324 325 326 326 329 330 332 335 333 337 331 339 348 350 343 341 340 340 341 344 346 346 344 342 341 341
351 352 354 356 354 353 351 350 348 349 348 345 344 340 334 334 332 330 326 323 320 323 327 330 334 334 335 331 332 346 337 339 339 337 336 338 339 341 342 343 343 343 342
351 351 353 355 355 354 352 352 349 349 350 347 344 346 340 336 336 334 327 327 322 318 321 328 329 335 337 334 334 337 330 337 337 336 334 334 335 336 338 339 339 338 338
346 350 351 353 355 354 353 350 351 351 351 350 348 344 344 342 338 335 333 328 327 322 318 325 331 332 336 337 337 336 330 335 337 335 334 332 333 334 335 336 336 336 337
346 347 351 352 352 355 353 350 349 352 350 350 350 347 345 344 341 336 333 331 327 326 323 323 329 331 332 335 334 336 331 329 329 334 334 332 331 332 334 334 334 335 335
343 346 354 352 352 353 355 353 350 352 353 350 351 349 348 348 342 339 335 333 330 328 325 321 324 333 329 332 334 333 330 332 329 332 332 332 330 330 330 330 330 331 331
346 346 353 355 354 354 353 355 355 352 351 353 352 351 349 347 346 344 338 337 333 330 329 325 324 331 332 333 331 331 331 332 336 338 332 330 330 329 328 327 327 325 325
349 347 349 354 356 355 355 354 354 354 353 353 352 353 352 348 348 346 343 340 337 333 329 330 327 329 332 334 332 330 330 334 335 338 340 335 333 332 330 327 327 326 321
350 351 350 350 355 356 356 354 353 352 352 353 353 353 354 353 348 347 347 344 341 333 332 331 327 327 328 331 331 331 330 332 336 337 335 334 332 332 333 331 332 332 325
351 351 350 352 353 356 344 341 351 354 353 351 351 352 353 350 348 340 340 341 344 340 335 331 332 328 332 333 332 334 332 327 328 338 336 335 334 332 333 332 332 329 325
354 351 353 352 351 356 338 337 341 353 352 353 352 353 353 355 348 354 341 336 337 336 339 339 330 332 332 333 334 332 334 331 332 334 335 333 334 332 335 337 330 328 323
356 355 352 353 355 354 336 332 337 352 354 353 354 354 353 354 354 352 353 351 345 346 341 340 342 339 337 337 335 335 335 334 333 334 334 328 332 331 334 335 331 328 323
356 357 357 356 353 355 333 330 333 350 353 354 355 354 354 355 345 335 350 350 351 348 342 333 334 335 332 330 335 337 334 332 327 330 334 331 331 330 331 331 331 325 321
357 358 357 358 350 357 334 327 332 354 352 353 355 356 338 347 334 329 347 352 349 350 350 348 338 335 331 335 331 339 338 332 330 326 333 331 329 328 322 318 321 322 320

GFSMA_sfc_thetae_063.txt.gz
Theta_e
347 347 346 348 346 347 346 344 345 349 346 347 345 345 345 344 345 348 350 359 359 359 356 355 353 351 350 351 351 352 352 351 351 349 349 349 350 349 347 346 347 347 349
346 347 346 345 345 346 346 345 343 347 344 344 343 344 344 343 344 348 350 352 360 360 357 356 355 354 353 351 350 351 353 354 352 351 350 352 352 352 351 351 351 349 348
346 347 345 345 347 347 346 344 344 345 343 340 341 343 343 341 341 345 347 347 354 359 357 356 357 356 356 354 354 352 350 350 350 351 352 350 352 352 353 353 351 351 351
349 346 346 347 349 347 345 343 343 340 337 338 335 338 340 340 340 340 343 346 350 352 357 360 359 356 356 355 355 354 354 354 354 354 353 353 351 352 354 352 353 353 353
351 347 347 347 348 347 343 345 341 339 339 340 339 334 338 340 340 342 340 343 346 350 350 355 359 359 356 356 356 356 356 355 355 354 354 352 353 352 353 354 352 353 352
351 346 345 346 346 346 343 345 341 344 339 327 333 333 335 337 339 339 340 342 343 346 347 348 350 352 358 356 358 357 355 355 356 355 355 354 354 354 351 353 352 351 351
351 348 346 344 342 345 343 344 341 338 334 328 324 325 327 331 334 336 339 339 340 341 342 343 345 347 347 358 357 357 355 356 356 356 355 354 354 352 351 350 348 348 349
352 350 347 345 342 345 345 344 341 337 336 328 325 322 318 324 330 332 333 338 338 340 340 341 342 343 341 343 347 355 358 356 355 355 355 355 351 350 348 347 344 344 343
352 352 350 347 344 346 344 343 342 338 333 330 327 325 318 316 322 328 330 332 335 336 337 338 340 341 340 340 347 349 355 352 353 354 354 351 348 345 341 340 341 341 340
351 353 352 349 348 348 345 343 345 339 333 327 327 328 330 325 321 319 325 329 330 335 335 336 338 339 340 339 345 350 352 353 356 356 354 350 343 339 338 337 338 338 339
350 354 352 349 347 347 347 344 344 342 339 332 326 323 325 328 326 318 318 323 328 330 332 334 337 340 342 340 342 345 352 353 354 355 353 344 339 338 338 338 337 337 337
348 351 353 350 348 347 346 346 345 344 343 338 331 327 325 323 326 323 320 321 323 327 330 332 334 338 341 341 346 348 352 352 351 351 345 344 344 341 341 341 340 341 341
342 347 351 350 348 348 348 347 345 344 343 343 339 333 328 323 325 323 323 322 323 326 329 330 333 336 340 338 342 350 351 348 347 342 340 341 344 346 347 345 344 342 342
343 346 350 352 350 350 349 348 345 345 344 342 341 338 332 329 326 327 325 323 320 320 325 328 331 334 335 335 337 346 343 344 341 337 337 338 340 342 344 345 345 345 344
345 347 349 351 351 351 350 349 347 345 346 344 342 342 338 333 333 331 326 324 320 316 318 326 328 333 335 333 335 335 339 338 339 336 335 335 336 338 339 340 339 339 339
342 347 348 349 352 352 351 349 348 347 346 346 346 341 341 340 336 333 331 326 323 320 317 322 326 330 333 335 336 334 334 336 337 335 334 333 334 335 336 336 336 336 336
340 342 347 348 349 352 351 349 348 350 347 347 347 345 343 341 340 337 332 330 326 323 320 322 325 328 330 331 334 336 335 330 329 334 334 333 331 332 334 334 334 334 335
343 344 344 348 349 350 352 350 348 350 349 348 348 346 346 346 340 339 335 331 329 326 324 322 322 327 328 330 332 332 335 333 329 331 333 332 331 330 330 330 330 330 331
342 341 347 348 348 349 350 352 351 349 348 349 350 348 349 345 344 343 338 336 332 330 326 324 328 324 329 329 329 330 330 331 331 333 329 330 330 329 328 326 327 325 325
346 343 342 346 351 351 351 351 353 351 349 349 350 351 350 348 348 347 344 342 339 332 328 327 329 328 327 330 329 328 327 329 331 333 335 332 332 331 330 327 327 328 322
348 348 346 344 350 352 353 352 351 352 351 350 351 350 351 351 347 346 348 345 341 336 336 331 332 326 328 327 328 330 330 332 332 334 334 335 332 333 333 330 332 331 325
345 348 347 347 346 350 341 340 349 351 350 350 350 351 351 348 346 340 339 341 345 342 339 337 336 335 334 331 333 332 329 328 325 334 334 334 335 331 333 333 332 329 326
348 345 346 347 346 348 335 335 340 352 350 349 349 349 349 352 345 351 341 336 336 335 340 347 340 338 337 337 334 331 333 331 330 334 335 332 333 331 333 334 329 329 326
352 350 347 348 348 349 334 332 336 349 351 351 351 351 350 350 350 349 350 350 346 345 343 342 345 348 349 345 339 335 334 335 335 335 337 329 332 330 334 336 330 329 325
353 353 352 350 349 351 329 329 332 348 350 351 352 352 352 351 342 334 348 349 350 351 342 334 334 335 334 333 335 336 332 331 329 332 335 331 331 330 333 333 335 329 325
353 354 354 355 345 351 332 326 330 349 348 350 352 353 337 345 333 329 346 350 349 351 352 351 345 337 333 339 333 338 338 333 332 330 335 329 329 329 324 329 330 327 324

GFSMA_sfc_thetae_066.txt.gz
Theta_e
350 352 351 351 351 351 350 348 349 351 350 350 349 350 350 346 348 350 354 356 358 358 354 352 350 349 349 349 350 351 350 350 350 348 348 349 349 349 348 349 350 348 348
349 351 351 350 348 349 349 348 348 350 349 350 348 348 350 348 349 351 352 356 358 358 356 355 351 350 350 349 349 350 351 352 351 351 350 351 351 351 351 350 350 350 348
348 351 350 349 350 351 350 347 350 351 348 343 345 348 347 347 348 351 353 355 356 358 356 355 355 355 353 352 351 350 349 349 351 350 351 351 350 352 352 353 353 352 352
349 351 350 347 351 352 349 349 349 347 343 344 342 345 346 345 345 348 351 352 353 356 358 357 358 356 355 354 354 353 353 353 353 353 353 352 352 351 352 352 351 352 352
353 350 350 349 352 350 349 350 347 344 344 346 345 341 345 344 344 344 345 348 351 354 354 355 358 359 356 356 356 355 355 354 354 353 353 353 352 352 352 352 351 351 351
354 351 351 350 351 351 348 349 348 346 343 335 335 336 340 343 345 344 344 344 347 350 352 353 354 358 358 356 357 356 356 355 355 355 355 355 354 354 352 352 351 350 350
355 350 349 349 348 350 348 350 346 345 339 334 334 334 334 336 339 343 345 345 345 346 348 349 351 353 352 355 357 357 355 355 356 355 356 355 354 353 351 349 347 346 348
355 352 350 349 347 349 348 349 348 344 342 334 332 328 327 334 336 338 339 342 344 345 345 346 347 349 350 349 351 353 358 356 355 355 355 355 352 350 348 346 344 342 342
354 354 352 350 348 349 348 349 348 345 340 337 335 332 326 326 328 335 337 338 341 343 345 345 345 347 347 347 348 352 356 354 352 352 354 352 349 346 342 339 340 339 339
352 355 354 352 351 350 349 349 349 346 342 338 335 334 336 332 331 330 333 336 336 338 343 344 344 346 346 345 346 349 351 353 353 354 355 352 347 341 337 337 337 338 338
351 354 355 354 352 351 351 349 349 347 343 337 333 331 334 335 330 328 329 333 335 337 340 342 343 344 347 347 346 347 351 351 352 356 356 351 343 338 338 338 337 336 336
349 352 355 354 353 352 352 351 351 349 347 344 339 333 334 334 334 332 327 329 330 336 337 340 341 343 346 348 348 349 350 350 350 352 351 350 344 341 341 341 341 340 341
342 348 353 354 352 353 352 352 351 350 349 348 346 339 336 333 334 333 332 330 331 334 336 338 339 342 343 346 348 350 351 347 347 346 346 343 343 345 347 346 345 344 344
342 347 350 354 354 354 353 353 350 349 350 349 349 346 342 338 332 333 334 332 330 329 332 338 340 339 342 345 346 347 350 344 344 342 340 338 339 342 345 346 347 347 346
344 346 349 352 354 353 354 353 351 350 351 350 348 348 345 343 338 336 334 333 333 327 328 335 337 342 341 342 345 347 348 344 342 340 337 335 336 338 340 342 342 341 340
344 347 349 350 353 354 354 353 352 352 351 350 349 348 347 347 345 340 338 335 331 331 328 331 336 340 341 341 342 345 344 342 339 339 336 333 334 335 337 337 337 337 337
342 344 348 350 351 353 354 353 353 353 351 351 351 350 350 348 347 346 342 338 334 331 329 336 332 338 341 342 343 344 342 340 340 335 335 333 332 333 334 335 334 334 335
342 344 346 349 350 352 354 353 352 353 352 351 351 351 351 350 349 349 346 344 339 336 333 332 337 334 338 342 342 341 340 339 338 335 332 332 331 330 330 330 330 330 330
344 345 344 345 347 350 352 354 354 353 352 353 353 352 352 352 351 350 348 346 343 341 336 332 334 335 336 338 338 339 340 341 340 336 330 330 330 329 328 327 326 325 324
344 344 346 348 349 350 351 352 354 353 352 352 353 353 353 352 352 352 351 350 349 343 340 336 338 338 338 340 337 336 336 337 337 339 337 333 331 330 329 326 325 325 321
346 346 344 345 347 349 351 352 353 354 353 352 353 353 354 353 348 349 352 352 351 346 345 340 340 341 338 339 337 342 336 338 339 339 339 338 335 332 331 328 330 330 325
349 349 347 347 345 346 339 337 347 352 354 354 353 353 354 348 347 340 339 340 348 348 346 345 344 342 343 345 345 339 338 333 331 338 335 335 339 336 339 333 331 329 325
345 346 348 348 347 347 333 333 338 352 352 352 353 354 353 354 348 354 343 336 336 336 340 351 349 348 347 349 349 344 340 336 335 341 335 331 336 333 336 334 328 327 324
347 345 346 348 348 348 331 330 334 349 352 352 353 353 352 352 353 352 353 353 352 350 346 346 349 352 354 355 354 349 343 340 339 339 339 330 337 333 335 336 329 328 325
351 350 349 347 347 348 329 328 331 346 348 351 353 354 354 354 342 333 351 352 353 354 343 334 335 335 334 333 336 344 340 338 335 336 337 333 334 331 333 332 331 329 324
352 354 353 353 344 350 331 324 330 349 348 349 352 354 335 347 333 328 349 352 350 352 356 357 348 340 335 341 333 338 343 338 337 333 338 332 330 330 325 329 334 331 328

GFSMA_sfc_thetae_069.txt.gz
Theta_e
362 363 363 357 360 361 359 359 359 356 358 358 358 359 354 355 354 351 352 354 353 354 354 351 349 349 350 351 351 351 351 350 349 348 348 349 349 350 349 350 351 349 348
362 362 363 357 357 359 358 360 362 359 359 359 357 356 357 356 355 353 352 357 354 354 355 353 350 349 350 349 350 350 351 352 351 351 350 351 352 352 351 352 351 351 351
362 363 364 366 358 360 361 359 361 360 356 353 355 355 356 356 355 353 353 355 356 357 355 354 353 354 354 351 349 350 349 348 350 350 350 351 350 349 351 352 351 352 352
362 361 361 362 360 361 358 358 360 356 353 352 352 354 354 354 354 354 355 355 355 355 357 356 355 355 353 354 354 354 354 353 353 352 353 353 353 353 351 351 352 351 351
361 362 361 361 364 361 360 359 356 356 354 355 352 352 354 353 352 350 353 354 354 354 356 355 355 357 355 356 356 355 355 354 354 354 353 353 353 352 351 351 350 350 351
362 362 361 363 365 365 358 358 358 356 351 346 344 346 352 354 355 354 353 351 352 352 353 356 356 356 359 356 357 355 355 356 356 355 355 354 354 352 352 351 350 349 350
363 363 359 360 361 360 358 360 355 353 346 346 344 343 345 349 350 352 353 352 352 353 352 353 353 354 354 355 357 356 356 355 356 354 354 355 353 352 350 347 347 345 345
364 363 361 359 359 360 360 359 358 352 351 346 342 342 336 340 346 347 351 350 351 353 353 352 353 354 355 353 353 353 354 355 355 355 355 355 353 348 347 345 340 339 339
362 365 364 363 359 359 363 363 360 355 347 345 346 342 332 331 340 346 347 348 350 350 352 353 354 353 355 353 351 352 354 356 353 352 353 353 350 347 343 338 336 336 336
360 362 364 363 362 358 364 362 360 357 355 347 344 347 347 342 335 335 344 348 349 347 350 351 351 354 355 353 353 352 351 352 353 351 353 354 350 346 338 336 335 335 335
360 359 363 364 364 363 363 361 362 361 356 352 345 342 348 348 346 339 332 339 346 347 348 350 350 351 353 354 353 353 351 352 352 352 356 354 350 342 338 338 337 337 337
356 361 361 364 364 367 363 362 364 362 359 355 350 345 343 340 342 343 338 339 339 344 345 347 349 351 351 352 354 352 351 351 350 350 353 354 351 342 341 341 341 341 341
351 357 362 363 361 365 365 364 363 362 360 357 357 351 349 346 344 343 339 337 337 343 344 347 348 350 350 352 352 352 352 349 348 346 347 349 349 346 347 346 345 344 345
350 358 360 362 363 365 365 365 361 360 362 360 360 359 354 353 347 345 340 337 333 336 341 344 349 349 350 351 353 351 351 345 345 342 342 343 343 342 345 347 348 349 349
350 355 357 359 361 362 364 365 361 362 361 362 360 361 359 356 353 349 345 342 338 331 333 342 340 353 351 351 352 352 354 347 343 341 339 339 339 338 340 342 343 344 344
355 354 356 357 359 361 362 364 361 363 363 361 359 360 360 357 358 355 351 348 344 340 334 340 342 347 350 347 351 352 353 346 343 340 339 337 337 336 337 338 338 339 339
356 356 358 358 358 359 361 362 362 361 361 362 363 362 361 363 357 356 356 353 349 346 340 340 344 347 350 350 351 353 352 352 349 338 338 337 335 334 335 335 335 336 337
357 356 357 357 357 358 360 360 359 359 360 360 361 362 361 359 361 362 358 359 356 355 346 349 351 348 351 352 354 352 349 347 349 341 335 335 334 333 331 331 331 332 332
357 355 356 356 358 357 358 360 360 360 361 361 362 362 361 362 361 360 360 357 355 356 355 349 349 352 353 352 353 354 351 354 349 342 333 331 331 331 330 328 327 326 325
357 356 358 358 357 356 356 356 357 359 360 361 362 362 362 361 361 362 361 361 360 357 356 352 349 348 349 355 352 347 347 351 351 350 345 338 336 334 331 329 326 326 322
357 359 358 356 357 356 352 357 357 358 359 360 362 362 363 359 350 353 359 364 363 357 354 351 349 350 349 350 352 352 350 351 354 352 350 351 352 344 343 332 332 330 325
355 357 356 355 355 352 339 337 351 356 358 359 358 361 363 354 352 341 340 342 354 362 358 353 351 350 359 356 355 354 353 350 347 357 348 343 345 340 341 335 331 329 326
357 357 356 356 356 357 335 333 338 354 357 359 362 361 357 354 355 362 346 337 338 336 341 359 358 358 359 361 364 360 355 351 347 351 345 337 347 342 345 339 328 327 324
356 357 356 358 357 357 333 331 334 353 358 361 362 362 362 361 363 360 359 358 359 359 358 353 357 359 362 365 366 363 355 351 350 350 348 334 346 343 345 342 329 327 324
355 355 356 357 359 359 330 328 333 351 351 358 360 363 363 362 347 335 357 357 359 359 348 336 338 337 335 334 338 349 345 346 343 345 343 337 339 338 334 334 334 325 322
356 355 355 356 347 358 334 325 332 351 354 352 360 363 338 352 335 328 355 356 356 358 361 363 364 352 343 350 335 345 349 343 343 340 343 335 332 332 326 328 332 331 327

GFSMA_sfc_thetae_072.txt.gz
Theta_e
361 361 361 360 363 361 357 358 358 358 359 357 356 356 353 353 350 349 352 356 354 356 352 350 349 350 351 351 352 352 352 350 349 348 349 350 350 350 350 351 351 350 350
366 359 358 360 359 360 358 358 359 358 358 358 354 356 356 355 354 353 351 354 354 355 355 351 352 350 349 349 350 350 351 353 351 351 351 350 350 352 352 353 352 353 353
366 362 358 360 358 361 363 359 358 360 352 353 354 354 354 357 354 353 354 353 355 356 354 354 353 353 353 351 350 350 349 348 349 350 350 352 351 350 349 351 351 351 351
366 363 359 360 366 363 358 355 354 352 349 351 351 350 351 353 355 355 354 356 355 354 356 356 355 355 355 355 355 355 354 353 353 353 353 353 353 353 353 352 352 351 351
367 364 361 358 362 359 354 352 352 354 349 348 347 349 352 350 350 349 352 355 354 354 355 359 358 357 357 355 356 356 356 355 355 354 353 353 353 354 352 351 350 350 350
366 367 363 360 359 354 353 354 355 355 352 349 342 345 350 351 350 349 351 351 352 354 352 357 357 357 358 356 356 357 355 356 356 356 355 355 354 353 352 351 348 348 348
366 366 360 360 360 358 357 360 357 355 347 352 342 344 344 349 349 348 349 351 351 352 355 356 354 354 355 357 356 356 356 356 355 356 356 355 355 352 350 347 347 344 345
367 364 366 363 364 356 358 358 359 350 347 349 342 342 334 337 342 346 350 351 352 353 353 354 356 355 355 353 356 355 354 355 355 355 354 356 354 351 348 346 340 339 338
365 366 363 363 364 367 355 358 358 356 345 349 351 342 331 332 337 344 349 348 353 350 352 352 353 355 357 354 353 354 355 355 355 353 352 355 354 349 347 340 337 337 337
363 364 365 362 363 363 359 358 357 358 357 343 345 347 348 347 336 337 343 346 350 349 351 350 351 354 357 355 358 353 354 353 353 351 351 355 353 349 345 337 337 337 338
365 362 365 366 366 360 361 361 358 360 357 352 345 342 350 347 350 340 337 340 346 349 349 350 350 351 354 355 354 356 354 353 354 352 353 357 354 350 342 339 338 337 339
357 363 363 366 366 361 362 362 366 361 361 358 353 349 342 342 342 343 341 342 343 348 350 349 350 351 352 352 357 355 354 352 352 351 352 357 356 351 342 342 341 341 341
351 358 365 365 362 367 364 364 364 363 360 359 360 350 350 347 348 344 341 339 340 342 345 347 348 351 351 353 354 354 354 349 349 347 346 351 353 353 347 347 346 345 345
351 358 361 363 365 364 365 367 365 360 364 359 362 362 352 353 353 349 344 340 336 337 343 347 349 349 351 351 354 354 353 346 346 344 342 344 347 348 346 346 348 348 349
354 357 359 361 361 363 365 367 361 363 364 365 364 364 361 355 355 353 351 346 340 334 336 346 344 355 351 351 354 354 355 349 343 342 340 340 341 343 343 342 343 345 346
360 358 358 357 359 362 364 366 362 364 366 362 360 362 364 356 358 357 354 350 349 344 338 343 344 350 354 351 352 355 355 348 343 341 340 338 338 340 340 339 339 340 341
362 363 360 359 357 359 363 365 364 362 362 365 366 365 366 367 357 353 355 354 351 349 344 345 345 352 358 356 356 357 355 355 353 340 339 338 337 337 338 337 336 336 338
364 363 363 362 360 359 363 364 362 359 361 363 364 366 365 363 367 368 359 364 359 361 352 357 357 352 362 367 363 360 356 353 354 345 337 336 335 334 334 333 332 332 333
362 363 363 361 361 358 358 361 362 361 361 362 365 365 366 367 366 364 364 360 357 357 358 354 352 351 352 354 357 365 365 366 358 348 338 334 333 333 332 331 329 327 327
362 362 364 363 362 360 358 357 358 361 361 361 363 365 366 366 366 367 366 367 365 362 360 355 352 351 352 361 357 353 353 357 356 358 353 346 341 336 333 330 330 328 324
362 363 363 362 362 360 355 359 357 356 359 360 362 363 364 361 351 355 362 370 373 362 355 352 349 349 348 349 354 354 353 355 361 367 361 359 357 358 355 335 335 332 326
364 363 362 362 360 356 340 337 350 355 356 360 358 362 363 356 354 343 342 342 351 364 368 357 352 350 364 361 356 354 354 354 354 365 354 348 357 355 355 353 340 331 326
364 364 362 363 362 363 335 333 338 355 355 360 364 363 357 352 353 361 346 339 340 337 340 357 359 360 361 364 366 365 367 361 358 360 361 348 356 353 356 354 333 328 325
366 366 362 364 362 363 335 331 334 356 360 363 364 366 366 365 365 363 361 359 361 361 361 357 360 361 362 367 369 368 363 361 360 359 362 342 352 351 345 344 333 328 323
363 363 364 365 366 365 330 329 336 355 354 361 362 365 368 367 350 337 359 360 361 361 347 335 337 337 337 336 341 353 349 354 350 351 349 345 340 339 335 336 333 324 320
360 359 360 363 352 366 336 324 335 355 356 352 363 368 340 353 336 329 359 359 359 358 359 362 366 355 342 358 336 358 358 352 351 345 347 342 337 334 329 331 331 329 323

GFSMA_sfc_thetae_075.txt.gz
Theta_e
359 362 364 360 359 360 357 357 356 357 355 352 353 352 349 347 347 351 352 356 357 354 352 351 350 351 353 352 353 352 352 350 348 348 350 351 351 351 352 352 352 352 352
362 363 360 359 358 357 355 360 358 350 351 353 351 350 349 350 350 354 349 353 357 356 354 353 352 349 349 348 349 349 350 352 351 350 350 349 349 349 349 352 352 352 352
364 363 364 359 359 360 362 360 359 357 356 349 348 350 350 353 349 350 353 352 354 357 357 355 352 354 353 352 350 350 350 348 349 349 350 351 351 351 350 349 351 352 351
364 364 360 359 360 360 355 358 354 344 352 345 349 345 355 353 350 352 348 353 354 354 355 356 356 355 354 355 355 355 355 354 354 354 353 353 353 352 352 352 352 351 351
362 363 360 360 364 358 362 353 349 347 350 347 347 348 350 347 348 347 351 351 351 354 356 358 360 358 357 356 357 357 357 356 356 355 354 353 354 354 353 351 351 350 350
364 364 360 362 361 360 355 357 362 351 343 346 341 346 348 351 345 345 347 349 349 349 350 353 357 354 359 358 357 357 357 356 357 357 356 355 355 354 351 351 349 347 347
364 364 361 362 360 356 352 358 355 353 344 347 341 345 342 343 346 344 346 347 348 348 349 350 351 357 355 360 360 356 356 355 356 355 357 357 354 353 351 348 347 344 344
366 362 365 360 360 357 359 358 356 351 348 347 344 347 333 336 341 343 346 346 348 349 349 352 352 353 353 354 358 358 356 356 356 355 355 355 355 353 350 348 344 340 340
363 364 364 356 362 361 356 360 359 360 345 343 353 345 336 334 341 342 346 346 350 348 349 351 352 355 357 354 356 357 359 357 355 355 353 353 356 353 350 347 340 338 338
362 363 363 364 365 357 363 360 359 362 359 344 341 344 349 349 339 341 343 346 349 348 350 349 350 355 357 355 360 353 359 358 357 355 352 352 356 353 350 344 340 341 340
363 360 364 364 364 360 364 362 362 363 354 352 341 341 349 344 351 343 342 341 345 347 348 351 349 350 356 356 354 357 356 356 355 356 355 354 357 354 350 343 339 339 340
359 363 362 365 367 365 363 362 364 363 365 360 352 347 342 341 343 341 340 343 342 345 347 348 349 350 351 353 358 360 357 354 352 353 353 353 358 356 352 345 342 341 341
350 366 369 369 364 368 366 368 368 364 362 359 362 350 346 346 346 343 341 339 339 343 344 347 348 350 350 353 354 356 355 351 350 348 348 348 354 356 355 351 347 345 344
351 372 365 364 364 366 363 368 362 360 367 360 362 365 355 349 350 348 344 342 338 339 342 347 347 349 351 352 353 355 352 346 346 344 343 344 345 350 352 351 347 348 348
353 357 358 364 364 364 367 373 360 362 364 364 364 366 360 353 352 351 350 347 341 335 337 348 345 358 353 351 353 354 357 350 344 342 341 341 341 343 345 347 344 344 346
366 360 360 359 362 365 366 373 365 369 366 360 360 371 369 357 359 355 354 351 348 344 339 345 345 355 361 351 355 358 359 348 345 341 340 338 339 340 340 341 341 340 342
370 368 365 362 361 362 366 371 371 368 368 369 367 366 367 373 358 354 354 354 352 349 344 347 350 357 373 368 361 363 360 365 357 341 339 338 337 337 338 338 338 337 338
371 371 369 367 363 362 367 367 361 361 361 362 363 369 365 360 373 372 359 368 359 363 352 357 358 355 364 369 372 374 363 359 361 351 339 337 336 335 335 335 334 333 333
370 368 370 370 367 364 365 367 367 364 360 362 365 367 367 370 372 365 371 363 358 361 360 355 354 356 356 357 361 368 369 366 361 351 342 337 334 333 332 330 331 329 327
370 370 371 371 370 367 364 361 364 367 367 362 365 367 367 368 371 373 369 373 369 364 359 354 354 354 355 365 360 356 356 357 358 358 355 350 341 337 333 330 331 328 323
370 371 371 371 369 365 359 363 363 364 367 365 365 365 367 364 352 357 361 369 373 364 355 354 352 350 349 351 356 356 355 357 361 372 363 369 362 362 367 334 338 334 327
370 371 371 370 368 359 342 339 355 360 363 364 364 367 369 359 354 343 342 343 353 366 367 357 353 352 361 358 357 354 356 354 353 367 362 360 367 358 363 358 335 334 328
370 370 370 370 369 370 336 334 339 360 362 363 365 366 362 352 356 367 347 340 342 338 342 361 361 361 361 365 366 363 364 364 360 363 363 355 361 354 351 348 330 329 325
370 370 370 371 371 368 335 331 335 360 360 363 365 368 368 364 363 364 367 366 365 366 364 357 362 363 366 370 372 366 367 365 364 364 364 348 354 348 343 339 328 325 321
371 370 372 372 371 370 332 328 336 357 358 363 366 367 367 367 351 339 362 361 362 362 347 334 335 336 336 335 342 357 355 355 354 357 353 353 345 341 338 333 329 321 318
370 364 367 372 359 372 337 326 336 356 358 355 363 367 341 355 339 332 362 364 361 363 365 365 368 357 339 353 335 355 362 358 360 346 351 347 339 336 331 335 331 327 325

GFSMA_sfc_thetae_078.txt.gz
Theta_e
358 358 361 352 353 354 351 349 353 352 351 352 353 347 350 349 350 351 352 361 359 359 357 355 353 354 354 354 353 353 351 350 348 348 350 351 352 352 353 352 352 352 352
363 365 360 354 351 355 353 352 349 353 353 356 350 351 350 350 353 349 350 356 360 357 355 352 350 350 348 348 348 349 349 352 351 349 349 349 350 350 349 350 352 352 352
366 361 361 362 354 355 363 360 352 352 352 344 354 355 355 350 350 350 349 351 356 360 359 357 356 354 354 352 351 350 350 349 349 350 351 352 353 353 353 352 351 352 351
370 364 363 364 365 354 359 358 351 349 352 343 348 343 354 351 351 353 354 350 351 350 359 361 359 358 356 356 356 355 356 356 355 354 354 353 353 353 353 353 352 352 351
369 370 358 366 371 361 362 359 345 344 354 349 346 352 350 349 345 347 350 352 355 352 351 359 360 359 357 357 356 357 357 359 358 358 356 355 354 354 354 352 351 351 349
368 369 365 368 368 359 358 352 352 355 345 347 341 344 344 352 349 349 349 347 350 351 354 350 355 356 360 359 359 360 359 358 359 359 358 358 357 355 354 352 350 348 347
368 368 366 368 367 348 354 362 363 359 353 344 343 348 349 344 344 347 349 345 348 348 353 356 356 354 353 361 361 360 359 357 358 359 359 358 358 356 354 352 350 347 344
369 364 359 366 368 360 365 359 353 351 355 351 346 346 338 342 343 343 347 348 348 349 349 352 353 353 354 352 355 361 359 360 357 358 358 358 358 356 354 351 349 345 344
369 360 366 368 369 367 360 365 363 356 352 350 353 347 333 334 341 347 346 347 349 348 351 353 354 357 355 356 358 357 359 358 359 357 358 357 357 357 354 351 348 344 343
367 368 369 368 371 365 360 361 362 350 353 350 347 348 353 350 338 338 348 349 348 349 349 351 352 356 359 357 361 360 360 357 357 359 358 356 356 358 355 352 348 343 343
371 363 367 370 371 366 365 364 365 360 352 355 346 347 352 351 347 341 336 344 348 349 352 353 352 354 357 357 357 356 358 355 355 357 357 356 355 358 355 352 345 343 341
366 370 367 370 370 362 367 366 368 366 366 364 362 352 348 345 343 341 339 343 344 347 348 352 354 351 355 356 360 359 356 354 353 353 353 355 354 358 357 353 347 342 341
356 363 371 369 367 368 367 370 370 369 368 364 364 359 355 351 351 350 346 342 343 347 347 350 352 354 353 356 357 358 356 351 350 348 348 349 350 352 358 356 353 346 343
355 363 365 367 370 368 368 368 366 366 367 365 366 367 362 358 355 351 350 347 340 342 347 346 351 352 356 355 356 356 354 348 347 344 343 344 346 346 350 354 353 349 347
362 363 365 367 367 368 367 369 363 364 367 367 366 367 365 359 358 357 356 353 347 338 338 351 350 356 353 352 357 352 356 350 344 343 340 340 341 342 343 347 349 346 345
370 365 365 365 366 369 369 369 363 366 366 363 364 365 367 361 361 361 358 357 356 349 341 349 349 354 361 353 356 354 355 350 346 341 339 338 339 339 341 341 343 343 342
370 369 369 367 365 365 368 368 365 365 363 364 363 366 363 365 361 360 363 362 357 354 347 349 356 358 364 361 360 359 361 359 358 346 340 338 337 337 338 339 339 340 340
372 374 368 370 364 364 365 365 362 358 363 363 364 364 365 364 366 367 362 361 359 361 355 349 354 355 356 358 361 368 364 360 359 352 343 338 335 334 333 335 334 335 335
364 365 369 364 365 363 362 364 364 361 362 362 363 365 364 366 365 365 367 363 363 363 360 355 354 360 356 354 353 359 362 361 364 352 341 337 334 333 332 331 330 330 329
362 364 364 366 366 364 362 360 363 363 363 362 363 363 365 364 364 367 366 366 365 363 360 358 354 353 354 358 362 356 352 356 358 358 351 345 342 338 334 330 328 329 325
361 364 364 365 366 365 362 361 360 361 362 362 364 363 363 363 355 358 364 366 365 363 359 356 354 354 350 354 352 355 351 352 355 360 363 362 361 359 353 336 335 333 328
362 364 363 364 365 364 346 341 354 356 361 360 359 361 364 356 353 344 342 342 351 358 356 355 353 350 352 356 355 352 353 350 350 368 361 358 361 353 347 334 327 326 326
362 363 363 364 364 365 340 336 341 357 356 358 361 360 360 359 352 361 346 340 340 338 342 353 351 351 352 354 358 356 356 357 355 360 361 353 356 346 340 334 325 324 324
362 361 363 364 364 365 340 332 336 354 358 359 360 359 359 359 358 361 364 362 359 357 353 348 350 355 358 361 362 361 360 359 360 361 359 346 350 338 336 331 324 322 320
362 362 363 364 364 364 335 332 334 350 353 356 357 358 359 362 349 340 352 352 352 353 347 335 340 341 343 341 345 351 347 349 350 355 354 350 339 337 333 329 327 320 317
362 363 363 365 356 366 338 328 333 355 353 353 357 359 340 350 338 333 353 357 355 357 360 360 362 354 337 345 333 346 351 351 354 349 351 345 336 336 330 331 329 326 321

GFSMA_sfc_thetae_081.txt.gz
Theta_e
344 347 348 349 347 348 348 346 346 349 351 349 349 346 342 347 347 350 350 359 360 359 358 355 353 355 353 353 352 353 352 350 347 349 350 349 350 349 349 350 351 351 351
350 351 351 347 347 341 347 348 344 347 347 348 345 344 345 346 347 347 350 353 360 360 358 353 352 352 352 352 351 350 350 352 351 349 349 349 350 350 350 349 349 351 351
353 351 348 346 347 345 347 348 344 346 341 345 344 345 344 345 345 345 349 350 354 358 357 355 355 354 351 350 350 350 350 351 349 351 353 352 353 353 353 353 353 352 351
354 355 354 350 353 351 349 347 344 342 343 340 340 340 345 341 343 344 347 350 351 352 358 359 360 358 356 355 354 353 354 356 357 357 356 354 353 353 353 353 352 351 350
358 358 355 352 355 349 351 348 340 341 341 341 340 342 345 343 342 348 345 345 347 348 351 359 359 360 357 357 357 357 358 359 358 358 358 357 356 355 356 354 353 351 348
356 355 355 353 352 349 349 347 341 343 339 342 342 340 340 341 339 341 345 347 347 347 347 348 354 355 360 359 360 360 359 362 360 359 358 358 358 356 356 354 353 351 347
355 354 355 352 352 342 344 350 349 345 344 340 333 337 337 339 342 339 340 340 343 348 349 345 347 349 352 360 361 361 360 360 360 360 360 358 357 356 355 353 351 350 346
356 354 349 352 350 347 348 344 345 342 343 339 335 337 330 330 332 338 339 339 338 344 349 349 350 349 347 348 352 361 361 361 359 359 360 358 357 357 355 353 350 348 346
357 354 354 353 352 352 347 349 347 344 338 341 339 336 328 327 330 336 333 337 338 338 342 343 346 348 349 347 352 356 360 358 360 359 360 359 357 356 356 354 350 347 344
356 356 353 354 354 352 347 348 352 344 341 338 336 336 339 337 329 327 337 338 338 338 339 343 345 347 347 348 355 356 358 357 357 359 360 360 357 356 358 355 352 347 344
357 358 356 355 355 352 351 351 350 347 345 342 338 333 336 337 335 332 326 333 339 339 341 338 343 346 349 348 348 353 356 356 356 355 357 358 359 356 355 356 352 348 341
356 354 355 356 357 354 352 351 351 350 351 350 348 341 333 332 331 333 331 332 333 337 342 342 342 344 349 350 353 356 355 355 353 352 352 354 357 356 353 356 355 351 342
349 353 355 355 354 352 353 354 353 354 353 350 351 345 348 345 338 337 333 332 332 335 336 340 341 342 347 348 350 355 356 351 349 347 347 348 350 353 354 357 358 354 348
349 350 358 357 355 356 354 356 352 354 354 352 350 351 351 349 348 337 336 334 330 331 334 338 340 343 343 344 349 355 350 348 346 345 344 343 345 347 349 351 355 354 352
350 350 356 357 357 355 355 355 352 353 353 352 351 349 351 351 348 349 341 339 333 327 328 335 340 346 344 342 347 346 343 348 344 342 340 340 341 342 344 345 348 349 347
349 353 354 358 355 356 353 355 352 354 352 350 352 353 351 352 350 350 348 343 342 335 330 337 339 341 354 353 352 345 345 347 345 341 339 338 338 340 340 341 341 343 344
356 357 356 355 355 355 356 354 351 353 354 352 352 352 353 351 350 348 350 350 349 342 335 339 344 350 348 346 348 350 352 350 349 343 342 339 337 336 338 338 339 339 341
352 356 356 356 355 353 353 354 353 352 351 352 354 351 351 357 353 349 349 348 349 348 345 338 343 346 348 351 352 352 356 361 352 351 342 337 335 333 332 333 334 335 335
356 358 355 354 352 352 352 353 354 353 351 353 355 354 354 353 352 355 354 352 352 354 352 348 347 350 351 348 346 348 351 354 357 352 343 338 336 334 332 329 328 327 326
352 355 357 354 356 353 353 352 355 354 352 353 355 353 354 355 353 354 356 355 354 353 352 349 348 347 347 349 350 345 344 346 347 354 350 344 344 337 332 329 328 328 324
352 352 354 355 356 357 357 352 352 354 354 353 354 355 354 355 353 353 357 356 356 354 352 350 347 346 344 342 343 346 342 343 347 349 355 355 352 348 335 327 327 327 324
351 354 354 355 355 359 346 343 350 351 354 354 353 353 355 351 350 343 341 343 353 353 348 346 344 343 342 343 346 344 344 344 341 357 353 351 346 337 334 325 325 324 323
346 350 354 356 355 357 340 339 343 353 350 353 353 352 352 355 349 353 345 339 339 337 341 349 343 343 342 344 345 345 346 346 347 353 353 348 344 333 330 325 324 322 321
351 351 353 355 356 358 340 335 338 348 350 349 351 354 353 353 350 348 349 349 350 348 344 343 343 348 349 350 351 352 350 350 352 356 355 344 340 332 328 326 323 321 320
354 352 354 356 356 357 335 334 333 338 345 349 351 351 351 350 343 337 345 345 343 345 346 336 337 336 338 338 345 351 347 340 343 348 351 346 335 333 327 325 324 320 317
353 356 355 355 349 357 336 330 333 351 343 344 348 350 337 347 335 332 347 347 347 350 349 351 350 339 334 339 336 344 352 341 346 348 349 340 334 333 324 327 325 323 319

GFSMA_sfc_thetae_087.txt.gz
Theta_e
341 344 345 344 344 344 342 341 342 343 344 346 346 344 341 344 346 348 348 356 359 358 355 355 355 353 352 353 353 351 352 351 347 348 350 349 349 349 349 349 349 350 351
343 343 344 343 343 342 341 343 342 342 344 346 342 341 342 344 346 348 347 349 357 358 356 354 354 355 353 353 352 353 351 350 351 351 350 350 350 351 353 353 353 352 352
344 338 343 343 342 338 341 343 341 342 342 343 338 341 342 343 344 346 347 348 351 357 357 354 353 354 353 352 352 351 350 351 352 350 351 351 352 352 352 352 351 352 351
345 342 342 342 343 339 340 342 339 338 337 336 336 338 340 341 342 343 347 347 348 350 354 357 356 354 352 352 352 351 352 353 353 353 354 354 354 354 353 353 353 351 350
350 346 344 342 344 341 339 342 341 338 336 335 335 337 340 339 340 343 343 346 346 348 346 352 358 358 355 357 358 357 356 358 358 358 358 357 356 355 355 354 353 351 350
353 349 348 344 345 341 341 341 337 336 337 335 338 335 337 338 338 339 340 344 344 346 346 347 348 353 359 358 360 361 358 360 360 360 360 359 358 358 357 356 354 351 349
351 349 347 346 347 343 343 342 339 335 338 335 330 331 333 335 336 336 340 340 341 344 344 344 344 347 349 356 360 361 360 360 361 362 362 360 358 357 356 355 353 351 349
351 350 348 346 342 341 342 342 339 337 338 335 329 329 323 325 327 333 335 339 340 343 344 344 343 343 345 346 348 356 360 362 360 362 361 360 359 358 356 355 353 352 350
351 350 349 344 341 343 339 340 342 338 332 336 334 330 321 320 324 329 331 333 335 335 341 344 344 344 343 344 348 350 357 358 360 360 362 361 359 357 356 355 355 352 351
351 348 350 349 346 345 343 343 344 338 336 333 335 332 333 330 322 322 328 332 333 333 334 339 343 345 345 345 350 352 355 355 357 360 362 361 360 359 358 356 355 354 352
351 351 349 348 347 347 344 346 345 343 341 337 336 329 330 332 329 325 322 327 333 336 335 335 338 340 341 342 344 347 353 355 355 357 359 360 360 361 361 360 358 356 354
348 349 349 349 348 345 346 346 346 343 344 344 342 335 329 329 328 328 325 326 329 333 335 336 336 336 339 341 348 352 353 353 352 352 352 354 358 360 361 360 358 356 356
347 348 348 348 348 348 347 347 346 345 345 344 344 340 342 341 337 332 328 327 327 330 332 335 336 338 340 340 343 351 353 349 348 347 346 347 349 353 356 358 360 358 356
348 350 348 350 350 349 348 348 348 348 348 346 344 345 344 342 343 336 330 328 325 325 328 330 337 339 340 343 345 351 346 345 344 342 341 342 344 347 349 350 352 354 354
349 349 348 349 350 348 346 348 347 346 348 347 346 343 342 344 344 343 338 333 329 324 325 330 333 338 341 348 350 349 347 345 341 340 339 338 339 341 343 344 345 345 348
344 346 349 349 349 349 346 347 346 346 345 346 346 345 343 344 345 345 344 339 335 329 328 331 335 337 344 349 350 350 350 347 345 342 340 338 337 338 339 339 339 340 342
343 344 346 350 349 348 349 347 346 346 346 345 345 344 344 345 345 345 343 343 341 337 334 338 337 344 345 347 349 350 351 350 352 343 338 335 333 334 334 334 334 335 337
344 344 346 346 350 350 348 347 346 349 346 345 346 344 345 348 345 345 344 343 342 342 340 338 340 344 345 347 349 347 348 351 349 344 334 332 330 329 327 327 326 326 326
345 348 347 346 349 349 348 349 347 346 346 346 348 347 347 346 344 345 346 345 346 347 344 341 342 344 345 346 347 347 346 344 348 344 331 330 329 328 326 325 324 324 323
343 345 349 349 348 349 349 349 349 347 347 347 347 347 348 348 347 346 346 345 345 345 344 343 342 343 343 345 343 342 339 341 342 351 340 334 332 330 327 325 326 326 321
344 344 346 349 348 348 350 347 348 348 347 345 346 347 348 349 347 346 349 346 345 344 344 343 342 342 343 341 340 339 338 339 342 345 348 345 335 332 326 324 326 327 322
344 345 346 346 348 351 340 338 345 346 346 345 344 345 348 347 345 340 339 339 344 345 343 342 343 343 344 339 337 337 336 336 335 347 348 345 337 327 325 322 324 323 322
340 342 345 348 348 349 336 335 339 348 346 346 346 346 346 351 345 349 341 337 336 335 341 347 342 342 340 340 338 336 336 337 337 343 346 345 335 327 325 323 323 322 320
339 337 340 345 348 350 334 331 336 346 346 346 347 347 347 347 346 346 346 345 344 345 341 340 341 345 343 345 342 342 340 340 342 347 349 343 334 328 325 322 323 320 318
338 338 336 336 343 346 330 330 332 345 347 348 348 347 348 348 340 333 344 344 343 345 340 333 334 333 332 332 335 339 338 339 337 339 348 345 335 328 324 321 322 320 316
343 343 341 338 335 343 329 326 331 348 347 347 349 347 333 343 331 326 341 344 341 344 342 340 340 335 331 336 331 338 341 339 336 339 347 343 334 329 321 321 322 321 318

GFSMA_sfc_thetae_090.txt.gz
Theta_e
345 348 348 348 348 348 345 345 347 348 348 350 349 348 345 348 349 351 354 356 357 355 354 354 354 353 352 352 353 351 352 352 349 348 350 350 350 350 351 351 351 350 351
345 347 346 346 347 346 346 348 347 347 348 348 345 346 346 347 349 351 353 352 356 357 355 354 353 355 354 352 353 352 353 351 351 353 353 352 352 351 352 353 352 351 351
347 346 347 346 346 343 345 347 346 347 347 345 343 346 346 348 348 350 351 351 354 356 357 356 353 353 354 353 353 352 351 351 352 352 352 352 352 354 353 352 352 353 350
347 342 347 347 346 343 346 346 344 343 342 342 343 345 346 345 346 348 350 351 352 354 355 357 357 355 353 353 354 353 353 355 355 355 355 356 356 355 355 354 353 352 350
350 345 345 347 347 343 345 348 345 343 342 341 341 344 345 345 345 345 346 349 350 352 351 351 355 358 356 356 357 359 359 359 359 359 359 359 358 357 356 355 354 353 351
354 349 348 347 347 344 343 346 344 343 343 341 341 340 342 345 344 344 345 345 348 349 350 351 351 352 356 358 359 359 360 362 361 361 361 360 360 359 358 357 356 353 351
352 350 350 348 349 346 346 346 345 341 343 341 338 338 339 340 343 343 344 345 346 347 348 349 349 350 350 354 358 358 358 359 363 362 361 361 360 359 357 356 355 354 352
352 349 350 349 349 347 348 347 346 343 344 340 337 335 331 334 335 337 341 342 344 346 347 349 349 349 350 350 352 353 356 358 359 362 362 361 360 359 358 356 354 354 353
354 354 352 349 346 348 345 346 346 345 339 342 340 338 331 328 330 337 339 339 342 342 344 347 349 350 351 350 351 352 354 356 358 360 362 361 360 359 358 357 355 354 353
352 352 353 350 347 349 347 347 348 346 343 340 341 337 339 336 333 332 337 339 341 341 343 343 345 349 352 351 352 354 356 355 357 359 360 362 361 360 360 359 356 354 354
354 352 353 352 350 349 350 351 349 349 346 344 343 337 338 338 336 334 334 337 342 343 344 343 343 345 347 349 349 350 352 352 353 355 357 359 361 362 363 363 361 358 355
353 351 352 352 352 351 349 350 352 350 349 351 349 343 338 339 337 336 334 335 336 342 343 345 345 346 347 347 348 352 353 352 351 351 351 353 356 359 360 364 364 362 359
350 352 352 351 352 352 351 352 352 351 351 351 352 346 347 347 344 339 336 335 335 339 341 343 346 348 348 352 351 350 352 347 346 345 344 345 348 351 354 356 356 357 360
350 353 351 352 353 353 353 352 352 352 353 351 351 353 350 349 349 344 340 338 337 334 336 340 346 349 351 355 356 353 356 345 343 341 340 341 341 343 347 348 349 348 350
351 353 352 350 354 354 352 353 351 352 353 353 353 351 350 350 350 348 347 341 339 335 337 342 343 351 354 358 359 360 360 348 344 342 338 337 338 339 341 341 341 341 343
350 352 352 352 352 354 352 352 352 352 351 351 352 352 351 351 352 351 350 346 341 340 339 341 346 348 355 358 359 362 360 348 346 339 336 334 336 336 336 335 334 334 336
349 348 351 352 352 353 353 351 351 351 350 351 351 351 351 351 352 352 351 350 348 344 342 347 345 353 356 358 361 362 359 360 354 339 335 332 330 330 330 330 329 328 327
349 349 348 350 353 352 353 352 351 353 351 350 351 351 350 350 352 353 352 352 350 349 347 347 351 353 355 358 359 359 358 354 354 338 332 330 328 327 327 326 327 327 326
346 348 349 349 350 352 353 353 352 352 352 351 352 351 353 353 351 351 352 352 353 353 352 349 350 353 354 356 358 359 357 356 353 335 330 330 328 327 326 325 325 323 320
345 346 350 350 351 352 353 353 352 351 351 351 352 352 353 353 352 353 353 353 353 352 352 350 351 352 353 356 353 351 350 353 350 354 342 337 333 329 327 325 327 326 320
344 346 347 351 352 352 351 352 352 352 352 351 352 352 353 352 346 349 354 356 354 352 352 350 351 351 353 351 352 351 347 348 351 354 358 351 345 335 327 328 328 327 323
345 344 344 346 349 351 340 338 348 352 352 352 351 352 353 348 347 339 338 340 349 354 352 351 352 350 353 352 351 348 347 347 345 356 357 355 346 333 326 329 324 324 322
344 344 345 346 346 349 334 334 339 352 351 351 351 351 350 351 347 354 343 337 336 335 340 355 352 352 351 353 351 349 347 347 347 352 354 353 344 335 329 328 323 322 320
342 342 344 346 347 348 332 331 335 349 351 351 351 352 351 352 352 352 353 352 353 353 350 346 349 352 354 355 353 353 352 350 351 353 356 349 343 334 327 328 322 321 319
339 341 342 343 345 345 328 328 333 347 349 350 351 352 352 352 341 332 350 350 351 351 341 333 334 334 333 332 338 349 346 345 346 351 355 355 344 333 330 328 327 319 317
343 341 341 341 335 344 328 325 331 348 348 349 353 354 334 347 332 326 348 351 349 351 352 352 351 340 334 341 330 343 348 345 348 348 356 355 344 337 335 329 326 326 323

GFSMA_sfc_thetae_093.txt.gz
Theta_e
357 358 359 357 358 356 352 355 357 357 358 356 357 356 354 353 351 352 354 355 355 355 353 353 353 353 352 352 353 352 351 352 352 350 351 351 351 351 351 353 353 353 353
356 354 355 355 357 358 356 358 358 358 357 356 354 355 355 355 353 353 354 355 355 356 356 354 353 354 355 353 353 354 353 352 351 352 353 352 353 352 353 353 352 352 351
357 357 353 353 356 357 355 359 359 359 357 353 354 354 355 355 352 353 355 354 355 356 357 357 355 353 353 354 354 353 353 352 353 353 353 354 354 354 355 354 353 353 351
358 356 356 354 355 353 355 356 357 354 353 351 353 354 356 356 353 352 353 353 355 354 355 357 358 357 355 354 355 356 357 358 358 357 356 356 357 357 356 356 355 353 352
358 354 355 356 355 353 354 356 356 354 352 350 350 354 356 354 353 351 352 353 353 353 355 357 353 355 356 357 357 358 361 362 361 361 361 361 360 359 358 356 355 354 352
359 357 355 356 355 351 353 356 356 354 353 351 347 349 351 353 354 353 353 352 352 355 355 357 357 356 355 356 357 359 359 361 363 363 362 361 361 360 360 359 357 355 353
361 361 357 356 356 353 354 357 355 352 353 354 348 348 350 351 351 352 353 352 352 354 355 356 357 356 356 356 356 357 358 358 361 362 362 362 361 360 360 358 357 356 354
364 362 360 358 358 354 359 357 357 352 354 353 345 346 338 342 347 347 350 349 351 352 352 355 357 359 359 357 359 358 357 358 358 361 362 361 361 360 359 358 356 356 355
361 363 361 360 361 359 355 359 357 355 349 352 350 346 339 335 341 348 349 351 353 351 352 353 355 357 359 359 359 359 358 356 356 358 362 362 361 360 359 359 357 355 355
362 362 362 361 360 359 358 357 357 357 353 348 352 350 351 348 338 338 349 351 353 351 354 354 353 355 358 356 361 360 357 356 356 357 359 361 360 360 361 361 359 357 354
364 359 363 362 360 357 360 360 360 359 357 353 351 350 351 350 350 344 338 343 351 352 353 353 355 355 357 358 359 358 355 353 353 355 356 357 359 360 362 363 363 361 358
361 364 362 362 363 360 360 360 363 360 360 362 359 356 350 348 346 345 343 344 345 348 351 354 356 358 360 362 362 353 355 353 351 350 350 350 351 353 356 357 358 358 362
357 362 363 362 363 364 362 361 363 363 361 361 363 357 358 357 357 352 348 345 344 348 349 356 356 359 360 365 365 356 358 349 347 345 345 345 346 347 350 351 352 353 354
357 365 364 363 363 363 362 363 360 361 363 361 359 363 360 359 360 357 352 348 343 347 350 350 356 358 362 366 364 358 365 348 345 343 340 340 342 344 344 345 344 344 345
358 362 364 363 362 364 363 364 358 362 362 363 362 362 359 360 360 359 359 355 349 340 342 352 351 362 363 363 363 369 368 348 346 341 337 338 338 338 337 336 335 335 336
361 361 362 362 363 363 364 364 361 362 362 360 359 361 362 359 359 360 359 359 355 350 344 353 353 360 366 364 362 370 367 352 346 338 335 333 333 334 333 333 333 332 331
362 362 362 363 362 362 364 364 362 361 361 361 361 360 360 363 358 358 360 360 357 355 348 351 357 362 366 366 367 370 364 362 358 337 334 331 330 330 330 331 331 331 330
361 362 362 361 361 362 364 362 360 359 359 358 359 361 359 357 361 362 358 361 359 361 355 354 359 357 362 367 368 368 364 359 362 338 332 330 328 328 328 328 328 326 325
358 360 361 361 360 361 361 362 362 361 361 360 360 360 359 360 361 359 361 359 358 359 359 355 354 357 360 363 362 364 363 364 357 336 331 330 329 328 327 326 326 323 321
354 356 358 359 360 361 361 361 361 361 361 360 361 360 359 360 360 361 360 361 362 360 359 357 353 353 355 361 362 354 350 354 355 358 346 339 336 329 328 327 328 327 321
353 356 356 357 358 359 358 361 361 361 361 361 361 361 360 358 350 352 356 359 361 357 353 351 350 350 350 350 354 352 349 352 356 361 358 360 360 355 342 333 333 329 324
354 354 355 354 354 353 339 340 354 360 362 361 360 361 362 353 351 340 339 340 350 359 356 351 348 350 357 356 353 351 352 350 345 360 359 356 364 357 343 338 325 324 323
353 353 353 353 355 357 334 335 340 360 361 361 361 361 359 356 353 360 344 337 337 335 340 358 356 355 358 358 359 358 358 355 352 356 358 355 362 357 343 338 324 323 321
351 353 352 353 355 354 332 331 336 357 361 361 361 361 361 361 361 360 360 359 360 360 359 354 357 359 361 363 363 361 359 358 357 358 364 352 363 357 345 343 323 321 319
350 350 351 353 353 355 328 328 334 351 353 360 360 361 362 362 347 336 357 357 359 358 345 337 337 336 336 335 340 355 352 350 348 351 363 358 362 356 347 345 338 320 317
347 347 348 351 343 355 332 324 332 348 350 348 358 363 337 352 336 328 355 357 354 355 356 357 359 349 338 349 331 351 355 350 348 349 361 357 359 356 347 345 330 338 335

GFSMA_sfc_thetae_096.txt.gz
Theta_e
355 354 356 353 353 353 355 358 358 357 359 355 355 353 350 349 348 349 351 355 355 355 353 353 352 353 352 352 353 352 352 353 352 352 353 354 353 353 353 353 353 352 351
355 355 355 354 355 356 356 360 361 358 357 355 353 354 354 352 353 355 352 355 355 355 356 355 353 352 353 354 354 354 354 353 352 352 353 353 353 353 354 355 353 352 354
359 359 355 355 355 357 360 360 361 361 355 352 353 353 354 356 354 356 358 355 356 355 356 356 356 354 354 354 355 355 355 355 354 354 355 355 355 356 357 355 355 353 353
362 361 357 355 357 356 358 358 358 356 351 348 350 352 353 356 356 358 359 357 357 355 356 356 357 358 357 356 356 357 359 362 362 360 359 358 358 358 357 357 355 354 353
362 359 357 360 360 356 356 356 356 357 350 350 347 351 356 356 356 353 357 359 359 358 357 359 356 355 355 357 358 359 360 363 363 364 364 363 362 360 359 358 357 355 355
364 359 357 360 357 354 354 357 359 355 352 351 346 348 354 356 357 357 356 355 358 357 357 361 360 359 358 358 358 359 359 362 362 362 362 363 363 362 361 360 358 357 355
363 364 357 360 357 355 358 359 355 354 349 355 347 344 347 350 352 354 356 356 354 357 357 359 360 358 359 360 360 360 360 360 362 363 362 361 361 361 361 360 359 358 356
363 362 362 357 358 355 361 360 360 348 351 353 344 344 339 340 345 348 352 352 352 355 356 357 361 363 361 360 362 361 361 360 360 361 363 362 361 360 360 359 358 358 357
361 361 360 361 362 361 353 359 358 358 345 353 355 347 338 335 342 345 348 351 357 354 355 358 360 362 362 362 362 365 363 359 360 359 361 361 360 360 360 360 359 357 357
361 360 360 361 362 359 360 359 359 358 357 346 352 352 353 352 340 337 345 349 352 353 358 357 356 360 363 361 366 364 359 356 357 357 358 359 360 360 360 361 361 359 357
361 360 361 362 365 359 362 361 363 363 355 352 349 351 354 354 355 344 338 343 349 351 353 355 358 358 362 364 362 361 358 356 354 355 355 355 356 357 358 359 360 360 362
358 362 364 365 367 363 363 362 364 364 363 359 354 353 350 349 346 347 345 347 347 348 352 355 358 359 361 363 365 361 359 354 352 351 349 350 352 354 356 357 357 357 357
355 365 367 367 362 365 366 364 365 364 363 360 361 354 356 356 355 353 349 346 347 350 351 355 356 358 359 363 364 360 358 351 349 345 343 345 347 349 350 349 349 349 351
356 367 362 364 363 362 365 366 361 358 362 360 361 362 355 357 358 356 351 347 343 346 352 352 357 359 360 361 361 359 362 350 347 342 340 341 342 342 341 340 339 339 338
357 364 363 360 360 362 365 366 360 362 363 363 362 364 358 355 355 357 355 353 347 339 341 355 351 360 362 360 362 364 366 354 348 341 338 337 337 337 336 336 336 335 334
362 362 365 364 362 362 363 364 362 364 363 359 357 362 363 355 357 356 355 354 354 348 342 347 351 360 366 364 363 368 365 355 346 339 335 333 334 334 334 334 334 333 333
365 364 366 365 363 362 364 366 363 360 362 361 362 362 361 364 356 354 355 355 353 352 347 348 354 361 366 365 367 369 363 362 354 337 334 332 331 331 331 332 331 330 330
365 364 364 367 365 365 366 364 358 358 360 359 361 361 360 356 364 364 356 361 358 359 352 355 362 356 364 366 368 367 360 357 360 338 333 330 330 329 329 329 328 325 326
361 361 363 364 364 365 365 366 363 360 360 361 361 361 359 360 361 358 360 357 355 356 358 353 352 356 357 359 362 366 363 362 353 337 332 331 329 329 328 327 326 324 322
359 359 361 362 363 364 365 364 364 364 363 360 363 363 361 358 360 362 361 363 362 360 362 355 353 352 351 361 358 351 348 350 351 355 350 345 339 331 330 328 329 327 322
360 360 359 358 360 360 358 364 364 363 365 364 364 364 362 356 349 351 355 363 364 357 353 350 348 347 346 348 353 350 347 349 356 359 357 359 365 359 348 334 336 329 324
360 360 360 358 356 352 340 339 354 361 363 363 362 365 365 354 353 343 342 341 349 359 358 349 344 345 361 355 352 349 350 348 346 355 357 355 368 363 357 349 326 325 324
359 359 359 359 358 358 335 334 341 358 359 362 363 363 361 357 357 363 344 338 339 337 340 358 357 356 358 358 361 360 363 357 354 356 360 353 366 362 358 339 325 324 322
357 358 358 359 359 359 334 330 336 357 361 364 363 363 365 364 362 361 362 361 361 360 360 357 359 360 363 363 364 366 365 364 361 358 366 353 360 362 359 352 325 322 321
357 358 357 358 359 360 330 328 336 352 350 360 363 366 367 367 350 336 361 360 359 357 345 337 338 337 336 335 343 357 352 348 344 344 355 356 356 361 359 357 341 322 318
352 353 354 357 348 359 335 324 333 352 353 346 357 366 339 354 338 331 360 360 357 357 354 356 359 352 343 354 334 355 356 349 345 342 355 355 354 361 353 357 349 343 337

GFSMA_sfc_thetae_099.txt.gz
Theta_e
353 353 355 351 352 353 354 356 356 356 355 351 350 350 347 348 348 350 347 357 356 355 352 353 352 352 353 352 352 352 353 353 353 353 353 354 353 354 353 354 354 352 353
355 352 354 351 351 352 355 361 358 355 354 351 350 352 351 351 353 355 352 353 356 356 356 354 352 352 351 352 354 354 354 354 354 353 354 354 354 355 355 356 355 353 351
357 359 357 362 352 357 359 358 361 359 357 347 351 352 352 353 353 354 353 354 356 357 357 357 356 355 354 354 355 356 356 357 357 357 357 357 357 357 357 357 355 354 352
362 363 354 352 356 355 353 355 359 352 347 346 348 350 349 351 352 354 353 354 352 356 358 358 358 358 358 357 357 358 359 362 363 364 363 361 360 359 359 358 357 355 354
362 362 358 360 360 355 357 356 355 351 349 346 346 348 350 350 351 350 352 354 353 355 355 360 361 360 358 359 359 360 362 363 364 363 364 364 364 364 363 362 360 356 355
363 362 359 361 359 359 352 355 362 352 355 348 344 345 348 351 351 350 350 351 353 355 355 358 360 359 361 363 363 362 361 364 364 364 363 362 362 363 363 362 361 359 357
362 364 357 358 360 360 356 358 352 355 347 349 348 343 345 348 349 349 351 351 351 352 353 355 359 357 359 363 364 363 362 363 365 364 364 362 362 361 361 361 360 360 358
361 360 364 357 364 356 360 358 358 351 348 349 344 343 336 339 344 345 347 348 349 352 351 356 357 361 361 360 363 365 364 364 363 364 363 361 360 360 360 360 359 359 359
360 362 360 364 362 360 354 358 357 361 349 347 357 348 339 336 339 345 348 348 352 351 354 355 357 360 363 364 364 365 363 359 359 360 362 362 361 360 360 360 359 359 358
363 361 362 361 362 360 363 358 354 361 361 346 347 348 355 354 345 336 344 348 353 353 356 354 355 361 364 362 367 360 361 358 358 359 359 359 359 360 360 361 360 360 359
361 360 362 362 362 360 366 366 361 365 353 354 359 347 354 349 352 344 340 343 348 350 352 354 356 357 361 363 363 362 360 357 355 355 354 356 358 359 360 360 359 358 359
358 362 361 362 364 359 363 361 364 364 366 365 358 352 349 348 344 347 344 345 344 348 350 354 356 357 359 361 364 362 358 355 353 349 349 350 353 355 355 354 353 351 352
351 363 366 364 362 365 364 365 367 365 362 360 364 356 350 350 350 350 349 347 343 348 349 352 352 355 357 360 362 360 362 354 350 345 344 346 346 346 346 346 345 344 344
354 366 362 362 364 363 363 366 361 358 367 360 361 366 357 351 353 352 349 346 343 343 351 354 353 356 359 360 362 360 361 353 348 342 341 341 340 341 340 340 340 338 338
361 365 360 363 363 362 364 367 362 361 363 363 364 364 358 353 353 353 353 351 347 340 341 352 350 370 361 362 361 365 365 353 349 343 339 337 337 337 337 337 337 334 335
361 355 363 359 361 363 363 367 364 365 364 360 355 368 365 356 355 354 353 352 351 348 343 348 348 361 369 364 363 370 366 355 347 341 336 334 334 334 334 335 333 332 333
363 364 365 363 362 360 362 366 366 364 363 364 363 361 362 370 357 352 353 353 352 351 346 350 353 361 373 374 368 372 364 367 353 338 336 334 332 332 332 332 331 330 333
367 364 365 365 364 363 367 363 359 357 359 358 358 362 359 356 368 370 356 368 359 363 351 358 358 356 368 375 376 376 362 357 356 338 335 333 331 331 330 330 328 327 329
364 362 366 366 363 364 366 367 364 360 360 360 360 359 358 361 365 360 365 359 355 357 360 354 352 354 357 359 364 370 372 369 353 337 333 332 331 330 330 329 327 324 323
364 365 368 368 365 364 363 361 364 367 364 360 361 361 361 360 364 368 364 370 365 361 359 354 353 352 352 363 357 352 351 351 349 352 350 346 337 332 331 329 329 327 322
363 365 365 364 362 361 357 365 366 365 368 366 364 363 363 358 351 354 354 365 370 360 352 350 348 347 345 350 354 350 350 348 355 352 351 353 352 347 340 332 335 330 326
366 367 364 363 361 353 339 339 352 363 366 368 367 368 369 356 352 343 342 342 351 360 365 349 344 344 362 354 350 348 350 346 345 355 356 353 356 361 362 356 327 327 325
362 364 365 364 364 365 339 333 340 358 362 367 368 370 362 355 357 364 345 340 341 337 340 359 359 360 361 365 366 366 361 360 354 357 358 353 357 361 363 335 327 326 324
361 362 360 363 364 363 337 332 334 356 361 365 366 369 368 368 369 367 367 364 363 363 361 354 358 361 364 368 368 365 369 371 364 363 366 352 354 356 364 343 327 325 323
355 360 360 362 362 365 333 329 336 354 353 359 364 367 368 370 353 339 364 365 367 365 347 340 344 343 340 338 345 357 350 348 345 346 353 348 351 352 364 357 335 325 321
348 350 354 360 351 362 339 325 333 354 355 353 359 361 341 353 339 332 363 365 363 364 364 361 363 351 343 353 336 355 355 348 346 344 354 348 349 351 352 365 354 337 334

GFSMA_sfc_thetae_102.txt.gz
Theta_e
362 357 358 355 352 361 354 357 354 359 356 351 353 350 346 350 347 346 350 360 359 356 353 352 351 351 352 353 353 353 354 354 354 354 353 354 354 354 354 354 355 353 351
354 358 361 357 359 355 356 354 351 354 349 354 353 353 354 352 356 352 349 355 360 359 357 354 353 352 352 352 354 356 356 356 356 356 357 358 357 356 356 356 356 354 351
365 350 359 355 360 363 361 364 358 364 354 352 353 355 353 356 354 354 353 351 354 361 360 358 357 356 355 355 356 357 359 361 361 362 362 362 360 360 359 358 357 355 354
368 367 363 355 363 363 350 360 357 353 357 352 353 348 353 353 355 356 355 356 353 353 359 361 361 361 358 359 359 360 362 363 363 364 364 364 364 363 362 360 359 357 356
366 364 362 365 365 359 358 350 347 356 356 346 348 350 351 353 351 351 353 354 352 356 356 360 362 362 361 362 362 364 364 364 364 364 363 363 363 363 362 361 361 360 357
363 357 364 365 367 362 353 349 357 355 357 342 345 346 353 353 352 353 351 353 352 353 357 359 359 359 362 364 366 366 366 365 364 364 364 363 363 363 362 362 361 360 359
365 359 358 364 367 350 357 361 358 358 357 356 357 352 350 349 350 352 353 351 352 354 353 358 359 359 358 363 364 365 366 367 367 366 364 362 361 360 360 360 360 360 356
367 361 363 362 362 360 365 362 365 355 355 355 352 352 342 345 347 346 349 350 348 352 354 357 360 360 361 363 362 364 364 363 364 364 364 362 360 359 360 359 359 359 359
365 367 365 366 355 363 360 366 364 361 353 352 358 354 342 338 343 347 349 349 352 355 356 357 359 363 362 364 365 364 364 359 362 361 362 361 360 359 360 359 359 359 358
366 366 366 368 367 364 365 366 357 360 364 354 353 350 352 355 344 341 348 349 354 353 355 356 361 362 363 366 365 364 361 358 358 359 358 359 360 361 361 360 360 358 358
361 363 368 368 366 351 357 367 366 367 362 355 355 353 355 355 356 350 341 347 353 355 359 355 358 361 363 365 368 361 359 356 355 354 354 356 357 357 356 355 353 352 354
364 364 365 369 367 355 363 367 368 368 366 362 361 359 352 352 345 349 345 348 345 349 352 357 356 358 362 363 363 363 359 355 353 350 349 350 351 351 351 349 348 347 346
359 362 366 369 368 371 366 369 370 368 367 365 369 359 358 346 355 355 348 345 347 351 353 356 355 360 357 363 364 360 361 354 350 346 345 345 344 344 344 344 344 341 340
350 361 364 366 368 365 365 367 367 365 367 364 365 368 362 358 356 357 353 350 344 345 354 359 357 361 364 363 362 362 360 355 348 343 342 340 340 340 339 340 336 336 337
353 366 363 366 367 365 367 367 365 365 365 368 367 365 366 357 355 359 358 357 351 342 343 352 351 367 366 366 365 367 368 358 349 344 340 338 338 337 337 336 333 334 338
353 351 342 363 368 368 369 366 364 365 364 365 361 366 365 361 361 361 356 358 358 353 346 352 354 362 367 362 365 366 369 355 346 342 338 336 336 336 335 334 332 334 338
354 337 336 345 365 366 367 368 364 363 360 363 365 363 365 368 362 360 362 360 358 358 352 355 356 359 359 363 368 369 369 364 348 340 337 335 334 334 334 333 332 334 336
372 358 350 360 360 366 365 366 361 361 360 361 364 363 362 359 365 364 361 358 358 360 353 349 355 356 362 365 371 366 368 359 358 340 336 335 333 331 331 330 330 330 331
369 370 372 367 367 362 363 365 364 363 363 362 364 362 362 363 363 361 364 361 360 363 362 358 356 357 357 362 361 365 365 366 354 338 334 333 332 331 330 328 327 325 324
366 367 369 368 367 365 364 363 361 363 363 362 364 364 363 363 362 364 363 362 361 359 358 357 353 354 358 360 362 352 347 354 355 351 345 340 335 333 331 329 329 327 323
365 366 366 366 367 364 358 363 364 363 360 362 363 365 365 362 355 357 358 361 360 360 356 353 350 349 348 351 349 350 351 353 350 356 357 345 339 337 333 331 334 331 327
364 366 364 363 361 357 341 339 356 360 363 361 359 363 367 360 353 343 342 341 348 355 355 356 349 346 352 356 353 353 351 346 344 361 356 351 358 348 345 342 330 329 327
360 362 362 362 362 363 341 335 337 355 359 362 363 362 359 356 353 360 342 339 339 338 341 351 351 353 352 354 357 357 355 355 351 355 356 351 359 360 344 330 328 327 326
355 357 360 361 360 360 339 334 336 354 357 360 359 362 365 362 361 361 363 361 357 357 353 347 349 350 352 355 359 358 356 358 360 362 360 351 357 358 352 337 328 327 325
341 350 356 357 359 360 338 328 334 355 355 355 355 359 360 360 350 341 358 359 361 362 350 342 343 341 341 341 347 358 351 347 343 344 351 344 345 355 355 337 330 327 323
339 341 344 353 348 358 339 330 331 354 355 355 357 357 339 347 337 333 355 359 355 356 358 359 357 345 340 346 336 349 353 346 345 343 348 348 347 348 345 346 334 327 324

GFSMA_sfc_thetae_105.txt.gz
Theta_e
344 346 346 348 346 347 345 344 350 345 344 344 344 339 341 340 342 347 348 359 360 359 355 353 354 353 354 355 355 354 354 355 356 355 354 354 354 354 354 354 354 353 351
347 347 348 347 349 351 351 343 345 346 346 343 341 344 342 344 342 343 347 351 360 359 358 355 355 354 354 353 354 356 357 358 358 357 358 359 358 356 356 356 356 354 352
349 345 347 350 351 349 345 344 345 352 349 345 342 342 344 344 345 342 345 348 354 361 359 359 359 359 356 356 356 358 361 361 362 363 363 363 361 360 359 357 358 357 356
354 349 351 349 347 347 344 348 343 340 345 346 340 342 343 346 344 345 347 346 348 348 358 362 362 362 359 359 360 361 363 363 363 363 363 364 362 362 360 360 359 360 356
354 351 351 353 349 350 348 343 345 342 343 341 341 341 342 343 344 348 343 347 347 349 349 357 361 362 361 363 365 366 366 365 364 364 364 364 363 363 362 361 359 358 358
355 348 353 349 352 346 344 343 343 351 346 339 344 340 340 344 344 343 344 347 346 350 350 351 353 356 362 365 367 367 367 367 365 366 365 363 362 362 361 361 360 357 356
353 347 347 350 348 347 346 342 347 346 346 345 341 341 338 337 338 343 342 345 344 349 351 352 352 354 355 362 363 364 367 368 367 365 363 361 360 359 358 358 358 359 358
354 351 349 349 352 347 347 347 349 346 346 341 337 340 330 333 338 339 338 342 341 345 347 349 351 352 352 354 355 362 364 362 363 364 363 360 359 359 359 358 357 358 358
354 355 354 352 348 351 347 348 347 345 340 341 340 340 331 329 331 335 335 339 339 344 346 350 351 353 353 357 362 361 360 359 360 360 361 360 360 360 359 359 357 357 357
355 352 354 352 352 348 348 350 353 350 348 343 344 342 341 341 334 328 338 341 344 343 344 348 350 352 353 358 362 362 360 357 357 357 358 359 359 358 357 356 354 353 353
355 354 353 353 351 347 347 347 351 350 351 349 345 346 340 345 344 337 335 340 343 345 346 346 352 352 357 356 354 356 358 355 353 354 354 355 355 354 353 351 348 347 347
351 354 354 352 351 351 348 351 351 351 350 351 353 348 346 339 338 331 338 338 337 339 344 346 344 348 356 355 359 360 358 354 352 350 349 349 349 349 348 348 346 342 343
348 349 353 354 352 351 351 353 352 350 351 351 350 351 351 343 345 343 337 335 339 341 343 347 346 349 355 354 354 358 359 354 349 346 344 344 344 343 343 343 340 341 341
347 347 355 354 353 355 355 352 349 351 353 349 351 349 351 350 346 345 333 338 334 337 341 344 350 353 353 353 355 359 356 352 348 344 341 340 340 339 340 337 338 339 341
352 353 354 354 354 353 353 353 351 349 350 351 349 351 351 350 351 350 344 344 339 332 333 341 341 356 354 352 355 358 358 358 348 343 340 337 337 337 337 335 336 339 341
347 345 346 350 353 355 354 351 350 352 352 349 352 346 349 351 352 351 351 348 345 339 334 341 344 346 358 353 357 357 356 354 347 342 338 336 336 335 335 334 335 340 340
347 341 342 339 345 353 353 353 351 350 350 350 350 350 349 352 350 350 352 348 347 347 338 341 346 346 348 349 352 361 359 357 347 340 337 335 333 334 333 333 335 337 340
347 344 338 339 344 352 352 351 349 351 350 348 350 351 348 354 348 352 349 348 346 346 343 338 344 349 352 350 351 358 358 361 350 340 335 334 332 332 331 331 331 333 335
350 345 343 348 350 352 353 354 354 352 351 352 351 351 349 349 348 350 348 348 349 352 349 346 345 348 348 350 352 349 344 348 347 338 334 333 332 330 330 328 327 327 329
354 354 353 354 352 353 353 353 354 353 353 352 353 353 353 352 350 350 350 348 348 348 346 345 345 345 347 349 346 340 340 346 342 347 341 336 333 332 331 328 328 327 325
355 355 355 356 356 356 355 353 353 353 352 351 351 354 356 355 353 352 353 350 349 348 348 346 342 338 337 342 342 344 341 343 341 342 342 336 333 332 329 330 332 332 327
351 353 353 351 351 358 345 340 349 351 353 349 348 351 354 355 352 345 343 344 347 342 339 342 342 340 338 342 344 342 344 342 339 351 347 347 339 337 337 331 332 330 326
347 348 350 352 352 354 342 336 336 345 350 353 352 352 352 354 348 352 344 337 336 336 339 339 336 338 340 343 342 342 342 343 343 347 349 347 349 348 344 336 330 328 326
340 342 347 350 351 353 340 334 334 339 343 345 348 351 351 349 349 351 354 353 348 346 343 341 341 343 342 344 344 345 345 346 348 349 353 343 343 347 338 332 328 327 324
337 339 341 339 343 350 337 329 333 341 345 346 347 348 351 350 345 340 349 348 351 355 349 338 338 338 338 339 342 349 347 342 343 342 341 339 339 340 339 333 328 327 323
333 336 336 337 336 342 335 328 329 343 348 344 349 349 336 341 333 332 346 348 348 351 350 352 346 340 337 342 335 343 346 342 343 339 342 339 336 337 338 339 328 324 322

GFSMA_sfc_thetae_108.txt.gz
Theta_e
341 344 346 346 345 343 344 343 345 342 342 339 337 339 339 341 343 349 350 358 359 360 357 354 355 354 353 354 355 355 355 355 356 356 356 355 355 355 355 355 354 355 351
342 344 343 344 344 347 346 342 343 345 344 339 339 338 338 339 341 344 346 350 359 359 356 355 355 355 355 355 355 356 357 358 358 358 359 359 358 357 357 356 356 356 354
345 344 345 345 345 344 339 340 346 344 344 344 339 340 340 341 340 341 344 346 351 358 356 357 358 358 356 356 357 358 361 362 361 362 362 362 361 361 360 357 357 357 356
344 348 346 344 345 345 343 346 340 338 343 343 338 339 341 342 341 339 342 343 346 349 355 361 361 362 359 359 360 362 364 364 364 364 363 364 363 361 361 358 357 357 357
353 348 350 346 347 347 343 341 342 340 340 338 338 339 340 341 341 345 344 344 343 346 345 352 361 362 361 363 366 368 367 366 365 364 364 365 364 362 361 359 357 356 355
350 348 352 348 347 343 341 340 341 345 342 338 342 338 340 340 342 342 343 344 345 346 347 347 348 355 361 364 367 367 368 368 366 365 363 361 360 360 359 359 359 357 357
348 346 347 347 346 343 341 344 348 343 342 342 337 338 335 336 337 340 342 342 343 346 349 348 348 350 352 361 363 364 364 367 365 363 361 359 359 359 359 358 357 358 359
349 346 346 346 347 344 344 344 346 344 341 338 336 335 327 330 334 336 338 340 341 342 348 350 350 351 352 351 355 361 363 363 360 361 360 359 359 358 359 357 356 355 355
352 352 349 347 347 347 343 344 346 345 341 341 340 336 328 325 329 332 333 337 336 340 345 348 349 351 349 352 358 359 362 357 361 359 360 359 358 357 357 356 354 353 355
351 352 351 349 348 346 345 347 352 347 344 343 342 343 338 338 329 327 335 340 341 343 341 343 346 347 350 354 358 360 360 356 358 356 358 357 356 356 355 352 349 347 348
351 351 351 351 347 344 345 347 348 346 348 347 344 342 340 338 336 334 331 337 340 341 344 344 345 348 352 354 352 353 358 356 353 354 353 354 353 353 351 348 345 343 345
349 350 350 350 349 347 345 349 348 347 347 349 348 345 339 336 329 333 334 334 334 338 341 344 343 347 353 353 360 357 358 355 351 349 349 348 348 348 348 344 342 342 343
346 349 350 349 347 348 348 350 348 347 347 347 345 348 346 343 342 338 334 331 334 338 342 345 346 347 353 351 353 356 357 352 349 344 344 344 343 342 342 342 343 343 343
345 348 351 351 351 349 349 349 347 348 348 348 346 346 347 345 345 341 325 334 331 333 338 340 347 351 352 352 355 356 355 350 347 342 340 339 339 339 338 338 340 342 345
346 352 352 351 352 351 350 350 348 347 347 348 346 344 348 348 348 347 341 340 335 330 331 338 340 347 352 352 352 353 355 350 349 341 338 337 336 337 336 335 338 341 343
349 348 347 351 351 351 350 350 346 349 348 347 348 346 345 348 348 347 348 344 342 336 332 338 342 344 347 350 352 352 355 350 345 340 336 335 335 336 335 334 339 340 341
344 340 346 344 347 350 351 349 346 349 346 346 347 346 345 348 348 345 347 345 342 342 336 338 342 345 348 349 351 351 357 357 348 339 335 335 333 334 333 333 338 337 341
344 339 341 337 340 346 349 349 348 349 346 346 346 347 347 350 346 347 347 346 345 345 343 338 342 345 346 347 348 348 347 351 348 339 334 334 331 331 330 331 333 333 336
345 342 339 337 337 345 350 350 349 346 348 347 346 347 348 346 344 344 345 344 343 347 346 343 341 345 345 347 346 342 341 345 344 337 332 332 331 330 329 328 328 328 329
345 344 341 340 344 348 350 350 351 350 350 349 349 350 350 349 345 344 345 346 344 343 343 342 342 342 343 342 342 339 340 341 342 344 340 335 333 332 330 328 328 328 324
351 350 348 348 350 349 352 349 349 349 349 349 350 350 351 351 348 347 352 348 347 345 343 343 340 338 338 337 338 341 337 339 341 340 340 335 333 331 329 330 332 333 327
346 347 349 351 350 356 344 340 348 349 348 349 347 347 348 349 348 343 341 342 345 344 341 337 335 334 333 335 338 339 337 335 335 346 343 343 337 337 335 331 331 330 328
339 340 343 346 348 350 340 336 336 341 346 348 348 347 348 352 346 349 343 338 335 335 338 339 335 333 333 336 337 335 335 336 337 343 345 345 342 342 344 338 329 328 326
338 339 338 339 340 347 333 331 333 339 340 341 343 347 348 349 347 346 347 347 349 349 341 339 339 341 339 341 338 339 338 340 343 345 349 339 339 338 343 339 330 328 325
334 335 338 338 338 340 329 328 331 340 343 344 345 345 346 347 340 336 346 346 346 348 345 334 334 333 333 333 337 343 341 339 339 337 339 338 337 335 339 336 330 327 323
328 331 334 336 332 338 330 325 329 339 340 344 346 347 333 336 323 321 337 344 344 345 346 349 350 341 335 340 332 342 345 339 338 336 339 338 334 335 332 338 329 326 324

GFSMA_sfc_thetae_111.txt.gz
Theta_e
341 343 344 344 344 342 342 342 342 345 339 336 342 345 342 341 343 346 347 356 356 359 356 354 354 355 354 354 355 356 356 357 357 357 357 357 356 356 355 355 355 355 355
340 341 343 343 343 344 344 340 342 345 338 337 336 339 339 339 340 344 346 349 359 357 357 356 355 355 356 356 357 357 357 358 359 359 360 359 360 359 358 357 356 356 355
343 341 342 342 343 343 338 342 345 338 341 340 337 337 337 337 338 339 341 343 346 358 356 356 357 359 358 358 358 360 362 363 362 363 363 362 360 358 358 358 357 355 355
344 344 343 343 345 342 342 342 338 338 341 341 337 338 339 340 340 338 339 340 343 346 351 360 362 362 360 360 362 364 365 365 365 365 365 363 362 361 358 358 357 356 356
348 345 345 344 345 344 341 340 341 341 338 336 338 338 338 340 341 344 339 341 341 344 343 348 356 360 361 364 366 368 369 368 366 366 365 363 362 361 360 359 358 356 355
348 349 346 346 344 341 340 339 340 343 341 339 339 339 338 339 342 340 341 344 344 345 344 344 345 347 356 361 364 366 368 367 366 363 362 360 360 360 360 359 356 355 357
347 348 347 345 345 343 340 345 344 341 340 339 335 335 334 336 335 338 340 340 341 344 346 348 347 348 349 358 360 364 365 366 364 363 361 359 359 358 358 357 356 354 357
346 346 344 343 343 343 342 343 344 340 338 337 336 332 326 328 331 335 335 338 338 341 343 348 348 349 349 350 354 363 362 362 360 361 361 360 358 358 357 355 354 355 355
348 347 346 345 346 345 341 343 345 343 340 341 339 334 327 323 327 329 333 336 337 336 341 344 347 348 348 349 356 357 360 357 358 360 360 359 358 357 356 353 350 349 354
350 351 350 347 348 346 344 345 350 345 343 341 341 341 337 335 326 325 332 338 340 341 340 341 343 344 347 349 357 360 359 358 355 356 358 358 357 355 351 348 345 345 348
349 350 349 348 344 343 344 346 345 345 346 345 342 340 338 332 333 331 328 334 340 338 340 343 343 346 348 353 351 352 357 357 353 353 353 354 353 351 348 346 342 341 345
347 347 349 349 346 343 343 347 347 345 346 346 346 343 337 335 327 333 330 332 334 338 339 344 344 347 352 352 359 358 357 355 352 350 349 348 348 347 346 346 344 342 348
344 347 347 346 345 346 345 348 346 345 346 344 344 345 344 342 340 333 330 330 333 336 338 345 347 348 352 350 351 355 356 350 349 345 344 343 342 343 343 343 344 344 348
345 347 348 348 348 348 347 348 346 346 346 346 344 345 345 344 344 339 326 333 330 332 335 337 343 349 350 350 353 354 352 349 347 341 340 339 338 339 339 339 341 345 350
346 346 349 350 349 349 349 347 346 345 345 345 345 343 344 346 346 345 341 339 334 328 330 336 339 345 346 350 351 351 350 348 347 340 338 337 336 337 336 337 340 342 344
344 345 348 350 349 348 348 347 346 345 345 345 345 344 343 346 345 345 345 342 339 335 331 336 340 343 346 350 351 349 352 350 344 338 336 335 335 336 335 335 340 340 342
344 346 345 348 348 348 348 346 344 344 344 343 345 345 344 344 346 343 345 343 341 340 336 339 340 343 344 346 346 347 348 347 344 338 336 335 333 333 334 333 337 337 341
344 342 341 342 344 345 347 348 346 347 345 343 343 343 343 348 343 343 344 343 343 342 340 335 340 341 344 345 345 342 343 347 342 339 334 333 331 331 331 331 332 332 338
344 342 337 340 339 341 345 347 347 346 345 345 345 343 344 344 342 341 341 341 341 344 342 340 339 342 344 344 342 342 341 340 345 338 332 332 332 330 329 328 329 327 329
344 343 339 337 338 337 343 348 349 348 347 347 347 347 347 347 345 344 343 343 343 341 340 339 339 340 340 339 340 337 337 336 339 344 340 336 334 333 330 328 328 329 325
347 346 344 342 341 343 346 346 347 347 347 347 348 349 349 349 346 344 348 347 345 343 341 339 338 336 335 334 332 336 335 335 337 339 342 338 335 332 331 330 331 333 327
341 343 345 348 346 352 341 337 345 347 347 346 345 346 347 346 345 340 339 339 345 344 341 338 336 334 333 333 334 336 333 332 331 341 340 340 340 341 338 331 332 330 328
339 339 339 340 340 343 329 330 335 342 345 345 345 346 347 351 344 347 342 336 336 334 339 342 337 335 333 335 335 333 333 333 333 339 342 341 339 339 343 340 330 327 326
331 334 337 338 337 341 327 327 331 337 340 340 340 342 344 346 346 346 346 344 344 346 343 338 338 340 338 340 338 338 337 336 338 341 345 337 335 336 338 341 332 328 324
330 331 333 335 335 337 328 324 330 339 340 340 342 343 344 344 334 329 340 342 343 345 341 334 332 331 331 331 334 339 337 335 339 336 340 337 336 334 334 338 335 327 323
328 329 330 332 330 337 329 326 329 339 337 339 341 343 325 328 318 318 332 336 337 340 341 338 340 340 337 339 331 339 342 339 339 333 339 338 334 332 331 335 333 327 324

GFSMA_sfc_thetae_114.txt.gz
Theta_e
345 346 347 347 348 347 347 347 347 349 343 341 347 351 347 348 348 349 350 354 356 357 359 356 355 356 356 356 356 357 358 358 360 359 359 359 358 358 357 357 356 355 353
344 347 347 346 348 348 348 346 348 348 344 343 343 348 346 345 345 347 349 351 357 358 356 357 358 357 357 358 359 360 361 362 362 360 359 361 360 359 359 358 358 356 355
347 346 347 346 349 348 347 350 346 346 348 345 344 343 343 343 342 343 345 346 348 351 357 358 358 359 359 360 361 364 364 364 363 363 363 361 359 358 357 357 358 359 356
349 348 348 348 350 349 347 345 347 346 346 346 344 344 345 344 345 345 344 344 346 346 349 353 356 361 360 362 365 364 364 364 363 363 364 361 360 359 360 355 358 357 356
350 350 348 349 351 349 348 345 347 348 345 343 344 344 345 345 346 346 346 346 346 348 348 349 353 356 358 362 364 366 366 364 365 364 362 362 361 361 359 357 356 356 355
352 351 350 351 349 348 345 346 349 348 347 344 342 343 344 345 348 347 346 347 349 351 352 351 352 352 355 359 362 364 366 367 365 363 363 361 359 359 358 357 357 356 356
352 351 349 350 349 349 348 351 350 347 346 343 344 342 342 341 343 343 347 346 347 349 351 356 355 353 354 357 358 362 365 366 364 364 363 360 359 358 357 354 353 356 355
350 350 349 349 349 350 349 349 350 347 346 344 344 338 334 338 340 340 341 343 344 346 348 351 353 356 356 356 357 362 362 362 360 362 363 360 358 357 354 352 350 352 355
350 351 350 349 352 351 348 350 351 349 346 348 345 342 336 333 334 339 344 345 347 346 349 350 352 354 357 357 358 360 360 359 359 359 360 359 358 355 350 347 345 348 355
352 351 352 351 353 351 351 352 354 351 350 346 348 345 343 342 337 334 345 348 350 348 348 351 352 354 356 357 361 359 358 358 357 356 357 356 354 350 349 345 343 345 354
352 353 353 351 351 351 351 354 352 352 353 350 347 345 344 337 339 339 339 343 351 349 349 350 352 357 361 361 360 359 357 356 356 353 352 352 350 349 349 346 344 345 352
350 350 352 352 351 350 350 353 353 352 353 351 353 348 345 343 341 343 337 340 341 346 349 353 356 357 360 359 360 357 356 355 353 350 348 347 346 347 348 347 346 350 353
349 350 352 350 351 352 350 354 353 353 354 351 353 349 349 348 347 341 340 341 341 344 346 353 361 358 356 359 359 355 356 349 349 345 343 342 343 343 344 344 348 349 356
349 352 352 351 351 352 352 354 352 352 354 351 352 352 351 351 350 343 340 342 342 344 346 348 351 354 357 357 357 355 358 346 346 342 340 338 339 340 340 342 343 347 350
350 351 352 353 353 353 353 353 351 352 352 352 352 351 351 352 352 350 348 347 344 339 343 345 348 356 357 357 356 357 358 345 344 340 339 336 337 337 337 340 341 342 345
350 350 351 352 353 353 353 352 352 352 352 352 351 352 351 353 353 351 350 348 347 343 340 344 349 352 355 355 355 356 353 347 341 339 337 335 335 336 335 338 341 341 342
349 349 348 350 351 352 352 352 352 351 351 351 352 352 351 351 353 353 352 350 350 348 345 348 348 353 355 357 357 356 354 355 351 339 336 335 333 334 334 334 337 337 341
348 349 349 348 351 351 353 351 351 352 350 349 350 350 350 351 352 352 350 351 351 350 348 345 349 350 354 356 356 356 350 348 351 341 335 334 333 332 331 331 332 333 338
347 345 344 345 346 348 349 352 351 351 351 350 350 350 350 351 351 349 349 349 349 349 350 348 347 350 352 352 352 352 351 351 348 339 334 333 333 332 330 329 329 327 331
348 347 344 342 344 345 346 348 351 351 350 351 351 352 351 352 352 353 351 352 352 350 349 348 348 348 349 350 347 344 346 348 347 349 345 339 336 334 331 328 328 329 326
349 349 347 347 345 343 343 345 350 352 352 352 353 353 354 352 346 348 353 356 353 352 350 349 348 346 345 344 344 344 344 345 349 349 352 352 351 352 348 333 335 333 327
343 344 344 346 349 350 331 335 343 351 351 351 350 352 354 348 348 339 338 338 348 353 352 348 347 345 347 344 344 344 344 344 344 352 350 351 353 352 352 350 336 330 327
337 339 339 340 342 342 327 328 335 348 350 351 351 351 350 351 349 353 342 336 337 334 340 354 349 348 346 348 347 347 346 344 345 349 351 350 353 350 353 353 332 328 326
331 334 336 338 339 340 327 325 330 345 346 346 346 346 347 349 349 347 350 350 351 352 351 346 348 351 350 351 348 350 348 347 348 350 352 346 351 348 352 352 336 329 324
331 332 335 336 337 339 326 324 331 342 343 344 347 348 348 348 325 325 345 347 348 350 342 333 333 332 332 331 336 346 346 345 345 348 351 349 349 347 348 349 351 329 323
327 330 329 330 328 338 319 320 327 339 341 342 345 343 324 329 318 317 338 342 342 345 347 348 349 346 338 344 331 345 349 345 346 345 352 347 347 345 344 350 349 348 343

GFSMA_sfc_thetae_117.txt.gz
Theta_e
355 354 357 355 356 358 356 356 357 355 352 351 357 359 355 356 350 352 351 351 355 356 356 358 358 358 358 358 359 360 360 361 363 362 361 360 361 359 360 358 357 355 354
355 355 357 355 357 358 357 357 357 357 354 352 353 358 357 355 352 352 352 354 353 358 358 356 357 359 359 361 361 363 362 363 362 363 363 361 360 359 360 361 358 356 354
358 357 356 357 358 359 359 358 356 358 355 352 352 354 355 354 352 354 354 354 354 352 353 356 359 360 360 361 363 365 366 364 363 363 362 361 360 358 360 360 360 358 355
360 359 358 358 361 360 357 356 356 357 355 356 355 355 355 355 356 357 356 355 355 354 359 355 355 356 358 362 366 366 366 364 364 363 363 363 360 359 359 360 358 357 356
359 362 359 359 362 360 357 356 358 358 354 353 351 355 356 355 354 353 355 356 357 356 357 361 356 356 358 361 363 365 367 366 364 363 363 362 362 360 358 358 359 357 356
360 361 358 361 360 358 356 359 361 357 354 351 349 351 355 356 356 355 354 354 355 356 357 361 360 359 359 359 361 363 367 367 364 363 363 362 360 357 355 354 355 357 356
361 362 359 360 360 358 359 362 360 357 354 356 354 351 351 352 354 354 354 353 355 355 357 359 360 359 360 362 361 364 366 365 364 364 364 361 359 356 351 350 351 356 356
360 362 361 360 361 359 361 362 362 356 356 357 351 351 342 345 349 348 352 351 353 353 356 359 361 364 363 363 364 363 362 362 361 362 363 360 356 352 348 348 349 356 355
359 360 360 360 362 362 357 361 361 361 353 356 358 349 342 338 345 350 352 354 358 356 357 360 363 365 368 365 366 367 362 360 360 359 359 357 352 350 347 344 347 355 354
361 359 360 360 364 361 361 363 362 362 361 354 359 354 355 354 346 341 351 355 357 356 360 359 363 366 368 364 367 365 360 359 359 356 356 354 351 350 347 344 346 354 354
362 359 361 361 363 361 362 365 363 364 360 355 354 356 355 348 354 348 343 348 356 357 358 362 363 362 364 365 364 361 358 358 357 353 352 350 350 351 348 346 348 355 355
358 361 362 361 362 361 361 364 364 362 361 360 357 358 354 351 348 347 346 350 350 354 359 361 361 362 361 361 364 358 358 354 354 350 348 346 348 349 349 350 353 357 357
358 359 362 362 360 362 360 365 365 363 362 359 362 356 358 356 355 350 352 349 350 355 357 362 360 360 359 360 362 358 355 349 350 346 344 343 344 345 346 350 351 355 359
366 362 361 362 362 362 361 363 361 361 364 362 359 361 359 358 359 356 353 350 346 350 354 354 359 359 361 360 359 357 356 345 346 342 340 339 341 341 342 343 346 349 358
362 360 361 361 361 361 361 363 359 361 362 363 363 362 360 361 362 360 359 357 350 341 343 352 351 361 360 360 358 361 357 343 344 341 339 337 338 338 340 342 342 344 348
361 361 361 360 362 362 363 362 360 362 361 359 359 363 363 363 362 362 361 359 358 349 342 353 352 357 363 360 359 363 358 349 343 340 338 337 337 337 337 340 342 343 345
360 360 361 361 361 361 362 362 362 361 359 360 361 361 361 362 359 360 361 360 357 355 345 348 356 359 362 364 364 363 357 353 352 341 338 337 336 335 335 335 338 338 342
359 359 360 359 359 361 361 361 358 357 359 358 358 360 359 356 361 362 357 360 359 361 353 353 358 356 360 364 363 362 356 353 357 341 338 337 336 334 333 334 333 335 337
359 358 357 357 357 359 361 360 361 359 358 359 359 358 358 359 360 357 359 357 358 359 359 354 354 358 359 360 359 361 360 362 355 344 337 336 334 333 332 330 330 331 330
360 358 357 356 355 355 356 358 360 360 360 359 360 359 358 359 359 361 360 362 361 360 361 357 354 353 356 361 358 354 352 357 357 358 348 343 340 340 333 329 329 329 326
360 359 358 357 354 353 351 354 356 357 358 357 358 360 360 356 348 350 361 365 361 354 351 350 349 351 350 352 353 353 352 353 358 360 356 354 354 356 353 336 340 333 327
355 356 356 358 358 356 329 334 346 354 359 360 360 361 362 353 352 339 338 338 349 360 361 351 351 351 356 355 352 351 349 346 341 353 357 350 354 353 354 357 342 335 327
350 350 350 350 348 348 327 330 337 359 361 361 362 362 361 356 353 360 346 337 338 335 339 360 357 357 356 358 359 356 356 354 352 355 357 351 353 351 355 359 338 331 327
342 343 345 347 348 344 325 325 331 357 359 358 358 358 358 359 355 351 358 359 359 360 360 356 359 360 361 362 362 360 359 358 357 357 363 350 354 353 357 358 341 332 326
338 338 341 342 345 344 325 325 337 348 352 352 353 353 353 357 323 323 352 356 357 358 344 336 334 332 333 333 338 352 352 351 349 351 359 354 354 354 355 356 357 332 325
332 334 338 340 329 334 317 317 328 337 336 339 344 339 325 329 320 318 338 346 350 354 354 355 356 351 342 354 332 352 354 350 349 347 357 354 353 354 348 355 357 359 357

GFSMA_sfc_thetae_120.txt.gz
Theta_e
357 357 360 356 358 358 356 357 356 355 352 352 355 356 353 354 352 352 350 351 352 355 355 355 357 359 360 361 362 363 364 363 363 364 364 362 362 361 360 358 358 355 355
358 357 357 355 357 357 359 357 359 355 351 351 352 355 355 354 356 358 356 356 353 354 357 358 358 360 362 363 364 366 366 365 364 362 362 361 361 362 360 359 358 356 356
361 361 357 356 357 360 362 360 362 360 351 350 353 354 354 357 357 358 359 358 357 355 354 355 357 358 360 362 365 369 367 366 364 364 362 362 362 361 359 360 359 358 356
362 362 357 356 360 361 357 357 356 353 352 352 353 354 355 359 358 360 360 359 359 358 359 357 356 357 359 362 367 369 369 368 366 364 364 363 361 360 359 359 356 359 356
362 363 357 358 366 360 357 356 355 356 353 352 349 352 355 358 358 355 358 361 360 361 361 359 359 360 360 362 364 365 369 367 365 364 364 363 360 358 356 356 357 359 356
362 363 357 361 363 359 355 359 361 358 357 354 348 349 355 356 358 358 356 357 358 360 360 364 364 361 363 358 360 365 369 369 366 364 364 362 358 352 351 351 356 358 356
363 367 358 360 362 357 361 363 360 358 353 358 350 347 349 353 356 355 355 355 356 358 361 363 362 362 362 364 364 364 365 366 366 366 364 359 353 350 349 349 354 358 355
363 361 363 360 362 358 362 364 364 354 354 358 349 349 341 343 349 351 355 354 358 359 359 362 365 367 366 362 366 365 365 364 364 362 360 354 351 348 347 347 354 356 354
360 362 364 362 364 361 355 362 363 365 351 358 361 350 339 338 344 350 355 357 361 358 358 361 364 368 368 363 365 367 363 361 361 360 358 353 351 349 346 349 356 355 354
360 360 361 363 364 360 363 363 361 364 365 353 359 357 359 358 344 340 351 356 360 359 362 361 362 363 365 361 366 360 361 361 359 357 354 353 351 349 347 350 357 355 353
362 359 362 363 363 358 364 366 366 367 361 357 355 359 358 356 360 347 342 349 357 359 362 362 362 361 361 362 361 362 359 357 356 353 351 352 351 351 350 352 357 355 353
357 362 361 364 365 365 362 363 367 366 365 364 360 359 355 352 349 350 349 353 352 357 362 362 360 360 360 359 362 360 355 355 353 349 347 348 349 350 353 356 358 357 354
353 361 364 364 362 366 364 366 367 366 365 361 366 358 359 357 356 354 352 349 348 356 356 362 357 357 357 359 359 358 354 351 350 346 344 345 346 347 351 353 356 359 357
356 361 363 362 363 365 363 367 361 359 363 363 360 363 359 360 360 357 354 350 345 351 353 354 355 358 357 358 358 358 356 346 347 343 341 342 342 343 345 347 349 354 358
355 359 360 360 361 362 364 365 358 362 363 362 363 364 359 362 361 360 358 354 349 342 343 354 352 360 356 354 357 362 363 343 346 343 341 340 339 340 343 343 343 346 355
359 361 360 360 361 362 362 365 360 363 364 359 355 363 362 360 359 358 357 355 353 348 342 347 351 356 361 358 360 363 361 353 346 343 341 339 338 338 338 341 343 344 349
363 362 362 360 360 360 362 365 361 360 361 361 362 361 361 365 355 356 356 355 353 351 345 346 350 358 364 361 362 365 358 355 352 343 341 340 338 337 338 338 340 341 344
367 365 363 361 361 360 362 361 358 356 358 357 358 359 359 355 361 362 355 360 358 359 352 353 357 354 358 364 366 366 360 352 357 343 341 340 338 337 336 336 337 338 337
364 365 365 364 359 360 361 360 360 359 358 357 357 358 358 360 360 358 360 357 354 356 357 352 351 354 355 358 360 362 361 362 352 344 339 337 336 335 333 332 332 331 330
364 364 365 364 362 361 362 360 360 360 359 356 357 358 358 358 359 359 358 360 359 356 356 352 349 349 350 358 359 352 350 352 351 353 350 345 348 340 336 331 330 329 325
358 360 363 363 361 359 357 361 360 360 358 357 356 358 358 356 350 351 354 360 362 355 348 346 345 345 346 351 353 351 349 348 353 349 350 351 347 348 350 336 343 335 328
362 363 362 361 360 357 332 337 348 359 359 359 358 359 361 355 353 342 341 341 349 363 359 352 349 349 357 355 352 350 352 348 345 353 355 351 353 349 348 351 344 338 329
357 358 360 359 358 355 328 330 338 360 361 361 362 360 357 352 354 359 345 340 340 337 339 361 357 356 357 359 362 360 362 357 355 357 359 352 356 351 352 355 341 335 328
349 350 352 354 350 341 325 327 333 361 363 362 361 361 361 361 344 350 360 360 360 360 362 359 362 361 365 366 365 364 362 363 361 361 367 351 356 354 358 358 341 335 329
346 347 347 350 339 333 317 319 334 356 355 355 351 345 353 342 325 324 350 357 359 360 346 338 335 333 334 334 340 354 353 355 350 352 358 357 355 356 357 356 358 335 328
338 343 340 337 330 331 312 313 326 345 345 346 347 345 325 326 317 318 336 345 348 352 346 349 351 351 345 356 335 359 360 353 354 349 359 356 361 354 350 357 358 360 360

GFSMA_sfc_thetae_126.txt.gz
Theta_e
354 353 358 354 360 355 356 359 357 356 357 356 355 355 350 354 349 349 347 358 357 356 356 357 359 360 363 366 367 369 369 365 364 363 362 361 361 360 360 359 359 358 357
365 362 356 362 354 356 360 361 363 359 356 355 355 355 356 357 360 361 352 354 360 361 362 362 361 361 361 363 367 370 369 368 365 364 363 363 361 361 359 360 360 358 357
359 350 363 351 358 360 365 366 365 362 353 351 355 356 356 360 358 358 358 355 357 363 365 365 364 363 362 363 368 369 369 369 367 365 364 361 359 358 358 359 360 358 357
361 360 353 361 367 369 361 356 354 357 356 353 356 356 356 356 359 361 358 357 356 356 363 366 365 363 362 362 368 369 370 369 367 366 361 354 352 352 353 357 360 358 356
355 354 355 365 371 364 353 360 360 360 355 353 352 355 355 356 355 353 358 360 356 358 360 364 366 365 364 363 366 369 370 369 367 363 354 351 349 351 353 358 360 357 356
350 353 360 368 366 360 358 366 365 363 364 354 350 351 356 355 358 355 353 354 354 354 358 366 363 361 367 369 369 369 371 369 366 359 353 350 349 349 353 359 358 357 355
365 359 362 365 354 351 367 366 366 364 360 361 362 353 352 353 354 354 353 353 355 356 359 364 364 364 363 368 367 367 368 367 364 358 354 351 348 351 356 358 356 356 354
366 360 369 365 363 362 364 365 368 364 362 362 356 350 342 345 346 348 356 352 354 355 352 353 367 369 366 366 364 366 365 365 361 358 355 351 350 355 358 357 355 354 353
363 355 368 367 362 350 356 365 368 365 360 360 360 350 333 329 334 338 337 346 357 350 339 340 350 367 365 366 360 363 362 361 359 358 355 352 353 357 358 356 355 354 351
358 363 366 368 363 338 352 364 366 366 363 357 360 352 332 336 325 329 332 334 342 340 344 351 360 365 362 362 362 360 360 359 356 355 355 354 355 359 357 356 355 353 351
367 359 367 368 368 365 366 368 369 368 364 357 351 356 353 343 337 328 323 335 341 338 342 340 350 359 360 359 356 358 358 356 353 352 353 353 356 358 356 355 354 352 350
361 362 361 369 368 361 357 365 369 369 366 366 365 363 358 347 332 324 328 335 331 333 341 338 343 347 358 357 356 359 356 353 351 349 349 350 354 358 358 356 355 353 350
357 365 370 368 367 369 367 370 370 369 369 366 366 362 361 360 357 352 345 340 335 339 333 338 344 339 353 359 359 357 355 351 348 346 346 347 348 353 358 358 357 354 353
355 364 367 369 367 369 369 369 367 366 366 367 366 366 363 358 359 357 352 347 336 332 336 332 346 348 359 361 360 357 351 349 346 343 343 343 345 346 350 353 358 357 355
359 365 365 368 367 357 370 368 365 364 359 365 364 365 365 358 359 359 357 353 349 339 336 344 344 364 360 359 360 363 361 347 346 343 341 341 342 344 346 348 349 352 353
354 360 364 362 363 360 367 368 364 365 364 364 362 362 366 364 359 358 354 353 356 349 343 349 349 360 363 356 360 362 363 349 347 343 341 339 340 341 342 345 346 346 352
371 366 368 361 365 360 366 366 364 363 361 361 364 361 362 365 361 358 358 356 353 355 347 352 353 356 363 359 362 366 362 359 348 343 341 339 338 339 340 340 343 344 346
371 366 367 367 361 365 361 362 363 360 358 361 361 363 361 354 363 365 361 359 357 360 349 347 356 353 355 356 362 363 360 354 357 344 341 339 337 336 336 337 337 339 339
364 365 367 366 366 363 361 363 362 361 363 358 358 361 360 361 362 361 360 358 357 356 357 352 350 353 355 356 346 358 360 355 351 343 338 338 337 336 334 333 332 331 333
363 364 365 363 364 363 366 357 358 361 360 359 358 357 361 359 360 360 358 358 355 355 356 352 347 352 351 356 353 352 348 355 352 358 352 345 341 339 335 332 331 330 326
363 363 362 361 361 364 351 349 358 357 361 362 361 360 360 354 350 350 357 359 358 357 352 348 347 348 349 351 350 355 352 352 355 357 356 357 355 353 352 336 338 335 329
364 362 363 356 356 347 333 335 345 363 358 355 355 360 363 353 355 345 343 342 348 357 355 352 350 347 349 353 353 354 352 351 346 359 356 354 357 351 354 353 339 338 330
361 359 358 354 347 337 325 329 336 356 361 360 356 361 358 348 341 354 348 342 342 339 339 349 351 354 352 356 357 354 353 352 350 354 355 351 357 354 356 359 338 335 330
360 360 357 347 336 325 318 321 328 350 358 357 354 352 350 339 328 332 352 356 357 357 357 355 357 356 356 357 358 355 353 354 355 356 356 347 355 353 356 358 339 334 329
351 343 340 335 329 322 316 318 330 351 357 348 338 333 341 333 321 321 342 344 348 348 340 333 331 330 332 335 339 351 350 348 346 348 355 348 351 349 353 355 357 337 331
337 332 329 329 324 323 314 315 330 344 351 348 335 328 320 322 317 317 335 339 332 333 332 335 339 341 343 349 336 349 352 346 346 344 353 338 344 346 343 352 350 355 356